     2              OBSERVATION DATA    GPS                 RINEX VERSION / TYPE
teqc 2002Apr3 20040909 19:21:48UTC                          PGM / RUN BY / DATE
                                                            COMMENT
L2: 1 -> 1; 150 -> 5; 250 -> 9                              COMMENT
L2: 1 -> 1; 150 -> 5; 250 -> 9                              COMMENT
L2: 1 -> 1; 150 -> 5; 250 -> 9                              COMMENT
L2: 1 -> 1; 150 -> 5; 250 -> 9                              COMMENT
L2: 1 -> 1; 150 -> 5; 250 -> 9                              COMMENT
Original Marker Name: ????                                  COMMENT
Campaign Name: SBVC December 2003                           COMMENT
4-Character Station Name: HIGH                              COMMENT
6-Character Antenna Code: DMRCHT                            COMMENT
Vertical Measurement Point: BCR                             COMMENT
Vertical Offset to Rinex Ref. Point: 0.0348                 COMMENT
Radial Measurement Point: ECF                               COMMENT
Radial Offset to Rinex Ref. Point: 0.1897                   COMMENT
Antenna Height from Field Measurement: 1.3770 m             COMMENT
Additional Antenna Identification Info.:                    COMMENT
Turborogue and Ashtech Choke Ring                           COMMENT
Original XYZ: -2413435.7900 -4702237.6800 3559081.6800      COMMENT
New XYZ position is based on association with SCEC monument COMMENT
E1D0S5P0+0011. Position of that monument is believed to be  COMMENT
valid to within 1 m horizontally; vertical accuracy         COMMENT
should be no worse than 3-times this value.                 COMMENT
                                                            COMMENT
Revised Rinex header created by UCSD GPS archive for        COMMENT
GSAC on 09-Nov-2004 (2004:314) 22:43:53 GMT                 COMMENT
For assistance contact dagnew@ucsd.edu                      COMMENT
or anderson@python.ucsd.edu                                 COMMENT
                                                            COMMENT
HIGHLANDS                                                   MARKER NAME
___ CAL STATE SAN BERNARDINO                                OBSERVER / AGENCY
1224 ASHTECH Z-X ZB00                                       REC # / TYPE / VERS
1401 DORNE-MARGOL. TYPE T                                   ANT # / TYPE
 -2413428.0000 -4702229.0000  3559075.0000                  APPROX POSITION XYZ
        1.3291        0.0000        0.0000                  ANTENNA: DELTA H/E/N
     1     1     0                                          WAVELENGTH FACT L1/2
     7    C1    L1    L2    P1    P2    S1    S2            # / TYPES OF OBSERV
     0                                                      INTERVAL
  2003    12    17    16    47    0.000000                  TIME OF FIRST OBS
  2003    12    17    23    39   30.000000                  TIME OF LAST OBS
                                                            END OF HEADER
 03 12 17 16 47  0.0000000  0  7G 1G31G28G27G 8G10G13
  23227051.6464      61592.99253     37866.08352  23227051.8114   23227050.7834
        48.0004         42.0004
  21254930.8164    -181706.14253   -143013.41852  21254932.0724   21254926.7754
        56.0004         49.0004
  22315301.7234    -391081.57253   -302589.17252  22315303.4154   22315298.3144
        54.0004         46.0004
  20669974.6704    4488466.00653   3497648.34952  20669976.3634   20669970.3764
        56.0004         50.0004
  21310103.3034    -354517.82753   -269505.53552  21310103.3754   21310098.3054
        56.0004         49.0004
  23816998.3154    -216067.00753   -169002.41652  23816998.2294   23816994.7124
        46.0004         41.0004
  21060620.9804     -12680.35154    -19872.27052  21060623.1824   21060616.5784
        58.0004         50.0004
 03 12 17 16 47 30.0000000  0  8G 1G 3G31G28G27G 8G10G13
  23245992.5464     161127.84043    115425.62242  23245994.2384   23245991.1504
        49.0004         42.0004
  23774738.1594       4290.28653     -8094.37452  23774742.2244   23774736.7464
        48.0004         40.0004
  21256217.7804    -174943.42143   -137743.75042  21256219.3834   21256213.5694
        55.0004         48.0004
  22302510.6064    -458300.81443   -354967.78042  22302511.9364   22302506.4264
        53.0004         46.0004
  20667595.1594    4475961.57544   3487904.62642  20667596.5734   20667591.0174
        57.0004         50.0004
  21300192.5544    -406599.50843   -310088.66542  21300192.4264   21300187.6934
        56.0004         49.0004
  23816154.0144    -220507.79843   -172462.82042  23816153.1554   23816150.5924
        48.0004         42.0004
  21072988.2174      52310.66844     30770.06442  21072990.2734   21072984.0324
        57.0004         50.0004
 03 12 17 16 48  0.0000000  0  8G 1G 3G31G28G27G 8G10G13
  23264977.0594     260894.78743    193165.98242  23264979.1514   23264977.0784
        49.0004         41.0004
  23788938.4474      78919.29643     50058.04742  23788938.7024   23788937.5774
        46.0004         39.0004
  21257625.9134    -167548.05243   -131981.12342  21257626.7634   21257621.6284
        54.0004         47.0004
  22289775.1834    -525225.80743   -407117.12142  22289777.1754   22289770.6214
        55.0004         46.0004
  20665247.9724    4463626.00543   3478292.47942  20665249.0834   20665243.5744
        56.0004         50.0004
  21290307.5394    -458546.07543   -350566.50442  21290307.5144   21290302.4884
        56.0004         48.0004
  23815409.4044    -224416.42543   -175508.53042  23815410.7304   23815406.3054
        48.0004         42.0004
  21085441.5504     117753.32543     81764.32442  21085443.8434   21085437.2484
        56.0004         49.0004
 03 12 17 16 48 30.0000000  0  8G 1G 3G31G28G27G 8G10G13
  23284006.6674     360892.79443    271086.40442  23284007.9074   23284005.6524
        48.0004         42.0004
  23803216.2954     153954.02243    108526.57642  23803218.3724   23803213.8964
        45.0004         39.0004
  21259153.0334    -159519.01343   -125724.73042  21259154.1254   21259149.0794
        55.0004         48.0004
  22277095.9724    -591855.27343   -459036.16042  22277097.3444   22277091.8354
        54.0004         46.0004
  20662933.0704    4451461.25044   3468813.42842  20662934.5714   20662928.8094
        57.0004         50.0004
  21280448.1914    -510355.96943   -390937.87642  21280448.3914   21280442.9594
        56.0004         48.0004
  23814767.8004    -227792.25143   -178139.07342  23814767.2304   23814764.1224
        47.0004         41.0004
  21097980.9574     183647.31844    133110.25342  21097983.1124   21097976.8164
        57.0004         50.0004
 03 12 17 16 49  0.0000000  0  8G 1G 3G31G28G27G 8G10G13
  23303079.6304     461121.30043    349186.40842  23303080.9424   23303077.8784
        48.0004         41.0004
  23817576.4204     229393.27043    167310.31642  23817576.4104   23817572.8114
        48.0004         40.0004
  21260802.0884    -150855.03943   -118973.57442  21260802.9394   21260798.0204
        55.0004         48.0004
  22264473.5224    -658187.27043   -510723.41242  22264475.2674   22264468.9064
        54.0004         46.0004
  20660650.8944    4439469.69944   3459469.34342  20660652.4264   20660646.9504
        57.0004         50.0004
  21270615.4914    -562027.15943   -431201.14842  21270615.6694   21270610.0674
        56.0004         49.0004
  23814226.3524    -230634.36143   -180353.72342  23814227.1154   23814221.8494
        48.0004         41.0004
  21110605.9734     249992.64844    184807.88442  21110608.0124   21110601.7724
        57.0004         50.0004
 03 12 17 16 49 30.0000000  0  8G 1G 3G31G28G27G 8G10G13
  23322195.5114     561575.49843    427462.29242  23322197.5044   23322193.4194
        48.0004         41.0004
  23832006.0104     305232.18243    226405.46642  23832008.6564   23832001.5874
        48.0004         39.0004
  21262571.5434    -141559.00443   -111729.90542  21262571.9184   21262566.7634
        55.0004         48.0004
  22251907.1244    -724224.33643   -562180.84942  22251908.6334   22251902.9054
        54.0004         46.0004
  20658401.9284    4427649.34044   3450258.65642  20658403.3734   20658397.4784
        57.0004         50.0004
  21260809.3414    -613561.67543   -471357.91542  21260808.9904   21260804.1544
        56.0004         49.0004
  23813785.9604    -232946.50743   -182155.42042  23813786.5504   23813782.6474
        47.0004         41.0004
  21123316.3404     316785.32544    236854.09342  21123318.2444   21123312.4534
        57.0004         50.0004
 03 12 17 16 50  0.0000000  0  8G 1G 3G31G28G27G 8G10G13
  23341354.3864     662256.07043    505914.54742  23341355.6904   23341353.3674
        49.0004         42.0004
  23846513.4204     381471.23443    285812.45242  23846516.5194   23846508.8624
        47.0004         39.0004
  21264459.9744    -131628.16843   -103991.58642  21264462.1044   21264456.4984
        55.0004         48.0004
  22239397.3534    -789962.85043   -613405.64542  22239398.9714   22239392.6454
        54.0004         46.0004
  20656185.9654    4416003.95344   3441184.30742  20656187.3844   20656181.8174
        57.0004         50.0004
  21251028.9774    -664955.94243   -511405.40442  21251029.0704   21251023.3784
        56.0004         49.0004
  23813447.3184    -234726.30843   -183542.30542  23813448.8594   23813444.0454
        48.0004         41.0004
  21136111.8044     384026.46544    289249.75342  21136114.0054   21136107.9574
        57.0004         50.0004
 03 12 17 16 50 30.0000000  0  8G 1G 3G31G28G27G 8G10G13
  23360556.1274     763159.26043    584540.29142  23360557.0404   23360554.0914
        49.0004         42.0004
  23861096.5424     458106.18043    345527.97042  23861095.8704   23861097.7634
        46.0004         40.0004
  21266471.6054    -121064.44043    -95760.11442  21266471.8734   21266466.5734
        55.0004         48.0004
  22226944.2314    -855404.52743   -664399.14142  22226945.5684   22226939.5074
        54.0004         46.0004
  20654003.0154    4404532.71144   3432245.65442  20654004.5764   20653998.8614
        57.0004         50.0004
  21241275.5364    -716211.10243   -551344.49042  21241275.5884   21241270.0684
        56.0004         49.0004
  23813210.2524    -235976.12943   -184516.20142  23813210.6284   23813208.0334
        48.0004         41.0004
  21148992.2624     451713.09344    341992.54842  21148994.2804   21148988.1804
        57.0004         50.0004
 03 12 17 16 51  0.0000000  0  8G 1G 3G31G28G27G 8G10G13
  23379799.6484     864284.39243    663338.95742  23379800.9674   23379799.5444
        49.0004         42.0004
  23875758.6324     535136.22543    405551.31942  23875758.5354   23875750.2424
        48.0004         39.0004
  21268601.7964    -109866.71343    -87034.61742  21268603.1214   21268597.6214
        55.0004         48.0004
  22214547.8884    -920547.48743   -715159.87142  22214549.5474   22214543.4104
        54.0004         47.0004
  20651853.5754    4393237.96244   3423444.53542  20651855.1754   20651849.4674
        57.0004         50.0004
  21231548.6704    -767325.19843   -591173.65842  21231548.8084   21231543.5214
        56.0004         49.0004
  23813073.0384    -236695.36643   -185076.65342  23813073.8714   23813070.6974
        48.0004         41.0004
  21161957.2314     519844.85344    395082.19442  21161959.7204   21161953.2744
        57.0004         50.0004
 03 12 17 16 51 30.0000000  0  8G 1G 3G31G28G27G 8G10G13
  23399084.9054     965629.97443    742309.41242  23399087.2874   23399084.4284
        48.0004         42.0004
  23890487.5844     612559.58743    465881.07542  23890492.6764   23890488.3024
        48.0004         39.0004
  21270852.8424     -98034.61743    -77814.80942  21270854.5484   21270849.5974
        55.0004         48.0004
  22202208.8644    -985391.05143   -765687.30642  22202210.6694   22202204.0964
        54.0004         47.0004
  20649738.1984    4382121.01744   3414781.96642  20649739.6624   20649734.1424
        57.0004         50.0004
  21221849.2794    -818296.85043   -630891.83342  21221849.2924   21221843.8444
        56.0004         49.0004
  23813036.5194    -236884.07143   -185223.71442  23813037.7314   23813035.1164
        48.0004         41.0004
  21175006.8944     588420.84844    448517.99742  21175009.2834   21175003.0064
        57.0004         49.0004
 03 12 17 16 52  0.0000000  0  8G 1G 3G31G28G27G 8G10G13
  23418411.2224    1067191.30043    821447.97342  23418412.2814   23418412.7844
        48.0004         41.0004
  23905293.7034     690370.81443    526513.13242  23905297.1024   23905292.3394
        47.0004         39.0004
  21273225.3704     -85571.22343    -68103.08242  21273226.2104   21273221.1614
        55.0004         48.0004
  22189925.8084   -1049937.56443   -815983.26842  22189927.2284   22189921.5544
        54.0004         47.0004
  20647656.1364    4371180.19544   3406256.63642  20647657.6804   20647651.9214
        57.0004         50.0004
  21212176.2644    -869128.33343   -670500.78342  21212176.7094   21212170.7894
        55.0004         49.0004
  23813101.7364    -236545.82943   -184960.17842  23813102.6094   23813098.3394
        48.0004         41.0004
  21188140.1094     657436.83544    502296.65042  21188142.4584   21188136.4914
        57.0004         49.0004
 03 12 17 16 52 30.0000000  0  8G 1G 3G31G28G27G 8G10G13
  23437779.0144    1168967.84143    900754.22542  23437779.7424   23437777.3264
        48.0004         41.0004
  23920177.3374     768569.04043    587446.79242  23920178.9734   23920173.6424
        48.0004         39.0004
  21275715.8474     -72475.17343    -57898.38342  21275718.3564   21275713.0974
        55.0004         48.0004
  22177699.6214   -1114185.13143   -866046.28542  22177701.6434   22177695.4944
        54.0004         47.0004
  20645608.2804    4360417.94244   3397870.44842  20645609.6924   20645603.9994
        57.0004         50.0004
  21202530.5724    -919817.12543   -709998.53742  21202530.6264   21202525.7894
        56.0004         49.0004
  23813266.0644    -235679.56143   -184285.18242  23813267.2144   23813262.4534
        47.0004         41.0004
  21201357.1874     726892.92644    556418.24242  21201359.5614   21201353.3024
        57.0004         49.0004
 03 12 17 16 53  0.0000000  0  8G 1G 3G31G28G27G 8G10G13
  23457187.8794    1270960.68843    980229.02642  23457187.4364   23457186.3364
        48.0004         41.0004
  23935130.0064     847155.43843    648682.84342  23935133.6364   23935127.7344
        47.0004         39.0004
  21278329.6854     -58743.62243    -47198.50442  21278331.5364   21278326.0914
        55.0004         48.0004
  22165531.6824   -1178130.23943   -915873.62742  22165532.8734   22165527.4384
        54.0004         47.0004
  20643595.1624    4349838.25744   3389626.51942  20643596.5014   20643590.8754
        57.0004         50.0004
  21192912.5024    -970359.64243   -749382.32342  21192912.8744   21192907.2904
        56.0004         49.0004
  23813532.8744    -234283.14843   -183197.10142  23813532.2114   23813529.9674
        47.0004         41.0004
  21214658.5004     796790.56144    610883.90042  21214660.6324   21214654.5304
        57.0004         49.0004
 03 12 17 16 53 30.0000000  0  8G 1G 3G31G28G27G 8G10G13
  23476636.0884    1373162.40743   1059866.59842  23476638.0844   23476636.0344
        48.0004         41.0004
  23950156.7344     926122.17943    710215.30542  23950159.1324   23950156.0884
        46.0004         39.0004
  21281062.9494     -44382.14243    -36007.75842  21281064.3304   21281059.2654
        55.0004         48.0004
  22153419.8634   -1241777.62043   -965468.97042  22153421.3174   22153415.4834
        54.0004         47.0004
  20641615.6944    4339436.96244   3381521.60042  20641617.2834   20641611.5114
        57.0004         50.0004
  21183321.9514   -1020760.27243   -788655.54542  21183321.2544   21183316.3864
        56.0004         49.0004
  23813897.4274    -232362.82343   -181700.75442  23813899.8214   23813895.2024
        48.0004         41.0004
  21228042.3834     867123.08344    665688.43142  21228044.3324   21228038.3414
        57.0004         49.0004
 03 12 17 16 54  0.0000000  0  8G 1G 3G31G28G27G 8G10G13
  23496124.1994    1475573.70643   1139667.46242  23496126.1734   23496121.6214
        47.0004         41.0004
  23965258.2524    1005469.64443    772044.41242  23965258.7774   23965255.8874
        46.0004         40.0004
  21283916.5194     -29388.38443    -24324.34042  21283917.9174   21283912.4264
        55.0004         48.0004
  22141365.2674   -1305124.49443  -1014830.15242  22141367.5054   22141361.2224
        55.0004         47.0004
  20639671.0944    4329217.68444   3373558.51142  20639672.5654   20639667.1184
        57.0004         50.0004
  21173758.5814   -1071015.63543   -827815.57742  21173758.1584   21173753.1114
        56.0004         49.0004
  23814362.4914    -229916.68643   -179794.69742  23814363.3624   23814360.1774
        48.0004         41.0004
  21241509.0264     937891.79544    720832.85342  21241511.4624   21241505.3034
        57.0004         49.0004
 03 12 17 16 54 30.0000000  0  8G 1G 3G31G28G27G 8G10G13
  23515651.6514    1578190.29843   1219628.29142  23515653.0094   23515651.4304
        47.0004         41.0004
  23980427.5344    1085192.96643    834166.38642  23980429.7884   23980426.2014
        46.0004         39.0004
  21286889.4724     -13764.99143    -12150.29442  21286890.7354   21286885.2774
        55.0004         48.0004
  22129367.6434   -1368172.74343  -1063958.64842  22129369.1974   22129362.9774
        54.0004         47.0004
  20637760.7824    4319179.02944   3365736.16542  20637762.5194   20637756.8254
        57.0004         50.0004
  21164222.6904   -1121127.32143   -866863.65342  21164222.4094   21164217.4334
        56.0004         49.0004
  23814928.7604    -226947.86543   -177481.35342  23814929.3274   23814924.3764
        48.0004         41.0004
  21255058.1174    1009092.31344    776313.75142  21255060.3854   21255054.1674
        57.0004         49.0004
 03 12 17 16 55  0.0000000  0  8G 1G 3G31G28G27G 8G10G13
  23535219.5904    1681017.21343   1299753.01742  23535221.4594   23535219.1614
        48.0004         41.0004
  23995670.3424    1165296.77943    896584.86542  23995671.4894   23995667.6914
        45.0004         39.0004
  21289983.5204       2494.66543       519.54042  21289984.9194   21289979.5774
        55.0004         48.0004
  22117428.3774   -1430915.14143  -1112848.80342  22117430.1124   22117424.0254
        54.0004         47.0004
  20635886.5964    4309329.06444   3358060.84742  20635887.9564   20635882.3304
        57.0004         50.0004
  21154715.2384   -1171087.27543   -905793.49842  21154715.3634   21154710.4184
        56.0004         49.0004
  23815594.1604    -223449.90343   -174755.69442  23815593.2674   23815590.1154
        48.0004         42.0004
  21268690.6394    1080730.68144    832135.82842  21268692.9314   21268686.6904
        57.0004         49.0004
 03 12 17 16 55 30.0000000  0  8G 1G 3G31G28G27G 8G10G13
  23554825.2454    1784047.22543   1380035.99342  23554827.1704   23554823.3804
        47.0004         41.0004
  24010985.9434    1245773.48543    959293.90242  24010988.1004   24010982.1854
        47.0004         40.0004
  21293196.6804      19385.10243     13680.89242  21293198.7974   21293194.0224
        55.0004         48.0004
  22105545.9574   -1493356.28543  -1161504.21942  22105547.8824   22105541.7194
        55.0004         47.0004
  20634047.3264    4299663.72944   3350529.39942  20634048.8564   20634043.1344
        57.0004         50.0004
  21145236.6224   -1220899.94043   -944608.57442  21145236.5244   21145231.3794
        56.0004         49.0004
  23816358.3384    -219429.07843   -171622.58042  23816358.5784   23816355.8764
        48.0004         41.0004
  21282405.3444    1152799.90844    888293.64242  21282407.4384   21282400.9814
        57.0004         49.0004
 03 12 17 16 56  0.0000000  0  8G 1G 3G31G28G27G 8G10G13
  23574468.6154    1887271.49843   1460470.33942  23574470.4974   23574467.1004
        47.0004         41.0004
  24026369.5154    1326613.90343   1022286.37342  24026371.9874   24026367.2724
        46.0004         39.0004
  21296530.3434      36898.93243     27328.00842  21296532.1624   21296526.6584
        55.0004         48.0004
  22093719.9144   -1555502.63143  -1209929.92342  22093721.7314   22093715.5724
        54.0004         47.0004
  20632242.0674    4290177.15544   3343137.24742  20632243.7754   20632237.9794
        57.0004         50.0004
  21135784.2444   -1270571.59243   -983313.76942  21135784.3094   21135778.7734
        56.0004         49.0004
  23817222.1384    -214892.90243   -168087.92142  23817223.1744   23817220.4194
        48.0004         41.0004
  21296199.8914    1225291.65744    944780.69942  21296202.2184   21296195.7604
        57.0004         49.0004
 03 12 17 16 56 30.0000000  0  8G 1G 3G31G28G27G 8G10G13
  23594150.0294    1990699.09143   1541063.10742  23594151.8084   23594149.1454
        48.0004         41.0004
  24041822.7544    1407826.79143   1085569.08042  24041823.3444   24041820.2524
        46.0004         39.0004
  21299983.6684      55046.90543     41469.26242  21299985.6884   21299980.4904
        55.0004         48.0004
  22081952.0964   -1617342.98543  -1258117.19442  22081954.1644   22081948.2674
        55.0004         47.0004
  20630473.1684    4280881.42044   3335893.79942  20630474.6514   20630469.2594
        57.0004         50.0004
  21126361.4424   -1320089.99543  -1021899.55342  21126361.4944   21126356.5024
        56.0004         49.0004
  23818184.7554    -209830.99243   -164143.59842  23818186.0144   23818182.5134
        48.0004         41.0004
  21310076.7144    1298215.38144   1001604.35342  21310079.1494   21310072.6894
        57.0004         49.0004
 03 12 17 16 57  0.0000000  0  8G 1G 3G31G28G27G 8G10G13
  23613869.7344    2094323.72843   1621809.41542  23613870.1504   23613867.3434
        48.0004         41.0004
  24057345.8414    1489405.41743   1149136.80542  24057348.3164   24057347.4814
        46.0004         40.0004
  21303558.2634      73824.19243     56100.90242  21303558.6854   21303552.9374
        55.0004         48.0004
  22070242.0334   -1678881.35043  -1306069.14142  22070243.7384   22070237.3584
        55.0004         47.0004
  20628740.0424    4271773.31544   3328796.55542  20628741.5284   20628735.8904
        57.0004         50.0004
  21116966.8884   -1369458.73743  -1060368.71642  21116966.9844   21116961.6264
        56.0004         49.0004
  23819246.7194    -204248.85443   -159793.88542  23819248.4314   23819244.3964
        48.0004         41.0004
  21324034.7984    1371565.18944   1058760.01742  21324037.0614   21324030.8334
        57.0004         49.0004
 03 12 17 16 57 30.0000000  0  8G 1G 3G31G28G27G 8G10G13
  23633625.4044    2198144.12843   1702708.25542  23633627.1314   23633624.7924
        47.0004         41.0004
  24072942.2304    1571348.22943   1212988.24842  24072943.9764   24072939.2634
        48.0004         40.0004
  21307249.1964      93231.16943     71223.20242  21307251.6884   21307246.4584
        54.0004         48.0004
  22058588.9124   -1740116.72543  -1353784.99742  22058590.9684   22058584.4724
        55.0004         47.0004
  20627042.9374    4262854.56944   3321846.86542  20627044.2444   20627038.7344
        57.0004         50.0004
  21107600.8134   -1418676.40843  -1098720.15342  21107601.2084   21107595.6774
        56.0004         49.0004
  23820408.9424    -198146.55143   -155038.88742  23820409.4224   23820405.4234
        47.0004         41.0004
  21338073.6794    1445340.35744   1116247.13042  21338075.8294   21338069.8114
        57.0004         49.0004
 03 12 17 16 58  0.0000000  0  7G 1G31G28G27G 8G10G13
  23653418.0844    2302155.00843   1783755.52642  23653419.4854   23653417.9274
        47.0004         40.0004
  21311063.2924     113264.10043     86833.27042  21311064.1034   21311058.3624
        55.0004         48.0004
  22046993.7104   -1801051.86043  -1401266.89842  22046995.2074   22046989.5554
        55.0004         47.0004
  20625381.2114    4254123.23744   3315043.21442  20625383.1734   20625377.2814
        57.0004         50.0004
  21098263.6904   -1467745.13243  -1136955.52942  21098264.0204   21098258.5264
        56.0004         49.0004
  23821668.5014    -191528.34243   -149881.85542  23821668.9824   23821664.7244
        48.0004         41.0004
  21352192.7204    1519535.85944   1174061.77442  21352194.7414   21352188.5934
        57.0004         49.0004
 03 12 17 16 58 30.0000000  0  7G 1G31G28G27G 8G10G13
  23673247.9204    2406358.77843   1864953.07942  23673249.2054   23673246.8894
        47.0004         40.0004
  21314993.8704     133926.78643    102934.06142  21314996.2334   21314990.6884
        54.0004         48.0004
  22035455.8094   -1861682.03243  -1448511.16642  22035458.0144   22035451.8854
        55.0004         47.0004
  20623756.2874    4245584.71044   3308389.80742  20623757.8864   20623752.3994
        57.0004         50.0004
  21088955.2104   -1516659.72443  -1175070.80042  21088955.4184   21088950.3224
        56.0004         49.0004
  23823026.5154    -184390.77043   -144320.14042  23823027.5094   23823023.9474
        47.0004         41.0004
  21366392.3704    1594154.51044   1232206.14942  21366394.9114   21366388.0724
        57.0004         49.0004
 03 12 17 16 59  0.0000000  0  7G 1G31G28G27G 8G10G13
  23693113.7184    2510751.98143   1946298.25642  23693115.1254   23693112.3974
        48.0004         40.0004
  21319045.3384     155217.44043    119524.17242  21319047.1464   21319042.3004
        55.0004         48.0004
  22023976.1174   -1922008.25843  -1495518.59542  22023977.7024   22023972.0304
        55.0004         47.0004
  20622168.3634    4237238.72444   3301886.43142  20622169.9534   20622164.0454
        57.0004         50.0004
  21079676.4014   -1565420.39943  -1213066.13942  21079676.6394   21079671.5444
        56.0004         49.0004
  23824482.0614    -176736.08043   -138355.45442  23824484.0374   23824481.1004
        48.0004         41.0004
  21380671.8004    1669193.55644   1290678.09542  21380674.3064   21380667.9764
        57.0004         49.0004
 03 12 17 16 59 30.0000000  0  7G 1G31G28G27G 8G10G13
  23713014.9564    2615332.75343   2027789.59342  23713016.1104   23713015.2164
        47.0004         40.0004
  21323216.4524     177135.49043    136603.16142  21323218.6534   21323213.3244
        54.0004         48.0004
  22012554.6194   -1982030.21643  -1542288.93942  22012556.0234   22012550.1124
        55.0004         47.0004
  20620617.0804    4229086.43444   3295533.98742  20620618.6754   20620612.7194
        57.0004         50.0004
  21070426.9594   -1614026.48343  -1250941.01742  21070427.0394   21070422.0394
        56.0004         49.0004
  23826037.0014    -168565.10843   -131988.50542  23826037.9494   23826036.8004
        47.0004         41.0004
  21395030.6834    1744651.30744   1349476.30542  21395032.9494   21395027.1984
        57.0004         49.0004
 03 12 17 17  0  0.0000000  0  7G 1G31G28G27G 8G10G13
  23732951.2764    2720098.00643   2109424.68642  23732953.1274   23732951.6394
        48.0004         40.0004
  21327506.5884     199679.50643    154169.92142  21327508.5284   21327502.7084
        55.0004         48.0004
  22001190.2614   -2041748.56343  -1588822.70042  22001192.1044   22001186.2974
        55.0004         47.0004
  20619102.4044    4221127.97744   3289332.58242  20619104.0014   20619098.6204
        57.0004         50.0004
  21061207.3404   -1662477.94543  -1288695.41342  21061206.9754   21061201.7154
        56.0004         49.0004
  23827690.1574    -159879.66143   -125220.63842  23827690.0924   23827688.6714
        47.0004         41.0004
  21409469.1154    1820525.01543   1408598.63542  21409471.1674   21409465.2604
        56.0004         49.0004
 03 12 17 17  0 30.0000000  0  7G 1G31G28G27G 8G10G13
  23752921.4954    2825041.88843   2191198.97942  23752921.3454   23752921.3034
        48.0004         40.0004
  21331915.3964     222844.94043    172220.89242  21331916.0154   21331911.1904
        55.0004         48.0004
  21989883.4834   -2101166.86743  -1635122.66342  21989885.3224   21989879.4094
        55.0004         47.0004
  20617624.3984    4213360.56644   3283280.04642  20617625.8094   20617620.3704
        57.0004         50.0004
  21052015.8294   -1710777.57243  -1326331.49042  21052016.2634   21052010.7014
        56.0004         49.0004
  23829439.8134    -150684.93543   -118055.93342  23829441.6674   23829438.0784
        47.0004         41.0004
  21423985.7724    1896809.34743   1468040.93342  21423988.1174   21423981.8754
        56.0004         49.0004
 03 12 17 17  1  0.0000000  0  7G 1G31G28G27G 8G10G13
  23772926.5564    2930168.73243   2273115.84642  23772928.1634   23772923.3814
        48.0004         40.0004
  21336443.1494     246637.35543    190760.42942  21336443.9954   21336438.1994
        54.0004         48.0004
  21978634.9354   -2160278.59643  -1681183.73442  21978636.6634   21978630.4764
        55.0004         47.0004
  20616184.1154    4205791.73344   3277382.24442  20616185.6034   20616180.0284
        57.0004         50.0004
  21042855.1474   -1758918.19243  -1363843.66942  21042855.2504   21042850.2924
        56.0004         49.0004
  23831287.9884    -140975.60543   -110490.25842  23831288.9714   23831286.1174
        47.0004         41.0004
  21438581.1714    1973509.25043   1527807.05542  21438583.4844   21438577.1114
        56.0004         49.0004
 03 12 17 17  1 30.0000000  0  7G 1G31G28G27G 8G10G13
  23792965.8724    3035473.97543   2355171.73042  23792967.7894   23792965.4134
        48.0004         40.0004
  21341088.1994     271053.62343    209786.07742  21341090.3644   21341084.7054
        54.0004         47.0004
  21967444.3244   -2219086.05943  -1727007.71942  21967446.0714   21967440.0234
        55.0004         47.0004
  20614781.4754    4198420.14544   3271638.14142  20614783.0424   20614777.3614
        57.0004         50.0004
  21033724.3954   -1806901.55243  -1401233.30942  21033724.3434   21033718.8824
        56.0004         49.0004
  23833232.9324    -130755.26943   -102526.38042  23833233.0874   23833229.6774
        47.0004         41.0004
  21453254.8554    2050619.98043   1587893.31242  21453256.9664   21453251.2574
        56.0004         49.0004
 03 12 17 17  2  0.0000000  0  7G 1G31G28G27G 8G10G13
  23813038.2404    3140954.72843   2437364.36142  23813041.0154   23813038.1674
        47.0004         40.0004
  21345853.5074     296092.29043    229296.70742  21345854.8634   21345849.5144
        54.0004         47.0004
  21956311.2314   -2277589.67443  -1772594.94142  21956313.1064   21956306.8144
        55.0004         47.0004
  20613416.3094    4191245.80444   3266047.73242  20613417.6124   20613412.2824
        57.0004         50.0004
  21024623.3084   -1854727.44544  -1438500.24442  21024623.5434   21024618.1294
        57.0004         49.0004
  23835275.6594    -120025.72843    -94165.72742  23835276.4464   23835272.0584
        48.0004         41.0004
  21468006.0804    2128139.06843   1648297.76342  21468008.2624   21468002.3484
        56.0004         48.0004
 03 12 17 17  2 30.0000000  0  7G 1G31G28G27G 8G10G13
  23833143.1054    3246609.12543   2519692.29142  23833146.6984   23833143.2164
        47.0004         40.0004
  21350736.7934     321752.67343    249291.79742  21350737.7544   21350732.5874
        55.0004         48.0004
  21945236.1844   -2335789.14543  -1817945.17142  21945237.8724   21945232.1004
        55.0004         47.0004
  20612088.7904    4184270.25144   3260612.22442  20612090.4254   20612084.6514
        57.0004         50.0004
  21015552.5854   -1902394.74743  -1475643.61042  21015552.9534   21015547.3844
        56.0004         49.0004
  23837412.6184    -108788.01543    -85409.09142  23837414.4704   23837410.7644
        48.0004         41.0004
  21482835.2124    2206065.12143   1709019.32742  21482837.3154   21482831.4764
        56.0004         48.0004
 03 12 17 17  3  0.0000000  0  7G 1G31G28G27G 8G10G13
  23853282.2804    3352436.89943   2602155.32842  23853284.6094   23853282.8014
        47.0004         40.0004
  21355737.1704     348035.82543    269772.14842  21355739.6754   21355734.3704
        54.0004         48.0004
  21934219.5454   -2393682.51843  -1863056.88142  21934221.3424   21934215.2434
        55.0004         48.0004
  20610799.7424    4177496.19844   3255333.72642  20610801.3744   20610795.6164
        57.0004         50.0004
  21006512.7104   -1949900.74344  -1512661.28042  21006512.9214   21006507.4164
        57.0004         49.0004
  23839648.1874     -97041.30043    -76255.83942  23839649.4274   23839645.5434
        47.0004         41.0004
  21497741.4354    2284398.21843   1770058.07442  21497743.7004   21497737.4304
        56.0004         48.0004
 03 12 17 17  3 30.0000000  0  7G 1G31G28G27G 8G10G13
  23873452.9994    3458433.67043   2684750.04842  23873453.9824   23873452.5324
        46.0004         40.0004
  21360857.8544     374938.89543    290735.55142  21360859.6724   21360853.9094
        55.0004         47.0004
  21923261.0424   -2451271.64443  -1907931.51642  21923262.4954   21923256.3004
        55.0004         48.0004
  20609548.8024    4170922.86844   3250211.64042  20609550.3894   20609544.8564
        57.0004         50.0004
  20997502.8874   -1997246.56944  -1549554.14342  20997503.1614   20997497.7244
        57.0004         49.0004
  23841979.7854     -84788.84643    -66708.50442  23841981.9244   23841978.5294
        47.0004         41.0004
  21512724.3724    2363134.47543   1831410.96242  21512726.5244   21512720.7504
        56.0004         48.0004
 03 12 17 17  4  0.0000000  0  7G 1G31G28G27G 8G10G13
  23893655.3454    3564599.01443   2767476.09342  23893657.4874   23893654.8824
        46.0004         39.0004
  21366094.9634     402462.48543    312182.47742  21366096.9404   21366091.5514
        55.0004         47.0004
  21912359.9424   -2508554.78043  -1952567.71442  21912362.0784   21912355.5234
        55.0004         48.0004
  20608336.8904    4164552.67944   3245247.84742  20608338.4054   20608332.6164
        57.0004         50.0004
  20988524.2224   -2044429.70044  -1586320.22342  20988524.4844   20988518.9484
        57.0004         49.0004
  23844407.4224     -72030.57743    -56767.01942  23844409.3844   23844405.5864
        47.0004         41.0004
  21527783.9154    2442273.42343   1893077.63342  21527786.4334   21527780.7904
        56.0004         48.0004
 03 12 17 17  4 30.0000000  0  7G 1G31G28G27G 8G10G13
  23913890.0434    3670930.32243   2850331.47942  23913889.0424   23913889.6214
        45.0004         39.0004
  21371450.4834     430605.32643    334111.93342  21371452.4824   21371446.6004
        54.0004         47.0004
  21901517.6654   -2565532.02743  -1996965.56342  21901519.5574   21901513.2664
        55.0004         48.0004
  20607163.2784    4158386.38944   3240442.93542  20607164.8174   20607159.4974
        57.0004         50.0004
  20979576.4344   -2091449.60444  -1622959.11542  20979576.7254   20979571.2444
        57.0004         49.0004
  23846931.5604     -58768.06243    -46432.63042  23846932.4954   23846930.2404
        47.0004         41.0004
  21542920.0924    2521813.18943   1955056.63042  21542922.4054   21542916.5044
        56.0004         48.0004
 03 12 17 17  5  0.0000000  0  7G 1G31G28G27G 8G10G13
  23934154.8204    3777422.01943   2933311.86142  23934156.9934   23934153.6954
        46.0004         40.0004
  21376923.4714     459363.03243    356520.49942  21376924.9114   21376919.2634
        54.0004         47.0004
  21890733.0314   -2622206.84043  -2041127.74642  21890734.9294   21890728.5164
        55.0004         48.0004
  20606028.2174    4152421.64544   3235795.06842  20606030.0524   20606024.3014
        57.0004         50.0004
  20970659.7944   -2138308.91444  -1659472.87242  20970659.4204   20970654.3344
        57.0004         49.0004
  23849551.0534     -45005.85143    -35708.87242  23849551.6804   23849547.4314
        47.0004         41.0004
  21558131.2144    2601748.39543   2017343.75742  21558133.2284   21558127.9244
        56.0004         48.0004
 03 12 17 17  5 30.0000000  0  7G 1G31G28G27G 8G10G13
  23954450.5064    3884078.46343   3016420.59242  23954452.5494   23954449.6914
        46.0004         39.0004
  21382513.4774     488740.93143    379412.33842  21382515.4074   21382509.7344
        54.0004         47.0004
  21880006.6434   -2678572.84443  -2085049.30042  21880008.3024   21880002.2534
        55.0004         48.0004
  20604933.1184    4146665.91244   3231310.07142  20604934.6274   20604929.0124
        57.0004         50.0004
  20961774.1654   -2185000.40843  -1695855.86542  20961774.5834   20961769.4254
        56.0004         49.0004
  23852266.0834     -30739.01443    -24591.90442  23852267.8534   23852261.9274
        47.0004         41.0004
  21573418.4134    2682083.48643   2079942.47742  21573420.4304   21573414.6334
        56.0004         48.0004
 03 12 17 17  6  0.0000000  0  7G 1G31G28G27G 8G10G13
  23974776.5164    3990892.52643   3099652.15342  23974777.7404   23974777.6804
        46.0004         40.0004
  21388221.0224     518733.06443    402782.79142  21388222.2114   21388216.8664
        55.0004         47.0004
  21869338.4944   -2734634.76043  -2128733.89742  21869340.5014   21869334.2464
        55.0004         48.0004
  20603876.7554    4141115.07844   3226984.73442  20603878.3014   20603872.6404
        57.0004         50.0004
  20952920.7284   -2231528.09944  -1732111.21642  20952920.5104   20952915.3144
        57.0004         49.0004
  23855075.1644     -15974.16043    -13086.84742  23855076.1884   23855071.2014
        46.0004         41.0004
  21588780.5444    2762811.29343   2142847.21242  21588782.7534   21588776.5684
        56.0004         48.0004
 03 12 17 17  6 30.0000000  0  7G 1G31G28G27G 8G10G13
  23995133.0884    4097864.53443   3183006.78942  23995133.4434   23995132.9584
        46.0004         40.0004
  21394045.3674     549341.06443    426633.15542  21394047.0774   21394041.5104
        54.0004         47.0004
  21858728.6884   -2790389.83643  -2172179.39742  21858730.3334   21858724.5524
        55.0004         48.0004
  20602860.3104    4135773.03044   3222822.08242  20602861.6814   20602855.8444
        57.0004         50.0004
  20944098.6834   -2277888.40744  -1768236.13842  20944098.5294   20944093.2934
        57.0004         49.0004
  23857978.7794       -710.06243     -1192.77042  23857981.5504   23857977.3784
        46.0004         41.0004
  21604217.6124    2843932.82043   2206058.74342  21604219.9314   21604214.1524
        56.0004         48.0004
 03 12 17 17  7  0.0000000  0  6G31G28G27G 8G10G13
  21399986.1044     580562.07143    450961.17142  21399988.4194   21399982.5274
        54.0004         47.0004
  21848176.8274   -2845840.19243  -2215387.45542  21848178.4884   21848172.3504
        55.0004         48.0004
  20601883.2134    4130638.97344   3218821.50142  20601884.8374   20601879.2324
        57.0004         50.0004
  20935308.3104   -2324082.21144  -1804231.32142  20935308.2914   20935302.8664
        57.0004         49.0004
  23860978.2804      15050.32443     11088.01242  23860979.2204   23860976.0374
        46.0004         41.0004
  21619728.6254    2925444.15643   2269574.02342  21619731.4854   21619725.1074
        56.0004         48.0004
 03 12 17 17  7 30.0000000  0  6G31G28G27G 8G10G13
  21406044.6904     612395.92943    475766.74442  21406045.7174   21406040.6204
        54.0004         47.0004
  21837683.2664   -2900984.62143  -2258357.13042  21837684.9464   21837678.9674
        55.0004         48.0004
  20600946.2164    4125714.89044   3214984.53942  20600947.8924   20600942.2394
        57.0004         50.0004
  20926550.0674   -2370107.62344  -1840095.28842  20926550.0904   20926544.7484
        57.0004         49.0004
  23864072.0814      31306.38743     23755.03942  23864071.5964   23864069.7864
        46.0004         41.0004
  21635313.8464    3007344.58043   2333392.48542  21635315.9434   21635309.8244
        56.0004         48.0004
 03 12 17 17  8  0.0000000  0  6G31G28G27G 8G10G13
  21412218.5634     644841.74543    501049.17642  21412220.1254   21412214.8134
        54.0004         47.0004
  21827247.8484   -2955822.67843  -2301088.07142  21827249.3024   21827243.4934
        56.0004         48.0004
  20600049.4974    4121002.12644   3211312.23442  20600050.8794   20600045.5984
        57.0004         50.0004
  20917823.5414   -2415963.70844  -1875827.31142  20917824.0034   20917818.9004
        57.0004         49.0004
  23867260.2014      48057.16943     36807.54942  23867260.8394   23867258.9994
        46.0004         41.0004
  21650972.5554    3089632.20843   2397512.67542  21650975.1674   21650969.0944
        56.0004         48.0004
 03 12 17 17  8 30.0000000  0  6G31G28G27G 8G10G13
  21418508.4544     677899.44443    526808.38742  21418511.0744   21418505.2954
        54.0004         47.0004
  21816870.7904   -3010353.49443  -2343579.60442  21816872.9074   21816867.1084
        56.0004         48.0004
  20599193.3354    4116502.86244   3207806.30142  20599194.7274   20599189.2764
        57.0004         50.0004
  20909130.1994   -2461648.25544  -1911425.67042  20909130.1454   20909125.0184
        57.0004         49.0004
  23870540.5134      65302.03343     50245.08242  23870542.6404   23870540.2514
        46.0004         41.0004
  21666704.9724    3172305.89443   2461933.69142  21666707.0944   21666701.4424
        55.0004         48.0004
 03 12 17 17  9  0.0000000  0  6G31G28G27G 8G10G13
  21424915.5624     711565.01643    553041.27342  21424917.1384   21424912.2164
        54.0004         47.0004
  21806551.8904   -3064579.70643  -2385833.78042  21806553.9044   21806547.6384
        56.0004         48.0004
  20598377.5564    4112215.11044   3204465.16742  20598378.8724   20598373.4064
        57.0004         50.0004
  20900469.2754   -2507163.20444  -1946891.87442  20900468.8264   20900463.9864
        57.0004         49.0004
  23873916.0794      83036.93843     64064.43842  23873916.9814   23873914.0854
        45.0004         40.0004
  21682510.2034    3255361.36843   2526652.20842  21682512.3304   21682506.2104
        56.0004         48.0004
 03 12 17 17  9 30.0000000  0  6G31G28G27G 8G10G13
  21431438.2064     745837.57943    579747.14242  21431439.3324   21431433.9834
        55.0004         47.0004
  21796291.3334   -3118500.91543  -2427850.29542  21796292.7034   21796287.0104
        56.0004         48.0004
  20597602.0074    4108140.49144   3201290.11242  20597603.6634   20597598.2784
        57.0004         50.0004
  20891840.3454   -2552507.11944  -1982224.80642  20891840.3434   20891834.9574
        57.0004         50.0004
  23877383.1094     101260.63843     78264.68042  23877384.9464   23877382.2394
        45.0004         40.0004
  21698387.3574    3338796.84843   2591666.84142  21698389.5534   21698383.4174
        56.0004         48.0004
 03 12 17 17 10  0.0000000  0  6G31G28G27G 8G10G13
  21438075.4304     780718.38543    606926.97442  21438076.5764   21438071.7484
        54.0004         47.0004
  21786088.9714   -3172114.71243  -2469627.26942  21786090.4024   21786084.0534
        56.0004         48.0004
  20596867.9644    4104282.43244   3198283.80342  20596869.3544   20596863.6584
        57.0004         50.0004
  20883244.7664   -2597676.85144  -2017422.01342  20883244.9914   20883239.7874
        57.0004         50.0004
  23880944.6904     119973.96143     92846.44142  23880946.7564   23880944.5724
        45.0004         40.0004
  21714337.0174    3422612.72343   2656977.88042  21714339.3494   21714333.5574
        56.0004         48.0004
 03 12 17 17 10 30.0000000  0  6G31G28G27G 8G10G13
  21444828.3264     816208.65643    634581.71242  21444830.3694   21444824.9454
        54.0004         47.0004
  21775945.3634   -3225418.90643  -2511162.99042  21775947.1294   21775940.9204
        56.0004         48.0004
  20596175.7814    4100644.56944   3195449.07842  20596177.0854   20596171.7114
        57.0004         50.0004
  20874683.4384   -2642668.71044  -2052480.61542  20874683.3834   20874678.0894
        57.0004         50.0004
  23884599.9934     139177.77943    107810.40942  23884600.7854   23884597.0134
        46.0004         40.0004
  21730359.1164    3506809.35143   2722585.60842  21730361.2374   21730355.7094
        56.0004         48.0004
 03 12 17 17 11  0.0000000  0  6G31G28G27G 8G10G13
  21451696.6004     852301.75843    662706.18142  21451698.6064   21451693.3804
        54.0004         47.0004
  21765859.8464   -3278418.60743  -2552461.44342  21765861.9094   21765855.3534
        56.0004         48.0004
  20595524.4114    4097222.48344   3192782.49142  20595526.0714   20595520.3674
        57.0004         50.0004
  20866154.7064   -2687487.46244  -2087404.32142  20866154.9094   20866149.2934
        57.0004         50.0004
  23888345.6764     158865.19043    123151.20942  23888346.8654   23888342.1234
        46.0004         40.0004
  21746452.0274    3591379.24343   2788484.19142  21746454.3754   21746448.6094
        55.0004         48.0004
 03 12 17 17 11 30.0000000  0  6G31G28G27G 8G10G13
  21458680.9144     888997.28343    691300.08542  21458681.1714   21458676.1264
        55.0004         47.0004
  21755832.3684   -3331113.07743  -2593522.05542  21755834.1114   21755827.8324
        56.0004         48.0004
  20594914.6974    4094018.41444   3190285.78942  20594916.0844   20594910.6504
        57.0004         50.0004
  20857659.3344   -2732130.66644  -2122191.23342  20857658.9634   20857653.9734
        57.0004         50.0004
  23892184.1774     179035.44343    138868.24642  23892185.3684   23892181.8534
        45.0004         40.0004
  21762616.3474    3676321.45343   2854672.89042  21762618.3594   21762612.8414
        56.0004         47.0004
 03 12 17 17 12  0.0000000  0  6G31G28G27G 8G10G13
  21465777.3694     926296.13743    720364.10042  21465779.4924   21465774.1914
        54.0004         47.0004
  21745863.3594   -3383500.06543  -2634343.07242  21745864.8674   21745858.7544
        55.0004         48.0004
  20594347.2314    4091035.42344   3187961.35442  20594348.4924   20594343.2034
        57.0004         50.0004
  20849197.9014   -2776595.41444  -2156839.08642  20849197.9124   20849192.5464
        57.0004         50.0004
  23896114.9684     199689.20043    154962.03642  23896115.6424   23896113.6064
        46.0004         40.0004
  21778850.8854    3761636.06243   2921151.76742  21778853.5874   21778847.7594
        55.0004         47.0004
 03 12 17 17 12 30.0000000  0  6G31G28G27G 8G10G13
  21472990.1114     964194.86543    749895.56142  21472991.1104   21472985.8374
        54.0004         47.0004
  21735952.8144   -3435581.58543  -2674926.06242  21735954.4574   21735948.3214
        56.0004         48.0004
  20593821.5084    4088272.46644   3185808.37842  20593822.9604   20593817.5304
        57.0004         50.0004
  20840770.1224   -2820882.92644  -2191348.83242  20840770.2794   20840765.0154
        57.0004         50.0004
  23900136.5294     220822.70443    171429.66142  23900137.8014   23900134.3354
        46.0004         40.0004
  21795156.0174    3847318.93343   2987917.60442  21795158.3004   21795152.2874
        55.0004         47.0004
 03 12 17 17 13  0.0000000  0  6G31G28G27G 8G10G13
  21480315.4744    1002694.03743    779894.89242  21480317.5664   21480312.5564
        54.0004         47.0004
  21726100.0954   -3487355.95743  -2715269.71742  21726101.9354   21726096.3114
        56.0004         48.0004
  20593337.8964    4085732.82044   3183829.40942  20593339.8224   20593334.1324
        57.0004         50.0004
  20832377.0384   -2864990.07244  -2225718.02842  20832377.2854   20832371.9694
        57.0004         50.0004
  23904249.6204     242436.30943    188271.37542  23904250.9734   23904247.6294
        46.0004         40.0004
  21811530.8424    3933370.01543   3054970.35642  21811532.8964   21811527.5464
        55.0004         47.0004
 03 12 17 17 13 30.0000000  0  6G31G28G27G 8G10G13
  21487755.8834    1041790.78943    810359.88142  21487757.0184   21487752.2954
        54.0004         47.0004
  21716306.2844   -3538824.54543  -2755375.10342  21716307.8544   21716301.7894
        56.0004         48.0004
  20592897.1804    4083415.78944   3182023.91442  20592898.6864   20592893.3834
        57.0004         50.0004
  20824017.8814   -2908917.43644  -2259947.13742  20824018.0124   20824012.7354
        57.0004         50.0004
  23908453.5404     264526.98443    205484.84842  23908454.4594   23908450.3284
        46.0004         40.0004
  21827975.2614    4019785.69643   3122307.21242  21827977.4144   21827972.0574
        55.0004         47.0004
 03 12 17 17 14  0.0000000  0  6G31G28G27G 8G10G13
  21495308.4604    1081483.88343    841289.52842  21495310.6714   21495305.2124
        54.0004         47.0004
  21706570.0504   -3589987.25043  -2795242.12942  21706572.0914   21706566.2664
        56.0004         48.0004
  20592498.9504    4081322.92244   3180393.09242  20592500.5964   20592495.1504
        57.0004         50.0004
  20815693.2764   -2952663.85244  -2294035.24442  20815693.5214   20815687.9754
        57.0004         50.0004
  23912746.1934     287093.28143    223068.91342  23912748.8764   23912744.4644
        46.0004         40.0004
  21844488.6294    4106564.16443   3189926.75442  21844491.0164   21844485.7214
        55.0004         47.0004
 03 12 17 17 14 30.0000000  0  6G31G28G27G 8G10G13
  21502975.2864    1121772.80843    872683.48342  21502976.5864   21502972.0834
        54.0004         47.0004
  21696892.5794   -3640843.35543  -2834870.25342  21696894.1664   21696888.0914
        56.0004         48.0004
  20592143.9274    4079456.17744   3178938.46642  20592145.1294   20592139.9754
        57.0004         50.0004
  20807403.3244   -2996227.15644  -2327980.66842  20807403.3954   20807398.1924
        57.0004         50.0004
  23917131.8034     310134.34543    241022.95542  23917133.1124   23917130.7804
        46.0004         40.0004
  21861071.1674    4193704.31643   3257828.11742  21861073.6494   21861068.1264
        55.0004         47.0004
 03 12 17 17 15  0.0000000  0  6G31G28G27G 8G10G13
  21510755.5974    1162654.73643    904539.49842  21510756.9794   21510751.8034
        54.0004         47.0004
  21687273.1404   -3691394.33843  -2874260.62042  21687274.6094   21687268.8924
        56.0004         48.0004
  20591831.5654    4077815.25744   3177659.81142  20591833.1024   20591827.6464
        57.0004         50.0004
  20799148.2704   -3039607.81544  -2361783.77242  20799148.4234   20799142.9854
        57.0004         50.0004
  23921606.7504     333646.85443    259344.34542  23921607.3084   23921604.1194
        47.0004         40.0004
  21877721.4744    4281202.29643   3326008.30842  21877723.8214   21877718.3004
        55.0004         47.0004
 03 12 17 17 15 30.0000000  0  6G31G28G27G 8G10G13
  21518648.5734    1204130.15943    936857.99942  21518649.0754   21518644.2134
        54.0004         47.0004
  21677711.8874   -3741638.10443  -2913411.59642  21677713.5014   21677707.9344
        56.0004         48.0004
  20591563.0324    4076403.30744   3176559.57742  20591564.3614   20591558.6944
        57.0004         50.0004
  20790928.5824   -3082802.79244  -2395442.19242  20790928.7424   20790923.4194
        57.0004         50.0004
  23926171.2844     357631.37343    278033.53642  23926170.8994   23926167.9634
        47.0004         40.0004
  21894439.8394    4369057.99043   3394467.24342  21894442.0614   21894436.1874
        55.0004         47.0004
 03 12 17 17 16  0.0000000  0  6G31G28G27G 8G10G13
  21526653.6104    1246195.16243    969635.89942  21526654.0954   21526648.7744
        55.0004         47.0004
  21668208.7294   -3791577.06443  -2952325.06542  21668210.4114   21668204.5964
        56.0004         48.0004
  20591337.5114    4075219.00044   3175636.72942  20591339.0004   20591333.5534
        57.0004         50.0004
  20782743.8874   -3125813.45944  -2428956.99442  20782744.0554   20782738.7934
        57.0004         50.0004
  23930823.5904     382083.47043    297087.07542  23930823.7444   23930821.4554
        47.0004         40.0004
  21911225.9224    4457267.09743   3463201.56142  21911227.5994   21911221.3744
        55.0004         47.0004
 03 12 17 17 16 30.0000000  0  6G31G28G27G 8G10G13
  21534767.2364    1288840.70543   1002866.16942  21534769.7964   21534764.0524
        54.0004         47.0004
  21658762.1934   -3841219.14943  -2991007.20842  21658763.7414   21658758.2694
        56.0004         48.0004
  20591154.1924    4074255.79144   3174886.16042  20591155.8934   20591150.2324
        57.0004         50.0004
  20774593.0184   -3168646.37444  -2462333.29642  20774593.1354   20774587.8444
        57.0004         50.0004
  23935564.3164     406993.96143    316497.79542  23935565.4044   23935563.2694
        48.0004         40.0004
  21928076.4724    4545820.06543   3532203.82042  21928079.0854   21928073.5644
        55.0004         47.0004
 03 12 17 17 17  0.0000000  0  6G31G28G27G 8G10G13
  21542995.5134    1332085.58443   1036563.43942  21542998.8944   21542993.2114
        54.0004         47.0004
  21649375.8654   -3890544.08043  -3029442.21342  21649377.6104   21649371.6204
        56.0004         49.0004
  20591017.1164    4073535.37944   3174324.78642  20591018.6094   20591013.2594
        57.0004         50.0004
  20766480.3634   -3211280.04744  -2495554.34342  20766480.2744   20766474.7584
        57.0004         50.0004
  23940394.9704     432381.42943    336280.18942  23940395.9594   23940392.3184
        47.0004         40.0004
  21944996.7654    4634735.08743   3601488.19942  21944999.2244   21944992.4674
        55.0004         47.0004
 03 12 17 17 17 30.0000000  0  6G31G28G27G 8G10G13
  21551337.9214    1375913.62543   1070715.14942  21551338.7324   21551333.5864
        54.0004         47.0004
  21640047.3444   -3939566.40543  -3067641.42142  21640049.1884   21640042.8484
        56.0004         49.0004
  20590923.6484    4073044.12144   3173941.97042  20590925.2894   20590919.7144
        57.0004         50.0004
  20758402.6344   -3253727.81444  -2528630.53242  20758402.5024   20758397.2094
        57.0004         50.0004
  23945313.7964     458229.63143    356421.60142  23945315.2074   23945311.2084
        47.0004         40.0004
  21961982.5034    4723995.26743   3671041.52742  21961984.3804   21961979.1984
        55.0004         47.0004
 03 12 17 17 18  0.0000000  0  6G31G28G27G 8G10G13
  21559789.4914    1420328.35043   1105324.02142  21559790.6474   21559785.7814
        54.0004         47.0004
  21630777.3164   -3988281.19243  -3105600.99642  21630779.1514   21630772.7094
        56.0004         49.0004
  20590875.0234    4072788.28944   3173742.60742  20590876.3934   20590871.1004
        57.0004         50.0004
  20750361.7164   -3295983.88144  -2561557.34342  20750361.7804   20750356.1904
        57.0004         50.0004
  23950321.4824     484541.50343    376924.30742  23950323.2234   23950319.3154
        48.0004         40.0004
  21979034.4224    4813603.63743   3740866.17642  21979036.4594   21979030.4694
        54.0004         47.0004
 03 12 17 17 18 30.0000000  0  6G31G28G27G 8G10G13
  21568352.0714    1465326.16543   1140387.22142  21568353.4564   21568348.5014
        54.0004         47.0004
  21621565.3724   -4036690.56643  -3143322.58842  21621567.0694   21621560.8474
        56.0004         49.0004
  20590870.9954    4072767.02144   3173726.02142  20590872.4614   20590866.9044
        57.0004         50.0004
  20742356.7414   -3338049.09544  -2594335.44042  20742356.8174   20742351.4014
        57.0004         50.0004
  23955416.0054     511313.01143    397785.17242  23955416.2734   23955412.5884
        48.0004         40.0004
  21996151.8764    4903555.80743   3810958.72342  21996154.0624   21996148.4424
        55.0004         47.0004
 03 12 17 17 19  0.0000000  0  6G31G28G27G 8G10G13
  21577026.2374    1510908.17243   1175905.65342  21577027.3044   21577022.3574
        54.0004         47.0004
  21612412.1124   -4084791.78643  -3180804.05742  21612413.4464   21612407.9224
        56.0004         49.0004
  20590912.5274    4072984.16844   3173895.21042  20590913.8414   20590908.1884
        57.0004         50.0004
  20734389.3574   -3379919.31144  -2626961.59242  20734389.4314   20734383.7874
        57.0004         50.0004
  23960598.1534     538545.47343    419005.20142  23960600.4734   23960595.2834
        48.0004         40.0004
  22013334.6224    4993852.59143   3881319.79842  22013336.6534   22013331.3684
        55.0004         47.0004
 03 12 17 17 19 30.0000000  0  6G31G28G27G 8G10G13
  21585810.7444    1557071.43343   1211877.00942  21585812.2504   21585807.5684
        54.0004         47.0004
  21603317.0214   -4132586.40543  -3218046.62042  21603318.3424   21603312.4614
        56.0004         49.0004
  20590998.8914    4073439.52744   3174250.02442  20591000.4924   20590994.7934
        57.0004         50.0004
  20726458.5744   -3421594.81244  -2659436.01842  20726458.6784   20726453.4384
        57.0004         50.0004
  23965867.0994     566235.75243    440581.99542  23965869.0554   23965865.2764
        47.0004         40.0004
  22030582.5024    5084490.51643   3951946.69342  22030584.4804   22030578.6734
        55.0004         47.0004
 03 12 17 17 20  0.0000000  0  6G31G28G27G 8G10G13
  21594703.9164    1603807.30743   1248294.55342  21594706.1314   21594700.4784
        54.0004         46.0004
  21594278.9754   -4180081.58843  -3255055.85642  21594280.6314   21594274.4724
        56.0004         49.0004
  20591129.9534    4074127.30844   3174785.93942  20591131.5944   20591125.9094
        57.0004         50.0004
  20718564.0534   -3463081.48444  -2691763.30742  20718564.0564   20718558.8394
        57.0004         50.0004
  23971221.5644     594375.21443    462508.79242  23971224.2334   23971219.0604
        48.0004         41.0004
  22047893.6434    5175460.27643   4022832.17242  22047895.6714   22047890.4004
        55.0004         47.0004
 03 12 17 17 20 30.0000000  0  6G31G28G27G 8G10G13
  21603707.7514    1651122.24843   1285163.30942  21603709.4584   21603703.4584
        54.0004         46.0004
  21585299.5634   -4227269.37443  -3291825.56042  21585301.2354   21585295.1764
        56.0004         49.0004
  20591306.4804    4075056.99344   3175510.35342  20591308.1864   20591303.1054
        57.0004         50.0004
  20710706.9784   -3504370.09044  -2723936.26042  20710707.1364   20710701.7894
        57.0004         50.0004
  23976662.7584     622969.69643    484790.15142  23976664.1604   23976659.8174
        47.0004         41.0004
  22065268.8734    5266767.97443   4093980.98242  22065271.1474   22065265.3484
        54.0004         47.0004
 03 12 17 17 21  0.0000000  0  6G31G28G27G 8G10G13
  21612821.6384    1699010.64843   1322478.93842  21612821.8234   21612817.0624
        54.0004         47.0004
  21576377.6014   -4274153.46743  -3328358.61642  21576378.9234   21576372.7554
        56.0004         49.0004
  20591529.0164    4076225.61544   3176420.95442  20591530.6554   20591525.3114
        57.0004         50.0004
  20702887.5154   -3545463.24644  -2755956.91242  20702887.3214   20702881.9744
        57.0004         50.0004
  23982190.3574     652013.43143    507421.59042  23982191.4564   23982188.8604
        47.0004         40.0004
  22082707.2094    5358407.51143   4165388.36242  22082709.4124   22082703.5554
        54.0004         46.0004
 03 12 17 17 21 30.0000000  0  6G31G28G27G 8G10G13
  21622041.6074    1747472.46743   1360241.35442  21622044.5764   21622038.8694
        54.0004         46.0004
  21567514.0614   -4320732.80443  -3364654.20142  21567515.6284   21567509.5704
        56.0004         49.0004
  20591797.5784    4077636.09644   3177520.01642  20591799.2384   20591794.0394
        57.0004         50.0004
  20695105.2204   -3586358.27544  -2787823.18142  20695105.3634   20695100.0304
        57.0004         50.0004
  23987802.6344     681506.42343    530403.09642  23987804.1914   23987799.0254
        47.0004         40.0004
  22100208.6664    5450378.14443   4237053.74942  22100211.3104   22100205.5184
        54.0004         46.0004
 03 12 17 17 22  0.0000000  0  6G31G28G27G 8G10G13
  21631374.0504    1796505.20643   1398448.66542  21631374.7824   21631370.1334
        54.0004         46.0004
  21558708.1774   -4367008.18743  -3400712.93842  21558709.7034   21558703.7764
        56.0004         49.0004
  20592112.0154    4079288.81144   3178807.83142  20592113.4514   20592108.2064
        57.0004         50.0004
  20687360.8994   -3627054.68944  -2819534.68542  20687361.0544   20687355.7624
        57.0004         50.0004
  23993500.7614     711445.86843    553732.48642  23993501.8684   23993498.6294
        48.0004         40.0004
  22117772.6734    5542677.01843   4308974.89842  22117774.9884   22117769.2194
        54.0004         46.0004
 03 12 17 17 22 30.0000000  0  6G31G28G27G 8G10G13
  21640812.7044    1846107.73843   1437099.94642  21640814.5764   21640808.9584
        54.0004         46.0004
  21549960.2324   -4412979.14843  -3436534.46142  21549961.5384   21549955.9024
        56.0004         49.0004
  20592472.9954    4081185.53144   3180285.77742  20592474.5484   20592469.1014
        57.0004         50.0004
  20679654.5124   -3667550.95044  -2851090.22542  20679654.9224   20679649.3884
        57.0004         50.0004
  23999282.9174     741830.44543    577408.72342  23999282.1314   23999278.8544
        47.0004         41.0004
  22135398.7354    5635302.83543   4381150.81242  22135401.0714   22135395.8624
        54.0004         46.0004
 03 12 17 17 23  0.0000000  0  6G31G28G27G 8G10G13
  21650358.9544    1896276.06643   1476192.12242  21650360.8924   21650355.8244
        54.0004         46.0004
  21541269.6604   -4458648.10343  -3472120.65742  21541271.0464   21541265.0474
        56.0004         49.0004
  20592880.0694    4083324.99344   3181952.87542  20592881.8874   20592876.3944
        57.0004         50.0004
  20671986.5574   -3707847.65144  -2882490.26942  20671986.7694   20671981.2394
        57.0004         50.0004
  24005146.6474     772656.00643    601428.58242  24005149.1264   24005145.2284
        47.0004         40.0004
  22153086.2674    5728250.68443   4453577.64942  22153088.3624   22153082.6554
        54.0004         46.0004
 03 12 17 17 23 30.0000000  0  6G31G28G27G 8G10G13
  21660013.3444    1947012.19843   1515726.72642  21660015.6284   21660010.7334
        53.0004         46.0004
  21532637.4424   -4504011.28043  -3507468.58442  21532639.1374   21532632.9874
        56.0004         49.0004
  20593334.4164    4085712.56844   3183813.31442  20593336.2324   20593330.5504
        57.0004         50.0004
  20664357.1134   -3747940.16944  -2913731.20342  20664357.0614   20664352.0284
        57.0004         50.0004
  24011097.5024     803924.26743    625793.39842  24011098.3904   24011096.4634
        46.0004         40.0004
  22170834.9744    5821522.60743   4526257.02142  22170837.1594   22170831.6304
        54.0004         46.0004
 03 12 17 17 24  0.0000000  0  6G31G28G27G 8G10G13
  21669776.8594    1998312.87043   1555701.23442  21669778.0094   21669772.6244
        54.0004         46.0004
  21524062.7224   -4549070.37143  -3542579.56242  21524064.1984   21524058.3494
        56.0004         49.0004
  20593836.0284    4088347.83444   3185866.75242  20593837.5684   20593832.1944
        57.0004         50.0004
  20656766.8214   -3787828.49844  -2944813.03242  20656766.7974   20656761.4364
        57.0004         50.0004
  24017131.1344     835631.53343    650500.30242  24017131.5854   24017130.3734
        46.0004         40.0004
  22188645.5034    5915114.86543   4599185.99142  22188648.1594   22188642.4324
        54.0004         46.0004
 03 12 17 17 24 30.0000000  0  7G31G29G28G27G 8G10G13
  21679644.4564    2050175.18543   1596113.38042  21679646.6414   21679641.5454
        53.0004         46.0004
  24342922.5134   -5222615.54853  -4013736.68952  24342924.2764   24342918.1624
        47.0004         40.0004
  21515546.0644   -4593826.58643  -3577454.53242  21515547.5464   21515541.3174
        56.0004         49.0004
  20594384.6284    4091230.78244   3188113.18642  20594386.1974   20594381.0404
        57.0004         50.0004
  20649215.1314   -3827513.03544  -2975736.05742  20649215.0624   20649209.9854
        57.0004         50.0004
  24023248.5814     867774.83343    675546.98742  24023249.4334   24023246.3574
        45.0004         40.0004
  22206515.6114    6009023.73943   4672361.68042  22206518.4134   22206511.3614
        54.0004         46.0004
 03 12 17 17 25  0.0000000  0  7G31G29G28G27G 8G10G13
  21689620.7204    2102596.01643   1636960.73042  21689622.6564   21689617.2534
        54.0004         46.0004
  24324541.3284   -5319206.95643  -4089002.73042  24324542.0374   24324538.7854
        46.0004         40.0004
  21507086.2794   -4638281.44043  -3612094.67042  21507088.3834   21507081.9464
        56.0004         49.0004
  20594980.4594    4094361.42544   3190552.62542  20594982.1464   20594976.4794
        57.0004         50.0004
  20641701.9304   -3866993.02844  -3006499.69842  20641702.4384   20641696.8134
        57.0004         50.0004
  24029447.7614     900351.08043    700931.02642  24029448.2384   24029445.2934
        46.0004         40.0004
  22224445.5214    6103246.17843   4745781.71642  22224448.4084   22224442.6454
        54.0004         46.0004
 03 12 17 17 25 30.0000000  0  7G31G29G28G27G 8G10G13
  21699703.1744    2155575.47543   1678243.38642  21699703.9904   21699699.1054
        54.0004         46.0004
  24306196.1044   -5415620.45143  -4164130.11942  24306198.8694   24306193.0644
        48.0004         41.0004
  21498684.6494   -4682433.11843  -3646498.56942  21498686.0854   21498680.1124
        56.0004         49.0004
  20595624.0124    4097742.86944   3193187.49442  20595625.6454   20595620.3324
        57.0004         50.0004
  20634228.9994   -3906265.79544  -3037101.86342  20634229.0594   20634223.7464
        57.0004         50.0004
  24035729.1484     933360.29643    726652.43142  24035730.3574   24035726.9974
        46.0004         40.0004
  22242435.1884    6197781.62043   4819445.63942  22242437.4414   22242431.7534
        54.0004         46.0004
 03 12 17 17 26  0.0000000  0  7G31G29G28G27G 8G10G13
  21709890.0784    2209111.96843   1719960.08342  21709891.8814   21709886.8734
        54.0004         46.0004
  24287882.7754   -5511853.12543  -4239116.59442  24287887.1474   24287880.4254
        48.0004         41.0004
  21490340.5664   -4726281.59643  -3680666.20642  21490342.1344   21490336.1064
        56.0004         49.0004
  20596315.2764    4101376.60844   3196018.96042  20596316.9384   20596311.5354
        57.0004         50.0004
  20626795.5324   -3945329.72244  -3067541.29342  20626795.4514   20626790.2254
        57.0004         50.0004
  24042092.7554     966800.51143    752709.68642  24042093.8204   24042090.3814
        45.0004         40.0004
  22260483.6684    6292628.02143   4893351.87442  22260486.3404   22260480.9934
        53.0004         45.0004
 03 12 17 17 26 30.0000000  0  7G31G29G28G27G 8G10G13
  21720183.0684    2263205.86243   1762111.12542  21720185.4424   21720180.9134
        53.0004         46.0004
  24269604.9914   -5607900.20343  -4313958.47842  24269607.0274   24269606.6524
        47.0004         41.0004
  21482054.6984   -4769824.92744  -3714596.06842  21482055.9784   21482050.0074
        57.0004         49.0004
  20597055.7024    4105265.98944   3199049.62242  20597057.2214   20597051.8364
        57.0004         50.0004
  20619402.0604   -3984181.45044  -3097815.37042  20619402.1434   20619397.0764
        57.0004         50.0004
  24048537.9684    1000671.73543    779102.81042  24048539.3184   24048537.1244
        46.0004         40.0004
  22278592.0664    6387785.48243   4967500.49342  22278593.6984   22278587.8504
        53.0004         46.0004
 03 12 17 17 27  0.0000000  0  7G31G29G28G27G 8G10G13
  21730581.1694    2317846.61843   1804688.28542  21730584.0594   21730577.9374
        53.0004         46.0004
  24251363.0814   -5703767.69243  -4388660.42442  24251365.8704   24251360.4394
        47.0004         41.0004
  21473824.8794   -4813071.68744  -3748294.83642  21473826.6624   21473820.6244
        57.0004         49.0004
  20597843.0734    4109403.76444   3202273.84142  20597844.4874   20597839.1754
        57.0004         50.0004
  20612047.6604   -4022828.09144  -3127929.64142  20612047.9044   20612042.5804
        57.0004         50.0004
  24055063.6364    1034963.61843    805823.70842  24055063.9194   24055061.3104
        46.0004         40.0004
  22296756.9574    6483243.31143   5041883.16242  22296758.2304   22296753.1804
        54.0004         45.0004
 03 12 17 17 27 30.0000000  0  7G31G29G28G27G 8G10G13
  21741084.9394    2373042.24243   1847697.82242  21741086.8374   21741082.2034
        53.0004         46.0004
  24233156.1174   -5799443.14443  -4463212.72242  24233159.3794   24233152.6064
        48.0004         40.0004
  21465653.7234   -4856012.25644  -3781755.00842  21465655.5094   21465649.1934
        57.0004         49.0004
  20598679.7264    4113800.86944   3205700.13042  20598681.5024   20598675.9664
        57.0004         50.0004
  20604734.6694   -4061258.73644  -3157875.60242  20604734.7634   20604729.8794
        57.0004         50.0004
  24061670.2074    1069683.86443    832878.40942  24061671.8784   24061668.5974
        46.0004         41.0004
  22314980.4414    6579009.01243   5116505.73642  22314982.8164   22314976.5764
        54.0004         46.0004
 03 12 17 17 28  0.0000000  0  7G31G29G28G27G 8G10G13
  21751692.0434    2428785.72143   1891134.25242  21751694.5704   21751689.5374
        53.0004         46.0004
  24214984.5074   -5894928.95943  -4537617.26742  24214985.9674   24214985.4944
        47.0004         40.0004
  21457539.5004   -4898652.19044  -3814980.92542  21457541.2404   21457534.9804
        57.0004         49.0004
  20599564.9874    4118453.64344   3209325.64942  20599566.6214   20599561.1964
        57.0004         50.0004
  20597462.1234   -4099476.87944  -3187655.97842  20597462.1164   20597457.0364
        57.0004         50.0004
  24068358.1594    1104825.35443    860261.35042  24068359.1804   24068356.6584
        46.0004         41.0004
  22333261.4524    6675075.30143   5191362.53142  22333263.6524   22333258.2704
        54.0004         46.0004
 03 12 17 17 28 30.0000000  0  8G31G29G28G27G 8G10G 7G13
  21762403.4704    2485074.74343   1934995.76942  21762405.9844   21762400.7084
        53.0004         46.0004
  24196852.6644   -5990223.00043  -4611872.37542  24196852.7364   24196848.1084
        47.0004         40.0004
  21449482.5034   -4940991.73144  -3847972.77042  21449484.5574   21449478.1414
        57.0004         49.0004
  20600499.5954    4123362.75744   3213150.91042  20600500.8644   20600495.4684
        57.0004         50.0004
  20590230.1764   -4137481.75244  -3217270.16842  20590230.1664   20590224.8614
        57.0004         50.0004
  24075124.6614    1140385.69243    887970.66242  24075126.9204   24075122.9754
        47.0004         41.0004
  23877143.8314   -7281057.26353  -5629578.35652  23877144.9644   23877145.4814
        46.0004         40.0004
  22351598.9024    6771439.48043   5266451.44542  22351602.2824   22351595.4184
        53.0004         45.0004
 03 12 17 17 29  0.0000000  0  8G31G29G28G27G 8G10G 7G13
  21773220.3214    2541909.01843   1979282.17142  21773221.7244   21773216.3204
        54.0004         46.0004
  24178755.0284   -6085320.90043  -4685974.62742  24178757.4804   24178751.2684
        47.0004         40.0004
  21441482.9414   -4983029.60243  -3880729.54542  21441484.5514   21441478.5294
        56.0004         49.0004
  20601482.8174    4128531.11944   3217178.18242  20601484.2584   20601479.0044
        57.0004         50.0004
  20583039.0734   -4175270.50144  -3246715.95142  20583039.3784   20583034.0794
        57.0004         50.0004
  24081971.6494    1176364.25143    916005.86442  24081972.6744   24081970.2874
        47.0004         40.0004
  23857293.6344   -7385369.79943  -5710860.59842  23857294.7194   23857293.8214
        46.0004         40.0004
  22369993.2384    6868101.13643   5341772.16042  22369995.7144   22369990.4294
        54.0004         45.0004
 03 12 17 17 29 30.0000000  0  8G31G29G28G27G 8G10G 7G13
  21784139.2334    2599284.33943   2023990.17842  21784139.0084   21784134.7264
        54.0004         46.0004
  24160696.4334   -6180222.44343  -4759923.88242  24160699.9114   24160693.3824
        46.0004         40.0004
  21433540.5364   -5024768.06844  -3913253.02242  21433542.2614   21433535.8144
        57.0004         49.0004
  20602515.5554    4133957.72644   3221406.68042  20602516.6714   20602511.7024
        57.0004         50.0004
  20575889.1674   -4212843.87744  -3275993.91142  20575889.3404   20575883.7644
        57.0004         50.0004
  24088897.5534    1212756.96943    944363.78242  24088897.2204   24088895.5064
        47.0004         41.0004
  23837457.5734   -7489607.74643  -5792084.74142  23837458.7074   23837457.7504
        47.0004         40.0004
  22388442.8764    6965055.60243   5417321.03742  22388445.0054   22388440.3364
        53.0004         45.0004
 03 12 17 17 30  0.0000000  0  8G31G29G28G27G 8G10G 7G13
  21795158.1974    2657200.28743   2069119.43042  21795160.4404   21795155.7304
        53.0004         46.0004
  24142675.1974   -6274923.39943  -4833716.82242  24142678.4284   24142674.7474
        47.0004         39.0004
  21425655.1484   -5066205.90944  -3945542.24642  21425656.5384   21425650.4254
        57.0004         49.0004
  20603597.9174    4139645.30844   3225838.53442  20603599.4784   20603594.2664
        57.0004         50.0004
  20568780.6344   -4250198.93744  -3305101.75442  20568780.6894   20568775.7234
        57.0004         50.0004
  24095901.1644    1249563.10143    973043.86242  24095901.7724   24095898.9344
        47.0004         41.0004
  23817637.1724   -7593767.03743  -5873247.61442  23817638.6564   23817635.8934
        46.0004         40.0004
  22406948.5214    7062302.53943   5493097.80842  22406950.0944   22406945.4984
        53.0004         45.0004
 03 12 17 17 30 30.0000000  0  8G31G29G28G27G 8G10G 7G13
  21806280.7544    2715656.47243   2114669.63742  21806284.5694   21806279.0564
        53.0004         46.0004
  24124691.9484   -6369419.50143  -4907350.13242  24124695.5084   24124690.1074
        46.0004         39.0004
  21417827.1254   -5107341.74844  -3977596.14542  21417828.8124   21417822.8644
        57.0004         49.0004
  20604730.1364    4145596.78944   3230476.02942  20604731.8254   20604726.6284
        57.0004         50.0004
  20561714.2394   -4287332.92044  -3334037.32842  20561714.5064   20561709.2394
        57.0004         50.0004
  24102983.5344    1286782.21943   1002045.71342  24102985.0094   24102982.0754
        47.0004         41.0004
  23797831.1584   -7697843.62043  -5954346.06442  23797833.4264   23797831.4884
        46.0004         40.0004
  22425509.4644    7159840.87043   5569101.64442  22425511.7204   22425506.8214
        53.0004         45.0004
 03 12 17 17 31  0.0000000  0  8G31G29G28G27G 8G10G 7G13
  21817509.8564    2774647.56243   2160636.67342  21817510.1404   21817505.5324
        54.0004         46.0004
  24106750.1784   -6463711.62943  -4980824.52542  24106753.2334   24106745.8614
        46.0004         39.0004
  21410055.9894   -5148179.19844  -4009417.52642  21410057.9294   21410051.3604
        57.0004         49.0004
  20605912.5554    4151810.12144   3235317.56542  20605914.2024   20605908.7674
        57.0004         50.0004
  20554689.6084   -4324247.90344  -3362802.25342  20554689.7894   20554684.4424
        57.0004         50.0004
  24110143.1044    1324408.34343   1031364.71842  24110143.6824   24110141.6324
        47.0004         41.0004
  23778041.8354   -7801838.30543  -6035380.70542  23778043.4434   23778041.2744
        46.0004         40.0004
  22444125.0394    7257664.87243   5645328.08042  22444126.4814   22444122.1194
        53.0004         45.0004
 03 12 17 17 31 30.0000000  0  8G31G29G28G27G 8G10G 7G13
  21828834.5734    2834170.86343   2207018.41242  21828836.9474   21828831.8864
        53.0004         46.0004
  24088846.5174   -6557797.52843  -5054138.20342  24088849.7094   24088845.5334
        46.0004         39.0004
  21402341.7244   -5188718.98344  -4041006.96642  21402343.1054   21402337.1984
        57.0004         49.0004
  20607145.3334    4158285.72044   3240363.46042  20607146.4444   20607141.1904
        57.0004         50.0004
  20547706.6694   -4360942.93444  -3391395.78642  20547706.7644   20547701.2754
        57.0004         50.0004
  24117380.9624    1362439.06543   1060998.99942  24117380.4994   24117378.6514
        47.0004         40.0004
  23758268.0344   -7905749.15743  -6116350.06942  23758270.3694   23758267.3524
        46.0004         40.0004
  22462793.9714    7355771.95043   5721775.09942  22462796.3914   22462791.4114
        53.0004         45.0004
 03 12 17 17 32  0.0000000  0  8G31G29G28G27G 8G10G 7G13
  21840264.0834    2894228.18843   2253816.27642  21840265.0684   21840259.8924
        53.0004         46.0004
  24070982.2694   -6651670.63543  -5127286.07342  24070986.6574   24070981.4034
        46.0004         39.0004
  21394684.5084   -5228957.50644  -4072361.65542  21394686.0654   21394680.2744
        57.0004         49.0004
  20608428.1194    4165028.85144   3245617.82542  20608429.8484   20608424.4994
        57.0004         50.0004
  20540766.8134   -4397412.79444  -3419813.85942  20540766.8514   20540761.6364
        57.0004         50.0004
  24124694.7014    1400875.96843   1090949.78042  24124695.8914   24124693.2754
        47.0004         40.0004
  23738511.4804   -8009569.85443  -6197249.20642  23738513.0524   23738510.4354
        46.0004         40.0004
  22481517.3564    7454163.57043   5798443.83242  22481519.7184   22481514.9804
        53.0004         45.0004
 03 12 17 17 32 30.0000000  0  8G31G29G28G27G 8G10G 7G13
  21851793.0764    2954815.26843   2301026.92342  21851794.7114   21851789.3854
        53.0004         46.0004
  24053159.4584   -6745330.74743  -5200267.96742  24053160.9704   24053157.6334
        46.0004         39.0004
  21387084.3344   -5268897.28944  -4103483.55842  21387085.9814   21387079.6344
        57.0004         49.0004
  20609762.1474    4172038.48744   3251079.85542  20609763.8254   20609758.4854
        57.0004         50.0004
  20533869.4354   -4433658.64444  -3448057.37942  20533869.4104   20533864.4504
        57.0004         50.0004
  24132086.5564    1439714.89343   1121213.82742  24132086.9934   24132084.0114
        47.0004         40.0004
  23718771.6874   -8113299.96743  -6278077.76942  23718774.1034   23718772.1734
        46.0004         40.0004
  22500293.8214    7552835.17743   5875330.73442  22500296.5034   22500290.6184
        53.0004         45.0004
 03 12 17 17 33  0.0000000  0  8G31G29G28G27G 8G10G 7G13
  21863423.9644    3015929.91843   2348648.69342  21863424.0664   21863419.6944
        53.0004         46.0004
  24035377.1564   -6838775.23943  -5273081.84942  24035377.5724   24035374.4214
        46.0004         40.0004
  21379540.5654   -5308538.64944  -4134372.91942  21379542.4114   21379536.3704
        57.0004         49.0004
  20611146.7894    4179315.65344   3256750.35342  20611148.4354   20611143.2494
        57.0004         50.0004
  20527015.0874   -4469678.98744  -3476125.17642  20527015.1604   20527009.7384
        57.0004         50.0004
  24139552.5924    1478953.31543   1151789.19142  24139553.9424   24139551.2804
        47.0004         40.0004
  23699050.9114   -8216937.06543  -6358833.86742  23699052.8084   23699049.2184
        47.0004         40.0004
  22519123.2504    7651784.29443   5952433.87442  22519124.8814   22519120.3034
        53.0004         45.0004
 03 12 17 17 33 30.0000000  0  8G31G29G28G27G 8G10G 7G13
  21875151.0954    3077569.04343   2396679.11442  21875154.5324   21875148.9554
        52.0004         46.0004
  24017636.7814   -6932002.64443  -5345726.57242  24017638.1664   24017633.4814
        46.0004         40.0004
  21372053.7724   -5347883.00644  -4165030.85442  21372055.4004   21372049.2084
        57.0004         49.0004
  20612582.7574    4186860.65844   3262629.56342  20612584.4154   20612578.8574
        57.0004         50.0004
  20520203.1844   -4505473.58744  -3504017.07342  20520203.5584   20520198.2944
        57.0004         50.0004
  24147094.8644    1518588.11443   1182673.39842  24147095.9404   24147093.1274
        47.0004         40.0004
  23679347.4394   -8320479.74643  -6439516.38042  23679349.8244   23679346.6734
        47.0004         40.0004
  22538004.9314    7751007.96143   6029750.94942  22538007.5784   22538002.0814
        52.0004         45.0004
 03 12 17 17 34  0.0000000  0  8G31G29G28G27G 8G10G 7G13
  21886982.4054    3139731.30243   2445117.20542  21886983.1344   21886978.6314
        53.0004         46.0004
  23999937.2854   -7025009.29043  -5418199.25842  23999941.1114   23999936.2904
        46.0004         40.0004
  21364623.4614   -5386929.65144  -4195456.81042  21364624.9314   21364618.9514
        57.0004         49.0004
  20614070.0154    4194675.55044   3268719.07242  20614071.5004   20614065.9614
        57.0004         50.0004
  20513435.3734   -4541040.09344  -3531731.23742  20513435.5834   20513430.2684
        57.0004         50.0004
  24154711.9464    1558617.74643   1213865.26042  24154714.4554   24154710.2964
        47.0004         40.0004
  23659662.3854   -8423924.60743  -6520122.66642  23659664.7224   23659661.0534
        47.0004         40.0004
  22556938.6554    7850504.45343   6107280.61642  22556941.4124   22556935.6084
        52.0004         45.0004
 03 12 17 17 34 30.0000000  0  8G31G29G28G27G 8G10G 7G13
  21898910.6604    3202414.72943   2493961.39342  21898910.6884   21898906.6264
        53.0004         46.0004
  23982283.6784   -7117792.36843  -5490497.74842  23982286.3094   23982281.7004
        48.0004         41.0004
  21357249.6454   -5425678.79544  -4225650.94742  21357251.4784   21357245.1514
        57.0004         49.0004
  20615608.6714    4202761.71544   3275019.96442  20615610.0334   20615604.9034
        57.0004         50.0004
  20506711.1504   -4576377.20544  -3559266.65742  20506711.1594   20506705.8254
        57.0004         50.0004
  24162403.5554    1599040.10443   1245363.14142  24162404.0544   24162401.9264
        46.0004         40.0004
  23639996.2644   -8527269.02343  -6600650.69242  23639999.0814   23639995.7254
        47.0004         41.0004
  22575923.4964    7950271.64243   6185021.20642  22575926.2084   22575920.4304
        52.0004         44.0004
 03 12 17 17 35  0.0000000  0  8G31G29G28G27G 8G10G 7G13
  21910934.3404    3265604.85343   2543200.40342  21910935.7044   21910931.3124
        52.0004         46.0004
  23964667.5434   -7210361.82243  -5562629.77842  23964669.1274   23964664.6414
        48.0004         41.0004
  21349930.1374   -5464143.08444  -4255623.11942  21349932.1104   21349925.4714
        57.0004         49.0004
  20617196.9824    4211107.95144   3281523.51042  20617198.6384   20617193.2204
        57.0004         50.0004
  20500028.2974   -4611495.81544  -3586631.81742  20500028.4404   20500023.2144
        58.0004         50.0004
  24170167.5574    1639840.56843   1277155.65042  24170170.1764   24170166.1394
        46.0004         40.0004
  23620348.0484   -8630522.77843  -6681108.04542  23620349.9144   23620347.0994
        47.0004         41.0004
  22594957.4274    8050294.81643   6262961.27042  22594960.0324   22594954.2504
        52.0004         44.0004
 03 12 17 17 35 30.0000000  0  8G31G29G28G27G 8G10G 7G13
  21923061.3954    3329326.14543   2592853.31842  21923062.1334   21923057.3224
        53.0004         46.0004
  23947099.2164   -7302688.30143  -5634572.48642  23947100.4884   23947096.3304
        47.0004         41.0004
  21342669.8714   -5502296.14344  -4285352.78042  21342671.4644   21342665.2534
        57.0004         49.0004
  20618840.1144    4219742.12044   3288251.41642  20618841.5764   20618836.0214
        57.0004         50.0004
  20493392.1634   -4646367.68144  -3613804.70542  20493392.4184   20493387.4094
        57.0004         51.0004
  24178009.4424    1681043.75043   1309261.96842  24178009.0224   24178006.2324
        46.0004         40.0004
  23600721.8234   -8733656.56443  -6761471.90742  23600722.7144   23600721.8904
        47.0004         40.0004
  22614044.4484    8150598.38343   6341119.81842  22614047.5734   22614041.7264
        52.0004         44.0004
 03 12 17 17 36  0.0000000  0  8G31G29G28G27G 8G10G 7G13
  21935283.4684    3393557.45343   2642903.65942  21935284.7944   21935280.5454
        52.0004         46.0004
  23929571.9644   -7394787.94443  -5706338.41342  23929573.9274   23929569.7114
        48.0004         41.0004
  21335465.0764   -5540157.06744  -4314854.80542  21335466.6364   21335460.5874
        57.0004         49.0004
  20620534.3534    4228646.57844   3295189.93942  20620536.1074   20620530.6224
        57.0004         50.0004
  20486799.9384   -4681010.72144  -3640799.28942  20486800.2904   20486794.9574
        58.0004         50.0004
  24185922.9814    1722628.15943   1341665.35242  24185924.3724   24185920.5764
        46.0004         40.0004
  23581116.1454   -8836686.90643  -6841755.14242  23581116.7424   23581114.1164
        46.0004         40.0004
  22633181.3164    8251160.90643   6419480.15542  22633182.8484   22633177.8954
        52.0004         44.0004
 03 12 17 17 36 30.0000000  0  8G31G29G28G27G 8G10G 7G13
  21947604.3734    3458301.53643   2693353.55742  21947605.5544   21947600.6794
        53.0004         46.0004
  23912090.0684   -7486653.29843  -5777921.77442  23912093.5164   23912088.4634
        47.0004         41.0004
  21328316.9584   -5577721.54344  -4344125.83342  21328318.3654   21328312.4994
        57.0004         50.0004
  20622281.2734    4237827.35544   3302343.77442  20622282.8284   20622277.5224
        57.0004         50.0004
  20480252.3874   -4715418.52444  -3667610.57242  20480252.3034   20480247.1624
        57.0004         51.0004
  24193909.3614    1764596.28343   1374367.73542  24193909.5414   24193907.9264
        46.0004         40.0004
  23561530.8894   -8939606.54043  -6921952.10342  23561532.2734   23561529.8454
        47.0004         40.0004
  22652367.4444    8351984.97143   6498044.28342  22652369.6904   22652365.0314
        52.0004         44.0004
 03 12 17 17 37  0.0000000  0  8G31G29G28G27G 8G10G 7G13
  21960020.9694    3523555.73843   2744200.94842  21960022.9334   21960018.4004
        53.0004         45.0004
  23894653.1404   -7578282.15243  -5849320.84042  23894655.7954   23894652.3884
        48.0004         41.0004
  21321224.9564   -5614990.05744  -4373166.24042  21321226.4454   21321220.6014
        57.0004         50.0004
  20624081.3354    4247285.20344   3309713.50242  20624082.7954   20624077.5454
        57.0004         50.0004
  20473749.8884   -4749589.82444  -3694237.56742  20473750.0724   20473744.4084
        58.0004         51.0004
  24201967.3324    1806945.66943   1407367.19742  24201967.5914   24201965.6254
        46.0004         40.0004
  23541967.4004   -9042413.18043  -7002060.99742  23541968.2204   23541968.1264
        46.0004         40.0004
  22671603.2254    8453068.15943   6576810.32042  22671605.2994   22671599.6974
        52.0004         44.0004
 03 12 17 17 37 30.0000000  0  8G31G29G28G27G 8G10G 7G13
  21972534.1904    3589315.56843   2795442.34442  21972536.9134   21972531.4914
        52.0004         45.0004
  23877263.4094   -7669673.97943  -5920535.23642  23877265.4194   23877261.0724
        48.0004         42.0004
  21314188.7234   -5651965.18944  -4401978.04042  21314190.4004   21314184.3374
        57.0004         50.0004
  20625933.3834    4257019.20744   3317298.42042  20625935.2044   20625929.8384
        57.0004         50.0004
  20467292.0814   -4783525.82544  -3720681.20642  20467292.0154   20467286.8624
        57.0004         51.0004
  24210097.7444    1849671.49943   1440659.99242  24210099.0004   24210095.8704
        46.0004         40.0004
  23522425.0694   -9145106.62143  -7082081.68942  23522427.6124   23522423.8394
        47.0004         41.0004
  22690886.9454    8554405.32343   6655774.26442  22690889.4184   22690883.7434
        52.0004         44.0004
 03 12 17 17 38  0.0000000  0  8G31G29G28G27G 8G10G 7G13
  21985145.4044    3655582.17143   2847078.63142  21985147.0014   21985141.1964
        53.0004         45.0004
  23859917.5054   -7760822.64043  -5991560.13242  23859920.5924   23859915.1824
        48.0004         41.0004
  21307209.0894   -5688643.84744  -4430558.81942  21307210.6254   21307204.6984
        57.0004         50.0004
  20627839.4744    4267033.90644   3325102.06342  20627840.7894   20627835.6354
        57.0004         50.0004
  20460879.7624   -4817221.62544  -3746937.68042  20460879.8914   20460874.8844
        58.0004         51.0004
  24218300.7574    1892775.07243   1474247.13642  24218301.6524   24218299.0334
        46.0004         40.0004
  23502905.6414   -9247680.78843  -7162009.42642  23502907.1114   23502904.4644
        46.0004         41.0004
  22710219.4814    8655997.91243   6734937.24142  22710222.1604   22710216.8064
        52.0004         44.0004
 03 12 17 17 38 30.0000000  0  8G31G29G28G27G 8G10G 7G13
  21997849.5334    3722351.31943   2899106.50342  21997852.2784   21997846.7134
        51.0004         45.0004
  23842619.7804   -7851727.88043  -6062395.37142  23842620.9764   23842616.9644
        47.0004         41.0004
  21300285.1654   -5725028.71144  -4458910.66142  21300287.0174   21300280.6494
        57.0004         50.0004
  20629798.1384    4277328.50944   3333123.81442  20629799.9924   20629794.4054
        57.0004         50.0004
  20454513.2764   -4850677.78044  -3773007.41842  20454513.4164   20454508.2864
        58.0004         51.0004
  24226574.1144    1936252.02443   1508125.21342  24226576.0004   24226572.1104
        47.0004         40.0004
  23483409.0424   -9350135.48643  -7241844.06542  23483410.4894   23483408.3464
        46.0004         41.0004
  22729599.5554    8757841.36943   6814295.69942  22729602.2244   22729595.7544
        52.0004         44.0004
 03 12 17 17 39  0.0000000  0  8G31G29G28G27G 8G10G 7G13
  22010651.9894    3789617.95543   2951522.02542  22010652.7154   22010648.2354
        53.0004         45.0004
  23825366.2474   -7942389.38743  -6133040.68442  23825367.9884   23825365.8284
        47.0004         41.0004
  21293416.8724   -5761122.53944  -4487035.72642  21293418.5124   21293412.5484
        57.0004         50.0004
  20631810.3834    4287901.39044   3341362.40442  20631811.7304   20631806.4644
        57.0004         50.0004
  20448192.2804   -4883895.55244  -3798891.40142  20448192.3804   20448187.3334
        58.0004         51.0004
  24234917.4684    1980096.96243   1542290.05342  24234920.3764   24234916.2124
        46.0004         40.0004
  23463935.3824   -9452470.75143  -7321585.64642  23463936.9164   23463933.4614
        47.0004         41.0004
  22749026.6424    8859930.75443   6893845.78942  22749029.6014   22749024.2634
        52.0004         44.0004
 03 12 17 17 39 30.0000000  0  8G31G29G28G27G 8G10G 7G13
  22023545.5144    3857381.78743   3004324.97142  22023547.8554   22023542.9784
        51.0004         45.0004
  23808161.3144   -8032802.73543  -6203492.61342  23808163.1394   23808158.6644
        47.0004         41.0004
  21286604.2484   -5796923.62644  -4514932.67542  21286606.0114   21286600.0114
        57.0004         50.0004
  20633875.9164    4298755.74044   3349820.32242  20633877.4624   20633871.9764
        57.0004         50.0004
  20441917.1054   -4916871.78544  -3824587.17042  20441917.2374   20441912.0494
        57.0004         51.0004
  24243330.8414    2024309.79643   1576741.55342  24243331.8404   24243328.5514
        47.0004         40.0004
  23444485.2454   -9554682.18043  -7401230.74542  23444487.5124   23444484.0354
        47.0004         41.0004
  22768500.5804    8962265.58843   6973587.13742  22768502.4774   22768496.6324
        52.0004         44.0004
 03 12 17 17 40  0.0000000  0  8G31G29G28G27G 8G10G 7G13
  22036536.5814    3925643.06843   3057515.52042  22036537.9464   22036532.7004
        53.0004         45.0004
  23791005.0614   -8122962.64143  -6273747.08242  23791004.5394   23791003.0944
        47.0004         41.0004
  21279847.5244   -5832430.00944  -4542599.99042  21279849.1864   21279842.8154
        57.0004         50.0004
  20635995.6304    4309895.40744   3358500.55842  20635997.2974   20635992.0624
        57.0004         50.0004
  20435688.9314   -4949602.25244  -3850091.43842  20435689.0054   20435683.6984
        58.0004         51.0004
  24251813.6084    2068890.47343   1611479.68842  24251816.1884   24251811.7364
        46.0004         40.0004
  23425059.2584   -9656764.68143  -7480775.40742  23425061.1044   23425059.1174
        48.0004         41.0004
  22788020.5804    9064845.87843   7053519.75042  22788023.0044   22788018.0604
        51.0004         44.0004
 03 12 17 17 40 30.0000000  0  8G31G29G28G27G 8G10G 7G13
  22049619.7674    3994399.64643   3111092.02242  22049620.9504   22049616.2944
        52.0004         45.0004
  23773896.5594   -8212866.35743  -6343801.90042  23773898.3344   23773894.9954
        48.0004         41.0004
  21273147.0294   -5867641.65944  -4570037.63642  21273148.5574   21273142.2794
        57.0004         50.0004
  20638170.0794    4321321.89744   3367404.29042  20638171.4194   20638166.3014
        57.0004         50.0004
  20429507.3364   -4982085.35844  -3875402.95942  20429507.3124   20429502.1664
        58.0004         51.0004
  24260367.1094    2113836.93443   1646502.85342  24260368.7084   24260364.9344
        46.0004         40.0004
  23405658.5904   -9758715.43543  -7560217.42542  23405660.7024   23405657.8144
        48.0004         41.0004
  22807587.7604    9167669.83543   7133642.23242  22807590.6134   22807584.8234
        52.0004         44.0004
 03 12 17 17 41  0.0000000  0  8G31G29G28G27G 8G10G 7G13
  22062795.5124    4063639.57843   3165045.15642  22062797.6614   22062792.6394
        52.0004         45.0004
  23756835.2894   -8302520.93643  -6413662.57342  23756837.3624   23756834.1394
        47.0004         41.0004
  21266500.5464   -5902568.85444  -4597253.62042  21266502.3254   21266496.0644
        57.0004         50.0004
  20640397.3354    4333026.36844   3376524.63642  20640398.9284   20640393.9514
        57.0004         50.0004
  20423371.6124   -5014329.57144  -3900528.32542  20423371.5894   20423366.4854
        57.0004         51.0004
  24268987.5664    2159136.89143   1681801.46942  24268987.8394   24268984.4144
        46.0004         40.0004
  23386281.0504   -9860541.83543  -7639562.52242  23386282.3674   23386280.7914
        48.0004         41.0004
  22827198.4874    9270724.88343   7213944.78542  22827199.8094   22827195.6644
        52.0004         44.0004
 03 12 17 17 41 30.0000000  0  8G31G29G28G27G 8G10G 7G13
  22076067.3124    4133371.57243   3219381.71342  22076066.8474   22076061.9944
        54.0004         45.0004
  23739824.8844   -8391912.38643  -6483318.24142  23739827.9214   23739822.1854
        47.0004         41.0004
  21259910.3184   -5937200.65244  -4624239.42042  21259911.9204   21259905.8824
        57.0004         50.0004
  20642680.0594    4345021.31644   3385871.32142  20642681.3764   20642676.2534
        57.0004         50.0004
  20417283.7064   -5046322.19844  -3925457.65642  20417283.5794   20417278.3554
        58.0004         51.0004
  24277676.9604    2204799.11843   1717382.37042  24277678.3054   24277676.4684
        46.0004         39.0004
  23366930.3894   -9962230.11943  -7718799.99942  23366931.7324   23366930.8014
        48.0004         41.0004
  22846854.7354    9374020.10143   7294434.49042  22846857.6854   22846851.8274
        51.0004         44.0004
 03 12 17 17 42  0.0000000  0  8G31G29G28G27G 8G10G 7G13
  22089427.2084    4203589.76243   3274097.10842  22089428.9024   22089424.3464
        52.0004         45.0004
  23722864.9324   -8481041.74743  -6552769.65542  23722867.9054   23722861.4354
        48.0004         41.0004
  21253375.4264   -5971541.11144  -4650998.20642  21253377.1774   21253371.0074
        57.0004         50.0004
  20645017.1724    4357304.24644   3395442.41242  20645018.8564   20645013.5594
        57.0004         50.0004
  20411243.0684   -5078065.47544  -3950192.68842  20411243.1254   20411237.8694
        58.0004         51.0004
  24286433.9954    2250817.53643   1753240.83442  24286433.6814   24286431.0424
        46.0004         39.0004
  23347606.1174  -10063781.40343  -7797930.73742  23347607.0914   23347605.1574
        48.0004         41.0004
  22866556.1074    9477549.34043   7375106.53342  22866557.6844   22866553.2074
        51.0004         44.0004
 03 12 17 17 42 30.0000000  0  8G31G29G28G27G 8G10G 7G13
  22102881.2394    4274290.15143   3329188.25842  22102882.2384   22102878.0254
        51.0004         45.0004
  23705953.9844   -8569907.98843  -6622016.05942  23705956.4104   23705951.1564
        49.0004         41.0004
  21246895.7204   -6005592.13844  -4677531.46042  21246897.4534   21246891.4524
        57.0004         50.0004
  20647409.3034    4369874.81444   3405237.63842  20647411.0094   20647405.5904
        57.0004         50.0004
  20405249.7434   -5109559.33044  -3974733.36442  20405250.1504   20405244.8334
        58.0004         51.0004
  24295258.5654    2297188.13243   1789373.72642  24295257.5044   24295257.1644
        46.0004         39.0004
  23328307.5854  -10165194.68443  -7876953.94342  23328309.0354   23328307.1544
        48.0004         41.0004
  22886300.6684    9581308.72443   7455957.93042  22886302.9864   22886298.2304
        51.0004         43.0004
 03 12 17 17 43  0.0000000  0  8G31G29G28G27G 8G10G 7G13
  22116425.9994    4345470.26743   3384653.18642  22116428.6384   22116423.7334
        52.0004         45.0004
  23689093.6934   -8658508.59043  -6691055.49342  23689096.2914   23689091.6984
        48.0004         41.0004
  21240471.0894   -6039354.26944  -4703839.59742  21240472.7204   21240466.7084
        57.0004         50.0004
  20649856.4964    4382734.18144   3415257.90142  20649858.2224   20649852.9394
        57.0004         50.0004
  20399304.6314   -5140802.71544  -3999078.86742  20399304.6604   20399299.4434
        58.0004         51.0004
  24304149.0924    2343908.47643   1825779.14642  24304150.1964   24304148.4944
        46.0004         39.0004
  23309035.6114  -10266467.59243  -7955867.77042  23309037.5354   23309034.4184
        48.0004         41.0004
  22906089.2564    9685295.49343   7536986.47642  22906091.6094   22906086.4094
        51.0004         43.0004
 03 12 17 17 43 30.0000000  0  7G31G29G28G27G 8G 7G13
  22130064.7104    4417129.92643   3440491.82742  22130063.7444   22130059.2944
        53.0004         45.0004
  23672284.4624   -8746838.61843  -6759884.05742  23672287.4884   23672283.6714
        48.0004         41.0004
  21234101.8664   -6072825.62944  -4729921.16542  21234103.3624   21234097.0904
        57.0004         50.0004
  20652359.1464    4395885.58044   3425505.72242  20652360.6754   20652355.5204
        57.0004         50.0004
  20393407.5464   -5171791.77244  -4023226.19542  20393407.6214   20393402.1964
        58.0004         51.0004
  23289791.9694  -10367595.48343  -8034668.60142  23289794.0634   23289790.5904
        48.0004         41.0004
  22925920.3604    9789509.78843   7618192.34642  22925921.9864   22925917.1054
        51.0004         43.0004
 03 12 17 17 44  0.0000000  0  7G31G29G28G27G 8G 7G13
  22143789.7294    4489263.79543   3496699.95742  22143791.1564   22143786.8424
        52.0004         45.0004
  23655527.1104   -8834898.23243  -6828501.91242  23655529.5514   23655526.8094
        48.0004         41.0004
  21227786.8834   -6106009.58144  -4755778.77642  21227788.8944   21227782.7174
        57.0004         50.0004
  20654916.7274    4409327.30943   3435979.77142  20654918.3614   20654913.3824
        56.0004         50.0004
  20387558.4444   -5202528.27544  -4047176.72742  20387558.7454   20387553.3904
        58.0004         51.0004
  23270574.7904  -10468578.67743  -8113356.67942  23270575.8734   23270576.1614
        47.0004         41.0004
  22945793.6214    9893946.18243   7699571.27142  22945794.8514   22945791.4964
        51.0004         43.0004
 03 12 17 17 44 30.0000000  0  7G31G29G28G27G 8G 7G13
  22157607.1144    4561870.58143   3553276.60842  22157608.8324   22157603.6604
        52.0004         45.0004
  23638823.3474   -8922683.77243  -6896906.20942  23638825.9154   23638821.2014
        48.0004         42.0004
  21221527.1554   -6138905.28844  -4781411.77742  21221528.9344   21221522.6994
        57.0004         50.0004
  20657530.7894    4423061.54244   3446681.74742  20657532.1734   20657527.1184
        57.0004         50.0004
  20381758.2434   -5233009.30444  -4070928.19042  20381758.3034   20381753.0034
        58.0004         51.0004
  23251386.6414  -10569413.71643  -8191929.29442  23251388.3484   23251387.8144
        48.0004         41.0004
  22965709.6214    9998603.35143   7781122.24742  22965711.1294   22965706.6054
        51.0004         43.0004
 03 12 17 17 45  0.0000000  0  7G31G29G28G27G 8G 7G13
  22171512.3634    4634949.29743   3610221.00642  22171514.2724   22171509.5864
        52.0004         45.0004
  23622171.2704   -9010191.08743  -6965093.70642  23622174.2634   23622166.7414
        49.0004         41.0004
  21215322.3184   -6171512.10944  -4806819.67842  21215323.8164   21215317.5864
        57.0004         50.0004
  20660200.5544    4437091.03144   3457613.79542  20660201.9034   20660196.6944
        57.0004         50.0004
  20376007.0414   -5263232.10244  -4094478.43242  20376007.3844   20376001.8254
        58.0004         51.0004
  23232227.4374  -10670096.58443  -8270383.33842  23232230.4994   23232226.5364
        48.0004         42.0004
  22985666.6314   10103480.25843   7862844.42942  22985668.8644   22985663.5404
        51.0004         43.0004
 03 12 17 17 45 30.0000000  0  7G31G29G28G27G 8G 7G13
  22185508.5114    4708493.86843   3667528.41242  22185509.4804   22185504.8794
        51.0004         45.0004
  23605571.8704   -9097421.38643  -7033065.36142  23605572.4154   23605568.8734
        48.0004         41.0004
  21209171.4254   -6203834.01744  -4832005.57242  21209173.3324   21209166.9494
        57.0004         50.0004
  20662925.7014    4451413.20544   3468773.90742  20662927.4324   20662921.7584
        57.0004         50.0004
  20370304.4284   -5293198.88744  -4117829.18642  20370304.6404   20370299.5154
        58.0004         51.0004
  23213096.9294  -10770628.33443  -8348719.65142  23213098.3454   23213094.6814
        48.0004         42.0004
  23005665.0754   10208570.77943   7944733.06842  23005668.2854   23005663.2114
        51.0004         43.0004
 03 12 17 17 46  0.0000000  0  7G31G29G28G27G 8G 7G13
  22199592.5214    4782507.03943   3725200.94642  22199592.2724   22199589.5424
        51.0004         45.0004
  23589026.8904   -9184366.41043  -7100814.72142  23589029.2764   23589026.0184
        48.0004         42.0004
  21203075.9934   -6235865.91644  -4856965.48442  21203077.6664   21203071.6124
        57.0004         50.0004
  20665708.3334    4466034.49944   3480167.10242  20665709.5434   20665704.2644
        57.0004         50.0004
  20364651.9384   -5322902.92244  -4140975.20042  20364652.2944   20364646.9834
        58.0004         51.0004
  23193996.4744  -10871001.39743  -8426932.30142  23193997.8544   23193994.4994
        48.0004         42.0004
  23025704.2604   10313877.79743   8026790.40742  23025706.0974   23025702.8064
        51.0004         43.0004
 03 12 17 17 46 30.0000000  0  7G31G29G28G27G 8G 7G13
  22213764.7354    4856978.47843   3783230.60042  22213766.0034   22213760.8214
        52.0004         45.0004
  23572535.0094   -9271031.67743  -7168346.08942  23572537.1044   23572533.5634
        49.0004         42.0004
  21197034.3914   -6267616.08544  -4881705.87142  21197036.2564   21197029.5234
        57.0004         50.0004
  20668545.9284    4480948.26043   3491788.19642  20668547.8324   20668542.8514
        56.0004         50.0004
  20359048.3764   -5352350.65244  -4163921.49442  20359048.5064   20359043.2534
        57.0004         51.0004
  23174925.0464  -10971221.07343  -8505025.43542  23174926.2464   23174922.3454
        48.0004         42.0004
  23045783.3604   10419391.30443   8109008.64542  23045785.8324   23045780.9934
        51.0004         43.0004
 03 12 17 17 47  0.0000000  0  7G31G29G28G27G 8G 7G13
  22228023.1304    4931912.52543   3841620.72042  22228024.3114   22228020.7704
        51.0004         45.0004
  23556098.1194   -9357407.88743  -7235652.19742  23556100.5034   23556094.2144
        49.0004         42.0004
  21191047.1824   -6299078.45844  -4906222.00542  21191048.8384   21191042.3844
        57.0004         50.0004
  20671440.7684    4496162.19243   3503643.18642  20671443.0574   20671437.8744
        56.0004         50.0004
  20353494.9914   -5381533.73244  -4186661.57042  20353495.2184   20353490.0284
        58.0004         51.0004
  23155884.5214  -11071278.18743  -8582991.89642  23155885.7664   23155881.9284
        49.0004         42.0004
  23065902.3644   10525115.31243   8191390.91342  23065903.8014   23065899.6974
        51.0004         43.0004
 03 12 17 17 47 30.0000000  0  7G31G29G28G27G 8G 7G13
  22242370.3634    5007302.53443   3900366.11742  22242370.5604   22242367.0244
        52.0004         45.0004
  23539715.8104   -9443496.11143  -7302733.91242  23539718.8334   23539713.3294
        49.0004         42.0004
  21185113.9984   -6330257.37744  -4930517.26642  21185115.7184   21185109.3684
        57.0004         50.0004
  20674393.1474    4511673.42043   3515729.83642  20674394.9424   20674389.3384
        56.0004         50.0004
  20347991.5024   -5410455.10444  -4209197.71342  20347991.5544   20347986.2544
        58.0004         51.0004
  23136874.6334  -11171174.30343  -8660832.92642  23136877.0734   23136873.5224
        49.0004         43.0004
  23086059.3724   10631043.61343   8273932.37442  23086062.8134   23086056.8264
        51.0004         43.0004
 03 12 17 17 48  0.0000000  0  7G31G29G28G27G 8G 7G13
  22256802.9994    5083150.34443   3959468.24342  22256804.9734   22256799.8754
        52.0004         45.0004
  23523389.2664   -9529289.60843  -7369585.98842  23523392.5144   23523387.7534
        49.0004         42.0004
  21179235.4154   -6361149.06344  -4954588.72042  21179237.3044   21179230.9014
        57.0004         50.0004
  20677401.9264    4527487.31943   3528052.33242  20677403.8344   20677398.7204
        56.0004         50.0004
  20342538.8044   -5439108.75144  -4231525.24242  20342539.1544   20342533.8004
        58.0004         51.0004
  23117897.3064  -11270902.60743  -8738543.17742  23117898.1454   23117895.7434
        49.0004         43.0004
  23106255.9564   10737177.45843   8356633.99342  23106257.5444   23106255.4724
        50.0004         42.0004
 03 12 17 17 48 30.0000000  0  7G31G29G28G27G 8G 7G13
  22271321.6674    5159449.00843   4018921.70342  22271323.8464   22271320.6924
        51.0004         45.0004
  23507119.2774   -9614790.20843  -7436209.81342  23507121.7824   23507118.1274
        48.0004         42.0004
  21173411.0284   -6391758.04744  -4978439.87542  21173412.5254   21173406.4434
        57.0004         50.0004
  20680468.8664    4543600.58643   3540608.09642  20680470.0314   20680464.8684
        56.0004         50.0004
  20337136.6904   -5467497.62444  -4253646.45142  20337136.8994   20337131.5294
        58.0004         51.0004
  23098951.1994  -11370465.13943  -8816124.26342  23098951.9914   23098948.8074
        49.0004         43.0004
  23126491.0584   10843510.71943   8439491.00842  23126493.2664   23126488.5314
        50.0004         42.0004
 03 12 17 17 49  0.0000000  0  7G31G29G28G27G 8G 7G13
  22285927.2794    5236197.33243   4078725.53842  22285928.3604   22285924.6544
        51.0004         45.0004
  23490905.8234   -9699993.78943  -7502602.21542  23490908.0674   23490903.7394
        49.0004         42.0004
  21167640.0334   -6422083.72844  -5002070.28442  21167641.6604   21167635.5254
        57.0004         50.0004
  20683592.3164    4560015.92744   3553399.24042  20683593.6894   20683588.9714
        57.0004         50.0004
  20331785.3914   -5495618.89144  -4275559.13442  20331785.4524   20331780.1854
        58.0004         51.0004
  23080037.1444  -11469857.90543  -8893573.06542  23080038.8724   23080037.0024
        49.0004         43.0004
  23146762.9084   10950041.66243   8522502.06142  23146765.7824   23146760.5094
        50.0004         42.0004
 03 12 17 17 49 30.0000000  0  7G31G29G28G27G 8G 7G13
  22300619.1234    5313395.85943   4138880.18542  22300618.9354   22300614.7704
        52.0004         45.0004
  23474749.8534   -9784894.70743  -7568758.76742  23474752.0484   23474747.4604
        48.0004         42.0004
  21161923.5454   -6452123.72344  -5025478.07642  21161925.3644   21161919.2154
        57.0004         50.0004
  20686774.4444    4576737.23644   3566428.80442  20686775.8584   20686770.7914
        57.0004         50.0004
  20326485.7704   -5523468.17344  -4297259.88542  20326486.1414   20326480.5634
        58.0004         51.0004
  23061156.7404  -11569075.49443  -8970885.38042  23061157.9704   23061153.9184
        49.0004         42.0004
  23167073.2904   11056770.96343   8605667.66542  23167075.2334   23167069.4124
        50.0004         42.0004
 03 12 17 17 50  0.0000000  0  7G31G29G28G27G 8G 7G13
  22315390.3614    5391035.29043   4199378.38342  22315393.4944   22315388.6634
        50.0004         44.0004
  23458650.7564   -9869497.17043  -7634682.77542  23458652.3114   23458648.0744
        49.0004         42.0004
  21156260.1784   -6481885.18644  -5048668.83442  21156261.9784   21156256.1224
        57.0004         50.0004
  20690013.1314    4593758.96643   3579692.46142  20690014.8074   20690009.7554
        56.0004         50.0004
  20321236.8084   -5551050.81844  -4318752.86542  20321237.1234   20321231.8534
        58.0004         51.0004
  23042308.8204  -11668122.31443  -9048064.63342  23042309.7384   23042306.5184
        49.0004         42.0004
  23187419.1244   11163689.47843   8688980.73342  23187419.7134   23187416.9484
        50.0004         42.0004
 03 12 17 17 50 30.0000000  0  7G31G29G28G27G 8G 7G13
  22330251.3404    5469116.19143   4260220.58142  22330251.7134   22330247.7714
        52.0004         44.0004
  23442608.6994   -9953795.17643  -7700369.51342  23442611.0084   23442606.2614
        48.0004         42.0004
  21150650.3864   -6511365.49744  -5071640.50442  21150651.9894   21150645.8774
        57.0004         50.0004
  20693310.4134    4611085.34643   3593193.50742  20693312.1184   20693306.9034
        56.0004         50.0004
  20316039.7504   -5578361.87544  -4340034.22042  20316040.0414   20316034.7414
        58.0004         51.0004
  23023494.5164  -11766992.64743  -9125106.36842  23023495.9084   23023492.5224
        49.0004         42.0004
  23207801.2484   11270797.89643   8772441.76442  23207802.9444   23207798.4514
        50.0004         42.0004
 03 12 17 17 51  0.0000000  0  7G31G29G28G27G 8G 7G13
  22345193.9824    5547638.15943   4321406.47442  22345193.9704   22345189.4124
        52.0004         44.0004
  23426626.1734  -10037784.25943  -7765815.54542  23426629.5394   23426624.7804
        48.0004         42.0004
  21145094.2154   -6540562.81244  -5094391.66342  21145095.7604   21145090.0004
        57.0004         50.0004
  20696666.2474    4628719.62543   3606934.47742  20696667.9014   20696663.0914
        56.0004         50.0004
  20310895.1664   -5605397.99044  -4361101.33542  20310895.2854   20310890.2204
        58.0004         51.0004
  23004713.9554  -11865681.79843  -9202006.91442  23004715.4574   23004712.6214
        49.0004         43.0004
  23228218.9094   11378095.77343   8856050.41942  23228221.4304   23228216.5484
        49.0004         42.0004
 03 12 17 17 51 30.0000000  0  7G31G29G28G27G 8G 7G13
  22360217.8314    5626598.54443   4382933.96342  22360219.3894   22360215.0734
        51.0004         44.0004
  23410703.3974  -10121461.75843  -7831018.78442  23410705.4324   23410701.1204
        48.0004         42.0004
  21139591.8544   -6569477.96844  -5116922.95242  21139593.4554   21139587.2234
        57.0004         50.0004
  20700080.9764    4646662.75143   3620916.10742  20700082.4014   20700077.3214
        56.0004         50.0004
  20305803.1774   -5632157.57944  -4381952.97642  20305803.0694   20305797.8744
        58.0004         51.0004
  22985968.9164  -11964187.58743  -9278764.57442  22985971.2514   22985968.0974
        49.0004         42.0004
  23248672.7384   11485580.68643   8939804.81742  23248675.0354   23248669.0414
        49.0004         42.0004
 03 12 17 17 52  0.0000000  0  7G31G29G28G27G 8G 7G13
  22375325.8414    5705989.99643   4444797.35242  22375326.9864   22375323.5424
        52.0004         44.0004
  23394838.1194  -10204829.79143  -7895980.87542  23394840.7194   23394836.5974
        48.0004         42.0004
  21134142.0504   -6598115.94144  -5139238.25742  21134143.7814   21134137.7594
        57.0004         50.0004
  20703553.1724    4664911.20043   3635135.65342  20703555.1644   20703549.5924
        56.0004         50.0004
  20300762.6494   -5658644.12944  -4402591.85642  20300762.8684   20300757.5524
        58.0004         51.0004
  22967258.8824  -12062512.16643  -9355381.04542  22967260.4034   22967257.8834
        49.0004         42.0004
  23269161.0004   11593245.47343   9023699.37742  23269162.9604   23269158.1344
        50.0004         42.0004
 03 12 17 17 52 30.0000000  0  7G31G29G28G27G 8G 7G13
  22390514.2384    5785809.51643   4506994.30342  22390518.4814   22390512.8214
        51.0004         44.0004
  23379033.6804  -10287886.24743  -7960700.19142  23379036.3794   23379031.7514
        48.0004         42.0004
  21128745.2374   -6626477.81444  -5161338.41642  21128746.7634   21128740.6254
        57.0004         50.0004
  20707084.2844    4683465.44543   3649593.48142  20707085.4764   20707080.6524
        56.0004         50.0004
  20295774.5694   -5684856.47144  -4423017.06742  20295774.8194   20295769.7634
        58.0004         51.0004
  22948582.7964  -12160653.63143  -9431854.85942  22948583.5344   22948580.3994
        49.0004         42.0004
  23289682.6874   11701087.29743   9107731.88642  23289683.4684   23289679.8084
        49.0004         42.0004
 03 12 17 17 53  0.0000000  0  7G31G29G28G27G 8G 7G13
  22405787.3914    5866060.28943   4569527.31042  22405787.7574   22405783.2334
        51.0004         44.0004
  23363289.4204  -10370622.64943  -8025170.10942  23363291.0334   23363285.7294
        49.0004         42.0004
  21123401.6424   -6654558.27744  -5183219.29542  21123403.0644   21123396.9044
        57.0004         50.0004
  20710674.4694    4702332.49443   3664295.05442  20710675.9114   20710670.9094
        56.0004         50.0004
  20290840.2074   -5710787.39544  -4443222.98942  20290840.5284   20290835.2184
        58.0004         51.0004
  22929943.5334  -12258603.65643  -9508179.49642  22929944.6994   22929942.0614
        49.0004         42.0004
  23310238.2864   11809109.57743   9191904.99442  23310240.8584   23310236.6744
        49.0004         42.0004
 03 12 17 17 53 30.0000000  0  7G31G29G28G27G 8G 7G13
  22421138.1514    5946739.07143   4632393.79442  22421142.7164   22421136.6004
        51.0004         44.0004
  23347606.5914  -10453037.03143  -8089389.09842  23347607.6204   23347603.3334
        49.0004         43.0004
  21118111.4404   -6682358.43744  -5204881.75342  21118113.2144   21118107.1284
        57.0004         50.0004
  20714324.3014    4721512.59343   3679240.55542  20714325.8074   20714320.8514
        56.0004         50.0004
  20285959.6224   -5736436.01644  -4463208.94242  20285959.5504   20285954.4344
        58.0004         51.0004
  22911340.6844  -12356360.59143  -9584353.66542  22911342.7084   22911338.7664
        49.0004         43.0004
  23330828.4624   11917308.82343   9276216.01642  23330831.0854   23330826.2604
        50.0004         42.0004
 03 12 17 17 54  0.0000000  0  7G31G29G28G27G 8G 7G13
  22436572.7894    6027838.91843   4695588.42742  22436574.1774   22436568.5964
        51.0004         44.0004
  23331984.5414  -10535130.99143  -8153358.40242  23331986.6754   23331982.1654
        49.0004         43.0004
  21112873.5174   -6709883.19744  -5226329.61242  21112875.1874   21112869.2304
        57.0004         50.0004
  20718033.4524    4741002.67043   3694427.60142  20718034.6854   20718029.5644
        56.0004         50.0004
  20281131.8704   -5761805.24544  -4482977.18142  20281132.0734   20281126.8644
        58.0004         51.0004
  22892774.6714  -12453926.15443  -9660378.72142  22892775.7724   22892771.8984
        50.0004         43.0004
  23351450.6724   12025678.48443   9360659.81642  23351452.5794   23351447.5584
        50.0004         42.0004
 03 12 17 17 54 30.0000000  0  7G31G29G28G27G 8G 7G13
  22452085.2494    6109359.98443   4759111.26342  22452085.4504   22452082.3954
        51.0004         44.0004
  23316424.2504  -10616899.40643  -8217074.02242  23316426.0714   23316421.7074
        49.0004         43.0004
  21107688.6924   -6737130.31244  -5247561.12442  21107690.2394   21107684.4384
        57.0004         50.0004
  20721801.7174    4760806.44443   3709859.08142  20721803.3794   20721798.2444
        56.0004         50.0004
  20276358.0504   -5786890.67244  -4502524.27542  20276358.5184   20276353.0974
        58.0004         51.0004
  22874246.3334  -12551295.26243  -9736250.70642  22874247.5804   22874244.3864
        50.0004         43.0004
  23372105.4764   12134218.80543   9445236.60142  23372108.0804   23372103.6404
        49.0004         42.0004
 03 12 17 17 55  0.0000000  0  7G31G29G28G27G 8G 7G13
  22467676.7024    6191298.77543   4822959.60842  22467678.9534   22467674.9624
        50.0004         43.0004
  23300926.7754  -10698340.19843  -8280534.37142  23300928.7584   23300924.5314
        49.0004         43.0004
  21102556.4034   -6764101.04144  -5268577.26842  21102558.0254   21102551.6114
        57.0004         50.0004
  20725630.0744    4780924.17143   3725535.19842  20725631.8244   20725626.7974
        56.0004         50.0004
  20271638.8094   -5811691.85744  -4521849.88542  20271638.9914   20271633.8604
        58.0004         51.0004
  22855755.0724  -12648466.44243  -9811968.47042  22855757.2534   22855753.3364
        50.0004         43.0004
  23392791.7844   12242926.31443   9529943.66642  23392792.9044   23392789.4834
        50.0004         42.0004
 03 12 17 17 55 30.0000000  0  7G31G29G28G27G 8G 7G13
  22483348.2624    6273652.76143   4887131.46542  22483350.9744   22483346.3844
        50.0004         43.0004
  23285491.9894  -10779450.93743  -8343737.53942  23285494.1264   23285489.6764
        49.0004         43.0004
  21097476.5814   -6790795.67544  -5289378.27442  21097478.2714   21097472.0534
        57.0004         50.0004
  20729518.5124    4801356.84043   3741456.72742  20729519.6464   20729515.3504
        56.0004         50.0004
  20266973.7084   -5836207.01344  -4540952.61642  20266973.7864   20266968.5794
        58.0004         51.0004
  22837301.9014  -12745436.91943  -9887529.84742  22837303.0194   22837299.5944
        50.0004         43.0004
  23413509.2844   12351798.72843   9614779.20042  23413513.0274   23413506.3124
        50.0004         42.0004
 03 12 17 17 56  0.0000000  0  7G31G29G28G27G 8G 7G13
  22499099.0574    6356419.16543   4951624.68642  22499100.7814   22499095.8804
        50.0004         43.0004
  23270120.3384  -10860228.95943  -8406681.45442  23270123.0504   23270117.7864
        49.0004         43.0004
  21092449.1094   -6817215.03444  -5309964.78042  21092450.7184   21092444.5864
        57.0004         50.0004
  20733466.7544    4822105.61743   3757624.57042  20733468.3264   20733462.9774
        56.0004         50.0004
  20262363.3784   -5860434.76844  -4559831.39542  20262363.4464   20262357.9354
        58.0004         51.0004
  22818887.6374  -12842204.46543  -9962933.10742  22818888.2664   22818885.9304
        50.0004         43.0004
  23434258.0584   12460833.54343   9699741.30642  23434259.5734   23434256.9434
        49.0004         42.0004
 03 12 17 17 56 30.0000000  0  7G31G29G28G27G 8G 7G13
  22514926.3724    6439594.46543   5016436.54742  22514927.9154   22514924.4414
        49.0004         43.0004
  23254812.1714  -10940672.75443  -8469364.90042  23254814.2474   23254810.2214
        49.0004         43.0004
  21087473.6734   -6843360.55844  -5330337.91342  21087475.5094   21087469.0524
        57.0004         50.0004
  20737475.1304    4843170.46843   3774038.70642  20737476.6444   20737471.5834
        56.0004         50.0004
  20257807.7164   -5884374.61844  -4578485.83542  20257807.8494   20257802.5294
        58.0004         51.0004
  22800512.0524  -12938767.60243 -10038177.07742  22800514.0344   22800510.1104
        50.0004         43.0004
  23455036.6594   12570027.27643   9784827.23242  23455039.2164   23455035.3354
        49.0004         41.0004
 03 12 17 17 57  0.0000000  0  7G31G29G28G27G 8G 7G13
  22530831.2794    6523175.99443   5081564.91042  22530833.2384   22530828.5694
        50.0004         43.0004
  23239568.5044  -11020779.56243  -8531785.79042  23239571.5574   23239567.0864
        50.0004         43.0004
  21082550.3344   -6869232.94844  -5350498.22142  21082552.1464   21082545.7614
        57.0004         50.0004
  20741544.2174    4864552.46243   3790699.96342  20741545.7454   20741540.8974
        56.0004         50.0004
  20253307.2284   -5908025.09844  -4596914.79442  20253307.4724   20253302.1754
        58.0004         51.0004
  22782176.6444  -13035123.95543 -10113259.93042  22782177.8414   22782174.8104
        50.0004         44.0004
  23475845.3854   12679377.59443   9870035.16642  23475847.0374   23475845.1094
        48.0004         41.0004
 03 12 17 17 57 30.0000000  0  7G31G29G28G27G 8G 7G13
  22546813.4014    6607163.79143   5147009.86442  22546816.9644   22546812.1714
        50.0004         43.0004
  23224389.1904  -11100544.27643  -8593940.10742  23224390.2224   23224387.0654
        49.0004         43.0004
  21077679.4974   -6894829.79544  -5370443.81542  21077681.3554   21077674.9084
        57.0004         50.0004
  20745673.9274    4886255.31643   3807611.24042  20745675.5884   20745670.5844
        56.0004         50.0004
  20248862.6204   -5931381.92244  -4615114.92342  20248862.8124   20248857.5984
        58.0004         51.0004
  22763880.3794  -13131268.35543 -10188177.62142  22763882.2814   22763878.2314
        50.0004         44.0004
  23496684.4264   12788884.60743   9955365.22242  23496686.8504   23496683.2194
        49.0004         41.0004
 03 12 17 17 58  0.0000000  0  7G31G29G28G27G 8G 7G13
  22562872.9414    6691550.36643   5212765.56842  22562874.5034   22562869.3684
        51.0004         43.0004
  23209275.2624  -11179969.06143  -8655829.53642  23209276.8674   23209273.2194
        49.0004         43.0004
  21072859.9594   -6920156.52244  -5390178.92542  21072861.7084   21072855.5884
        57.0004         50.0004
  20749864.4674    4908275.24143   3824769.58942  20749865.9224   20749860.8114
        56.0004         50.0004
  20244473.0424   -5954448.59644  -4633088.96642  20244473.1334   20244468.2364
        58.0004         51.0004
  22745624.8364  -13227203.23943 -10262932.05142  22745626.8994   22745622.3534
        50.0004         44.0004
  23517550.8774   12898540.83843  10040811.52942  23517553.2074   23517548.9204
        48.0004         41.0004
 03 12 17 17 58 30.0000000  0  7G31G29G28G27G 8G 7G13
  22579006.0964    6776333.97943   5278830.63042  22579009.2254   22579004.6644
        51.0004         43.0004
  23194226.8394  -11259050.20543  -8717451.20142  23194228.4694   23194225.5644
        49.0004         43.0004
  21068091.8264   -6945212.68944  -5409703.21442  21068093.4564   21068087.3714
        57.0004         50.0004
  20754115.4004    4930614.22643   3842176.55842  20754116.7354   20754111.5524
        56.0004         50.0004
  20240139.3794   -5977222.42244  -4650834.81242  20240139.3154   20240134.4274
        58.0004         51.0004
  22727409.5054  -13322925.22043 -10337520.58942  22727411.3614   22727407.7944
        50.0004         44.0004
  23538446.2064   13008344.97843  10126373.08842  23538447.9324   23538443.8424
        48.0004         41.0004
 03 12 17 17 59  0.0000000  0  8G31G29G28G27G 8G11G 7G13
  22595216.6754    6861515.81243   5345206.01342  22595218.3064   22595214.6364
        51.0004         43.0004
  23179244.9564  -11337781.66743  -8778800.38142  23179247.3574   23179242.8594
        50.0004         43.0004
  21063375.8344   -6969995.07944  -5429014.17342  21063377.6504   21063371.5604
        57.0004         50.0004
  20758427.9944    4953277.16743   3859835.95642  20758429.5464   20758424.5784
        56.0004         50.0004
  20235862.3984   -5999698.28644  -4668348.48442  20235862.6214   20235857.3464
        58.0004         51.0004
  24086104.5604   -9224786.90753  -7178056.98852  24086106.4184   24086104.8514
        46.0004         39.0004
  22709236.0984  -13418427.86643 -10411938.22042  22709238.2224   22709234.6564
        51.0004         44.0004
  23559369.4504   13118298.30343  10212050.89042  23559371.8894   23559366.4524
        48.0004         40.0004
 03 12 17 17 59 30.0000000  0  8G31G29G28G27G 8G11G 7G13
  22611500.1804    6947089.29243   5411886.54942  22611502.0954   22611498.6494
        51.0004         43.0004
  23164329.2134  -11416164.48343  -8839877.88242  23164331.4644   23164327.0774
        50.0004         43.0004
  21058711.4614   -6994508.08844  -5448115.22142  21058712.9344   21058706.7024
        57.0004         50.0004
  20762801.4154    4976261.00643   3877745.41142  20762803.3164   20762798.1174
        56.0004         50.0004
  20231642.0754   -6021878.33744  -4685631.64942  20231641.9114   20231636.8434
        58.0004         51.0004
  24076226.1784   -9276695.54943  -7218505.25042  24076227.8314   24076223.4454
        45.0004         39.0004
  22691103.8774  -13513712.89543 -10486186.26842  22691106.3854   22691103.4154
        51.0004         44.0004
  23580320.3284   13228394.31643  10297839.88342  23580323.1454   23580317.3874
        48.0004         40.0004
 03 12 17 18  0  0.0000000  0  8G31G29G28G27G 8G11G 7G13
  22627859.9754    7033052.94543   5478871.12242  22627860.9954   22627857.0994
        51.0004         43.0004
  23149480.1714  -11494194.92543  -8900680.80542  23149482.7434   23149478.3844
        50.0004         43.0004
  21054098.0564   -7018750.89444  -5467005.72242  21054099.8424   21054093.4654
        57.0004         50.0004
  20767236.8844    4999568.26743   3895906.88142  20767238.4264   20767233.5644
        56.0004         50.0004
  20227477.7694   -6043760.13544  -4702682.40942  20227477.7554   20227472.7234
        58.0004         51.0004
  24066395.2104   -9328355.15043  -7258759.45942  24066397.6084   24066396.3464
        45.0004         39.0004
  22673013.8474  -13608776.78943 -10560261.99642  22673014.5834   22673011.7544
        51.0004         44.0004
  23601297.8474   13338631.89143  10383739.17642  23601298.3144   23601295.1104
        48.0004         40.0004
 03 12 17 18  0 30.0000000  0  8G31G29G28G27G 8G11G 7G13
  22644290.3664    7119403.21143   5546156.93842  22644292.5254   22644288.8204
        50.0004         43.0004
  23134698.4204  -11571871.50243  -8961207.98742  23134700.5634   23134695.5784
        50.0004         43.0004
  21049535.7774   -7042725.37644  -5485687.13942  21049537.4574   21049531.4164
        57.0004         50.0004
  20771733.5934    5023198.65343   3914320.13842  20771735.3634   20771730.3034
        56.0004         50.0004
  20223370.5664   -6065342.99744  -4719500.23642  20223370.6054   20223365.6014
        58.0004         51.0004
  24056614.0724   -9379763.81843  -7298818.12942  24056615.3264   24056609.9024
        45.0004         39.0004
  22654966.1324  -13703618.08443 -10634164.26042  22654968.6774   22654964.1834
        51.0004         44.0004
  23622302.3064   13449007.45643  10469745.99242  23622304.2134   23622298.0794
        49.0004         40.0004
 03 12 17 18  1  0.0000000  0  8G31G29G28G27G 8G11G 7G13
  22660796.0714    7206137.58843   5613742.08042  22660797.4454   22660793.4994
        50.0004         43.0004
  23119985.1574  -11649191.13843  -9021457.04442  23119987.1074   23119982.0944
        50.0004         43.0004
  21045024.7234   -7066431.56344  -5504159.49842  21045026.3334   21045020.1674
        57.0004         50.0004
  20776291.8804    5047153.59943   3932986.29642  20776293.6284   20776288.8144
        56.0004         50.0004
  20219320.8844   -6086624.79644  -4736083.46842  20219320.8814   20219315.8024
        58.0004         51.0004
  24046877.1764   -9430918.38143  -7338678.82742  24046878.9474   24046877.0094
        44.0004         39.0004
  22636961.5884  -13798233.88143 -10707890.83542  22636963.2084   22636958.6324
        51.0004         44.0004
  23643331.4404   13559519.28343  10555858.99642  23643334.7094   23643329.2204
        48.0004         40.0004
 03 12 17 18  1 30.0000000  0  8G31G29G28G27G 8G11G 7G13
  22677372.7964    7293254.07943   5681624.94642  22677374.7984   22677370.8964
        50.0004         43.0004
  23105340.4304  -11726150.80543  -9081425.61142  23105342.2724   23105338.0904
        50.0004         43.0004
  21040564.6994   -7089869.32544  -5522422.69242  21040566.1314   21040560.2804
        57.0004         50.0004
  20780913.0004    5071434.61343   3951906.53542  20780914.2244   20780909.2714
        56.0004         50.0004
  20215328.5104   -6107603.90644  -4752430.83542  20215328.6264   20215323.6854
        58.0004         51.0004
  24037194.3654   -9481815.48043  -7378338.88142  24037196.7154   24037191.8894
        45.0004         39.0004
  22618999.7964  -13892621.27643 -10781439.41342  22619001.8344   22618998.2254
        51.0004         44.0004
  23664386.9594   13670164.88343  10642076.23142  23664389.8314   23664384.2244
        48.0004         40.0004
 03 12 17 18  2  0.0000000  0  8G31G29G28G27G 8G11G 7G13
  22694024.0864    7380750.04143   5749803.54842  22694024.7624   22694019.4614
        49.0004         43.0004
  23090764.2774  -11802747.85143  -9141111.60542  23090766.0054   23090762.4844
        50.0004         43.0004
  21036155.6724   -7113039.08844  -5540477.05942  21036157.4124   21036151.1444
        57.0004         50.0004
  20785595.5614    5096043.05043   3971081.90242  20785597.1794   20785592.3024
        56.0004         50.0004
  20211394.4634   -6128278.27144  -4768540.74242  20211394.5474   20211389.3744
        58.0004         51.0004
  24027558.3324   -9532452.20843  -7417796.07942  24027558.7634   24027557.3024
        45.0004         39.0004
  22601082.4524  -13986777.76443 -10854808.06942  22601084.1774   22601080.0174
        51.0004         44.0004
  23685467.1684   13780942.22143  10728396.14642  23685468.0814   23685462.2424
        48.0004         40.0004
 03 12 17 18  2 30.0000000  0  8G31G29G28G27G 8G11G 7G13
  22710743.2804    7468620.82643   5818274.12042  22710746.9964   22710741.4094
        50.0004         43.0004
  23076257.9584  -11878981.64143  -9200514.53442  23076258.7214   23076254.7664
        50.0004         43.0004
  21031797.0404   -7135943.56544  -5558324.70942  21031798.7944   21031792.4924
        57.0004         50.0004
  20790340.5874    5120977.60943   3990511.39042  20790341.7184   20790336.8714
        56.0004         50.0004
  20207518.2274   -6148648.58744  -4784413.72742  20207518.3834   20207512.9784
        58.0004         51.0004
  24017972.0534   -9582827.76443  -7457049.75342  24017973.4534   24017968.1244
        46.0004         39.0004
  22583209.2724  -14080703.08843 -10927996.58142  22583210.4014   22583206.6344
        51.0004         44.0004
  23706571.4564   13891846.76643  10814815.15642  23706573.5544   23706570.1074
        48.0004         40.0004
 03 12 17 18  3  0.0000000  0  8G31G29G28G27G 8G11G 7G13
  22727538.3064    7556865.19343   5887035.89442  22727538.8494   22727533.8964
        50.0004         43.0004
  23061820.7974  -11954848.03243  -9259631.20142  23061822.6314   23061818.8474
        49.0004         43.0004
  21027489.2524   -7158581.64844  -5575964.77742  21027490.8844   21027484.7384
        57.0004         50.0004
  20795148.2464    5146240.81843   4010196.97442  20795149.4274   20795144.7364
        56.0004         50.0004
  20203700.4664   -6168711.84944  -4800047.44442  20203700.6134   20203695.4374
        58.0004         51.0004
  24008433.6774   -9632937.75243  -7496096.49542  24008437.0724   24008435.0934
        44.0004         39.0004
  22565380.2634  -14174393.24643 -11001001.86042  22565382.0774   22565378.6484
        51.0004         44.0004
  23727699.9514   14002877.56943  10901332.54842  23727703.0134   23727699.2974
        47.0004         40.0004
 03 12 17 18  3 30.0000000  0  8G31G29G28G27G 8G11G 7G13
  22744399.3884    7645479.12843   5956085.62942  22744400.5674   22744398.4584
        48.0004         43.0004
  23047453.9074  -12030346.13343  -9318460.87242  23047455.9144   23047451.8884
        50.0004         43.0004
  21023231.6824   -7180955.46044  -5593398.92242  21023233.4504   21023227.3504
        57.0004         50.0004
  20800017.8104    5171832.34543   4030138.39042  20800019.3324   20800014.5354
        56.0004         49.0004
  20199940.8394   -6188467.78944  -4815441.68942  20199940.9834   20199935.7534
        58.0004         51.0004
  23998953.1764   -9682780.94043  -7534935.36742  23998954.6074   23998950.5394
        46.0004         39.0004
  22547596.5104  -14267847.32343 -11073823.18242  22547599.1344   22547594.9594
        51.0004         44.0004
  23748852.4034   14114030.83743  10987945.35842  23748853.9494   23748849.2274
        48.0004         40.0004
 03 12 17 18  4  0.0000000  0  8G31G29G28G27G 8G11G 7G13
  22761333.1424    7734462.18843   6025422.93642  22761334.9474   22761331.1074
        50.0004         43.0004
  23033158.3274  -12105470.89843  -9376999.64142  23033159.3124   23033155.1634
        50.0004         43.0004
  21019024.8284   -7203063.00044  -5610625.58442  21019026.2974   21019020.1994
        57.0004         50.0004
  20804950.7094    5197755.39243   4050338.12642  20804952.5804   20804947.5014
        56.0004         49.0004
  20196240.8044   -6207912.63544  -4830593.52542  20196240.8664   20196235.7124
        58.0004         51.0004
  23989518.9174   -9732352.13643  -7573562.24042  23989520.9504   23989515.2724
        47.0004         39.0004
  22529858.8624  -14361060.62843 -11146456.89442  22529860.0804   22529856.9674
        51.0004         44.0004
  23770027.2224   14225306.57243  11074653.60642  23770030.0654   23770025.4904
        47.0004         40.0004
 03 12 17 18  4 30.0000000  0  8G31G29G28G27G 8G11G 7G13
  22778335.7734    7823808.86743   6095043.62942  22778336.5094   22778333.5634
        50.0004         43.0004
  23018933.2854  -12180222.73143  -9435247.81442  23018935.2714   23018930.6754
        50.0004         44.0004
  21014867.8174   -7224907.81444  -5627647.51842  21014869.3034   21014863.1944
        57.0004         50.0004
  20809946.8144    5224008.07443   4070794.72942  20809948.0584   20809943.1214
        56.0004         49.0004
  20192599.4474   -6227047.95344  -4845504.17442  20192599.7694   20192594.4454
        58.0004         51.0004
  23980136.5284   -9781651.63543  -7611977.46042  23980139.1884   23980136.1284
        47.0004         39.0004
  22512166.2964  -14454033.46643 -11218903.21542  22512167.9774   22512164.7474
        51.0004         44.0004
  23791224.4524   14336699.20243  11161452.93442  23791226.2024   23791224.0044
        47.0004         40.0004
 03 12 17 18  5  0.0000000  0  8G31G29G28G27G 8G11G 7G13
  22795404.8104    7913516.36543   6164945.44542  22795407.5614   22795405.0064
        48.0004         43.0004
  23004780.4164  -12254599.14543  -9493203.46542  23004783.3144   23004777.7774
        50.0004         44.0004
  21010760.7484   -7246490.38544  -5644465.11042  21010762.4634   21010756.0604
        57.0004         50.0004
  20815005.3964    5250591.21943   4091508.83642  20815007.0824   20815001.7934
        56.0004         49.0004
  20189017.2144   -6245871.96544  -4860172.24442  20189017.1784   20189012.1074
        58.0004         51.0004
  23970806.6644   -9830676.72343  -7650178.78242  23970806.6194   23970806.3244
        47.0004         39.0004
  22494520.4634  -14546763.85643 -11291160.61842  22494522.5434   22494518.8394
        51.0004         45.0004
  23812444.2934   14448206.19243  11248341.35142  23812445.7354   23812441.1334
        47.0004         40.0004
 03 12 17 18  5 30.0000000  0  9G26G31G29G28G27G 8G11G 7G13
  23838399.4274   -4405897.43653  -3427773.16852  23838401.0104   23838395.9764
        46.0004         40.0004
  22812546.3424    8003582.71543   6235126.93142  22812546.6554   22812545.3444
        49.0004         43.0004
  22990698.7284  -12328596.87343  -9550864.02542  22990701.1284   22990696.2754
        50.0004         44.0004
  21006703.6964   -7267810.77344  -5661078.40242  21006705.4564   21006698.9174
        57.0004         50.0004
  20820126.9954    5277506.60043   4112481.82842  20820128.5964   20820123.6234
        56.0004         49.0004
  20185494.7184   -6264382.37644  -4874595.95442  20185494.8204   20185489.9604
        58.0004         51.0004
  23961530.1734   -9879423.83643  -7688163.52642  23961533.4104   23961530.3934
        47.0004         39.0004
  22476921.3244  -14639248.49643 -11363226.52642  22476922.5574   22476919.7694
        51.0004         44.0004
  23833684.5674   14559825.92143  11335317.63742  23833687.0134   23833682.5624
        47.0004         40.0004
 03 12 17 18  6  0.0000000  0  9G26G31G29G28G27G 8G11G 7G13
  23821523.3704   -4494585.34143  -3496880.57342  23821525.6524   23821519.1364
        47.0004         41.0004
  22829752.7914    8094007.82443   6305587.96942  22829752.5734   22829750.0184
        48.0004         42.0004
  22976690.6224  -12402210.72243  -9608225.44942  22976692.7874   22976688.2364
        50.0004         44.0004
  21002696.7894   -7288866.77444  -5677485.68142  21002698.6144   21002692.3494
        57.0004         50.0004
  20825312.9914    5304757.74943   4133716.45742  20825314.3184   20825309.1864
        56.0004         49.0004
  20182033.0804   -6282575.14844  -4888772.15342  20182033.0174   20182027.9234
        58.0004         51.0004
  23952309.1674   -9927887.51543  -7725927.40942  23952310.3374   23952305.9674
        46.0004         39.0004
  22459369.5244  -14731482.34443 -11435097.02142  22459371.5814   22459367.2764
        51.0004         44.0004
  23854946.8044   14671558.51043  11422381.86642  23854947.8434   23854947.0554
        47.0004         40.0004
 03 12 17 18  6 30.0000000  0  9G26G31G29G28G27G 8G11G 7G13
  23804705.6114   -4582963.20143  -3565746.40942  23804707.4934   23804701.7214
        48.0004         41.0004
  22847026.5274    8184782.69743   6376321.50642  22847028.8314   22847023.8304
        49.0004         42.0004
  22962754.5174  -12475444.57943  -9665290.79842  22962757.5634   22962752.1044
        50.0004         44.0004
  20998738.9844   -7309665.44544  -5693692.44442  20998740.5024   20998734.1974
        57.0004         50.0004
  20830561.6344    5332339.22443   4155208.47842  20830563.1774   20830557.9524
        56.0004         49.0004
  20178630.4704   -6300454.96944  -4902704.49142  20178630.7074   20178625.5934
        58.0004         51.0004
  23943139.1824   -9976071.18543  -7763473.10842  23943140.9334   23943138.4724
        46.0004         39.0004
  22441865.0894  -14823469.50843 -11506775.29342  22441866.0284   22441863.3324
        52.0004         45.0004
  23876227.9354   14783395.10143  11509527.12342  23876231.5664   23876226.6104
        46.0004         40.0004
 03 12 17 18  7  0.0000000  0  9G26G31G29G28G27G 8G11G 7G13
  23787947.5034   -4671022.38543  -3634363.90642  23787949.7784   23787947.9794
        48.0004         41.0004
  22864368.3784    8275910.54643   6447330.11942  22864371.3904   22864365.6654
        51.0004         42.0004
  22948892.5294  -12548289.88643  -9722053.35842  22948894.4424   22948890.0964
        51.0004         44.0004
  20994831.2284   -7330201.23344  -5709694.36042  20994832.8794   20994826.6594
        57.0004         50.0004
  20835874.1924    5360257.89843   4176963.25742  20835875.8034   20835870.7814
        56.0004         49.0004
  20175289.0284   -6318014.51444  -4916387.26842  20175289.0094   20175283.8544
        58.0004         51.0004
  23934024.9814  -10023966.33643  -7800793.96542  23934027.4504   23934024.1174
        46.0004         39.0004
  22424409.0874  -14915201.61543 -11578254.80542  22424410.6124   22424407.3104
        52.0004         45.0004
  23897530.7014   14895339.26943  11596756.20242  23897533.4374   23897530.6374
        46.0004         40.0004
 03 12 17 18  7 30.0000000  0  9G26G31G29G28G27G 8G11G 7G13
  23771251.2514   -4758765.48343  -3702735.11542  23771253.2464   23771251.0174
        47.0004         41.0004
  22881773.2454    8367383.39343   6518607.59442  22881777.1054   22881772.0304
        48.0004         42.0004
  22935104.3374  -12620749.38543  -9778515.31642  22935105.4254   22935101.7144
        51.0004         44.0004
  20990972.2464   -7350479.93744  -5725495.95542  20990973.9744   20990967.8664
        57.0004         50.0004
  20841250.7134    5388509.57143   4198977.51942  20841251.6944   20841246.9604
        56.0004         49.0004
  20172007.8494   -6335257.33844  -4929823.24242  20172007.9494   20172002.9014
        58.0004         51.0004
  23924965.8944  -10071575.62543  -7837892.06042  23924966.8694   23924963.6404
        47.0004         39.0004
  22407000.7704  -15006681.52743 -11649537.80542  22407002.2384   22406998.6454
        52.0004         45.0004
  23918851.7024   15007383.46743  11684063.24342  23918853.8504   23918850.5234
        46.0004         40.0004
 03 12 17 18  8  0.0000000  0  9G26G31G29G28G27G 8G11G 7G13
  23754615.6294   -4846183.79743  -3770853.24542  23754618.2474   23754614.7894
        48.0004         41.0004
  22899248.7704    8459204.20443   6590156.20342  22899249.7594   22899245.9844
        50.0004         42.0004
  22921390.6684  -12692814.92743  -9834670.29042  22921391.9944   22921389.3344
        51.0004         44.0004
  20987163.2264   -7370496.28344  -5741093.11942  20987164.7814   20987158.9224
        57.0004         50.0004
  20846691.2004    5417100.84343   4221256.39542  20846692.7924   20846688.2074
        56.0004         49.0004
  20168788.2054   -6352176.24544  -4943006.81342  20168788.4524   20168783.3234
        58.0004         51.0004
  23915961.1374  -10118890.36743  -7874760.64042  23915962.3894   23915958.5044
        45.0004         38.0004
  22389642.1694  -15097901.37443 -11720618.14842  22389643.2674   22389640.0644
        51.0004         45.0004
  23940192.8404   15119530.80143  11771450.63742  23940196.0064   23940191.6304
        46.0004         40.0004
 03 12 17 18  8 30.0000000  0  9G26G31G29G28G27G 8G11G 7G13
  23738041.5274   -4933279.87943  -3838720.27542  23738044.2384   23738040.5754
        48.0004         41.0004
  22916785.5504    8551365.12943   6661969.81842  22916785.7104   22916781.4104
        50.0004         42.0004
  22907751.1764  -12764489.09543  -9890520.30042  22907753.5034   22907748.4304
        51.0004         44.0004
  20983403.1324   -7390256.24144  -5756490.50242  20983404.8514   20983398.5354
        57.0004         51.0004
  20852195.6074    5446027.26543   4243796.43242  20852196.8334   20852192.4354
        56.0004         49.0004
  20165629.4554   -6368774.95944  -4955940.88042  20165629.7064   20165624.7494
        58.0004         51.0004
  23907014.8504  -10165913.25343  -7911401.79542  23907015.8364   23907013.6654
        47.0004         39.0004
  22372332.7274  -15188863.89443 -11791497.97642  22372333.9694   22372330.7144
        52.0004         45.0004
  23961552.7524   15231773.77143  11858912.54942  23961554.7854   23961551.6204
        46.0004         39.0004
 03 12 17 18  9  0.0000000  0  9G26G31G29G28G27G 8G11G 7G13
  23721531.2354   -5020041.86043  -3906326.96842  23721531.9934   23721528.4354
        46.0004         41.0004
  22934389.9714    8643872.52343   6734053.39942  22934391.4654   22934387.4594
        51.0004         42.0004
  22894189.1224  -12835760.57443  -9946056.53142  22894192.3044   22894186.3794
        51.0004         44.0004
  20979693.2464   -7409751.20244  -5771681.39642  20979695.2324   20979688.7844
        57.0004         51.0004
  20857765.9744    5475298.84543   4266605.41542  20857767.7124   20857762.3594
        56.0004         49.0004
  20162533.9574   -6385042.88244  -4968617.19742  20162534.1474   20162529.0154
        58.0004         51.0004
  23898123.0734  -10212632.60843  -7947806.39542  23898126.9224   23898122.3774
        47.0004         39.0004
  22355074.1894  -15279557.60743 -11862168.35242  22355075.6534   22355072.7964
        52.0004         45.0004
  23982931.3674   15344118.97043  11946454.14342  23982932.3974   23982928.8824
        47.0004         39.0004
 03 12 17 18  9 30.0000000  0  9G26G31G29G28G27G 8G11G 7G13
  23705082.3624   -5106481.12043  -3973682.21142  23705082.7164   23705080.1424
        47.0004         40.0004
  22952055.3884    8736709.64543   6806393.94642  22952056.5394   22952051.5654
        48.0004         42.0004
  22880700.7264  -12906640.77843 -10001287.87042  22880703.1184   22880699.1484
        51.0004         44.0004
  20976031.2054   -7428995.80744  -5786677.20942  20976033.0654   20976026.6824
        57.0004         51.0004
  20863399.5204    5504902.60943   4289673.24042  20863400.8464   20863396.2004
        56.0004         49.0004
  20159498.9594   -6400992.48244  -4981045.46742  20159498.9974   20159493.9514
        58.0004         51.0004
  23889288.5584  -10259059.46443  -7983983.10742  23889289.7304   23889287.5404
        46.0004         38.0004
  22337864.8214  -15369994.43343 -11932638.56142  22337865.7824   22337862.7184
        52.0004         45.0004
  24004326.5394   15456550.01443  12034062.61042  24004327.3434   24004325.1304
        48.0004         39.0004
 03 12 17 18 10  0.0000000  0  9G26G31G29G28G27G 8G11G 7G13
  23688696.6614   -5192590.53943  -4040780.44442  23688698.5044   23688694.2094
        47.0004         40.0004
  22969784.0284    8829877.84943   6878992.41142  22969785.3744   22969781.8424
        48.0004         42.0004
  22867288.6244  -12977123.28143 -10056209.31542  22867291.4414   22867286.5224
        51.0004         44.0004
  20972417.5534   -7447986.59044  -5801475.23842  20972419.3954   20972412.8884
        57.0004         51.0004
  20869097.7194    5534843.21943   4313003.54742  20869098.3914   20869093.8964
        56.0004         49.0004
  20156525.4304   -6416618.20144  -4993221.36242  20156525.3544   20156520.4004
        58.0004         51.0004
  23880508.5924  -10305187.29543  -8019926.81142  23880510.7154   23880509.1854
        45.0004         38.0004
  22320705.2714  -15460167.95143 -12002903.58542  22320706.4204   22320703.0814
        52.0004         45.0004
  24025737.9274   15569067.95143  12121738.80142  24025740.9174   24025737.2684
        48.0004         39.0004
 03 12 17 18 10 30.0000000  0  9G26G31G29G28G27G 8G11G 7G13
  23672373.7764   -5278363.76743  -4107616.67042  23672377.1894   23672373.6584
        47.0004         40.0004
  22987576.7404    8923378.15843   6951849.67742  22987579.6134   22987575.8324
        49.0004         42.0004
  22853952.9744  -13047201.66143 -10110815.85942  22853955.4074   22853950.9674
        51.0004         44.0004
  20968852.6084   -7466720.30244  -5816072.95042  20968854.2404   20968848.0274
        57.0004         51.0004
  20874859.7294    5565125.56643   4336600.13542  20874861.0814   20874856.5234
        56.0004         49.0004
  20153614.5904   -6431914.57444  -5005140.62942  20153614.8014   20153609.6834
        58.0004         51.0004
  23871791.3684  -10351009.40043  -8055632.30742  23871793.4414   23871787.5814
        46.0004         38.0004
  22303596.9644  -15550071.86543 -12072958.53742  22303598.5704   22303595.5884
        52.0004         45.0004
  24047166.1914   15681674.57143  12209484.06842  24047169.9604   24047164.2504
        47.0004         39.0004
 03 12 17 18 11  0.0000000  0  9G26G31G29G28G27G 8G11G 7G13
  23656114.8804   -5363800.43443  -4174190.66442  23656116.1714   23656113.6144
        46.0004         39.0004
  23005431.7094    9017205.35443   7024961.62142  23005434.8894   23005428.8604
        50.0004         42.0004
  22840694.4634  -13116876.08543 -10165107.64242  22840696.5184   22840692.2824
        51.0004         44.0004
  20965336.2264   -7485199.86744  -5830472.62942  20965337.4884   20965331.4594
        57.0004         51.0004
  20880686.9694    5595747.93543   4360461.67942  20880688.3584   20880683.8324
        56.0004         49.0004
  20150766.1874   -6446882.67544  -5016804.09942  20150766.2984   20150761.3134
        58.0004         51.0004
  23863129.2104  -10396525.65143  -8091099.43542  23863133.0684   23863127.5174
        46.0004         39.0004
  22286539.8404  -15639706.60343 -12142803.74542  22286541.4374   22286538.2104
        52.0004         45.0004
  24068610.7054   15794364.93943  12297294.62342  24068613.9574   24068606.5314
        48.0004         39.0004
 03 12 17 18 11 30.0000000  0  9G26G31G29G28G27G 8G11G 7G13
  23639922.2484   -5448897.73243  -4240500.21742  23639923.3074   23639920.8544
        46.0004         39.0004
  23023349.4464    9111356.74043   7098326.23842  23023350.8034   23023347.6714
        51.0004         42.0004
  22827513.3004  -13186144.02943 -10219082.68742  22827515.9794   22827511.6244
        51.0004         44.0004
  20961867.8264   -7503426.03344  -5844674.85442  20961869.7034   20961863.3414
        57.0004         51.0004
  20886579.3584    5626711.32543   4384588.95242  20886580.5394   20886575.6104
        56.0004         49.0004
  20147980.6964   -6461521.00844  -5028210.60842  20147980.7624   20147975.7874
        58.0004         51.0004
  23854525.2164  -10441733.43843  -8126326.24042  23854528.8814   23854524.3104
        46.0004         39.0004
  22269534.7884  -15729069.69643 -12212437.29542  22269536.1564   22269533.2304
        53.0004         45.0004
  24090070.3624   15907136.69343  12385168.60042  24090073.4584   24090070.1214
        48.0004         39.0004
 03 12 17 18 12  0.0000000  0  9G26G31G29G28G27G 8G11G 7G13
  23623794.5394   -5533651.82143  -4306542.32042  23623796.4684   23623791.5594
        47.0004         39.0004
  23041326.1724    9205830.80543   7171942.26142  23041329.1014   23041325.4224
        49.0004         42.0004
  22814410.3584  -13255001.94943 -10272738.23742  22814412.0304   22814407.5574
        51.0004         44.0004
  20958447.7044   -7521398.00744  -5858679.00542  20958449.4034   20958443.2714
        57.0004         51.0004
  20892536.4354    5658017.53743   4408983.35342  20892537.7634   20892533.2614
        56.0004         49.0004
  20145258.3834   -6475826.76244  -5039357.96642  20145258.6544   20145253.3194
        58.0004         51.0004
  23845984.4754  -10486628.87743  -8161309.66242  23845986.1264   23845980.1404
        48.0004         39.0004
  22252581.8734  -15818157.90643 -12281856.64042  22252583.5654   22252579.5534
        52.0004         45.0004
  24111545.8614   16019988.35443  12473104.82842  24111548.3434   24111543.8914
        47.0004         39.0004
 03 12 17 18 12 30.0000000  0  9G26G31G29G28G27G 8G11G 7G13
  23607730.2914   -5618062.38243  -4372316.76742  23607732.7074   23607728.4304
        46.0004         39.0004
  23059365.8004    9300622.29943   7245805.64542  23059368.7054   23059362.1104
        50.0004         42.0004
  22801385.2224  -13323449.77943 -10326074.22442  22801387.2024   22801381.8464
        51.0004         44.0004
  20955075.6584   -7539118.79844  -5872487.43142  20955077.3824   20955071.1294
        57.0004         51.0004
  20898558.2574    5689665.14243   4433643.79042  20898560.2094   20898555.7674
        55.0004         49.0004
  20142599.1584   -6489801.02244  -5050247.01542  20142599.3014   20142594.3724
        57.0004         51.0004
  23837498.7964  -10531211.97643  -8196049.68342  23837502.0764   23837496.9444
        47.0004         39.0004
  22235681.1374  -15906971.26943 -12351061.82442  22235682.5844   22235678.5224
        52.0004         46.0004
  24133034.5864   16132915.35643  12561099.74942  24133037.3214   24133035.8794
        47.0004         39.0004
 03 12 17 18 13  0.0000000  0  9G26G31G29G28G27G 8G11G 7G13
  23591734.5154   -5702125.44843  -4437820.43942  23591738.0144   23591735.9014
        46.0004         39.0004
  23077463.7654    9395729.79043   7319915.26942  23077464.4044   23077462.3184
        49.0004         41.0004
  22788438.2924  -13391484.01443 -10379087.93942  22788440.6554   22788436.0974
        51.0004         44.0004
  20951751.3094   -7556588.02044  -5886099.82942  20951753.1944   20951746.6894
        57.0004         51.0004
  20904646.2774    5721656.06343   4458571.73942  20904647.8884   20904643.2334
        56.0004         49.0004
  20140003.7024   -6503440.92244  -5060875.53242  20140003.7544   20139998.6694
        58.0004         51.0004
  23829075.2044  -10575478.69143  -8230543.21042  23829079.1514   23829073.1944
        46.0004         39.0004
  22218833.6134  -15995506.34943 -12420050.17542  22218834.5994   22218831.1904
        53.0004         46.0004
  24154538.3074   16245916.38943  12649152.36642  24154540.7804   24154535.3044
        46.0004         39.0004
 03 12 17 18 13 30.0000000  0  9G26G31G29G28G27G 8G11G 7G13
  23575804.8744   -5785836.93743  -4503050.14342  23575806.8224   23575802.5044
        46.0004         39.0004
  23095620.0394    9491151.84343   7394269.98142  23095624.8104   23095620.0074
        48.0004         41.0004
  22775571.4714  -13459100.93843 -10431776.46942  22775573.6504   22775568.4294
        51.0004         44.0004
  20948475.0864   -7573804.93844  -5899515.62942  20948476.7604   20948470.4084
        57.0004         51.0004
  20910800.0934    5753992.36843   4483768.81842  20910801.6024   20910797.0924
        56.0004         49.0004
  20137472.3664   -6516743.57744  -5071241.25942  20137472.2924   20137467.5234
        58.0004         51.0004
  23820712.1714  -10619424.91643  -8264786.98542  23820714.4094   23820711.4894
        47.0004         39.0004
  22202039.2834  -16083759.51443 -12488818.85442  22202040.7494   22202036.8124
        52.0004         45.0004
  24176055.8894   16358990.29643  12737261.77242  24176058.3084   24176055.1204
        46.0004         39.0004
 03 12 17 18 14  0.0000000  0  9G26G31G29G28G27G 8G11G 7G13
  23559942.2004   -5869196.71643  -4568005.78942  23559943.5484   23559940.6104
        47.0004         40.0004
  23113839.0484    9586883.19643   7468865.72942  23113840.5364   23113835.1614
        49.0004         41.0004
  22762783.9044  -13526300.58843 -10484139.85342  22762785.8924   22762780.8834
        51.0004         44.0004
  20945246.4484   -7590772.45944  -5912737.09542  20945247.9444   20945241.8014
        57.0004         51.0004
  20917018.8854    5786672.38343   4509233.72542  20917020.4324   20917015.5894
        56.0004         49.0004
  20135004.8774   -6529710.20544  -5081345.15042  20135004.9474   20134999.9394
        58.0004         51.0004
  23812411.1064  -10663050.79543  -8298781.15942  23812412.8404   23812409.0504
        47.0004         39.0004
  22185298.9934  -16171731.05843 -12557368.08642  22185299.6074   22185296.7404
        52.0004         46.0004
  24197585.9384   16472131.78743  12825423.83442  24197587.5844   24197585.0824
        46.0004         38.0004
 03 12 17 18 14 30.0000000  0  9G26G31G29G28G27G 8G11G 7G13
  23544147.0494   -5952200.44943  -4632683.98242  23544147.6254   23544143.7274
        47.0004         40.0004
  23132115.5574    9682922.71243   7543701.60542  23132116.2334   23132111.8134
        49.0004         41.0004
  22750075.8344  -13593079.09743 -10536175.06942  22750077.7344   22750073.6574
        51.0004         44.0004
  20942065.0984   -7607489.54244  -5925763.41742  20942066.8894   20942060.6824
        57.0004         51.0004
  20923303.6354    5819698.51843   4534968.33442  20923304.5134   20923300.1944
        56.0004         49.0004
  20132601.9424   -6542337.59344  -5091184.69842  20132602.1274   20132596.8844
        58.0004         51.0004
  23804171.0404  -10706352.09343  -8332522.40242  23804174.4254   23804170.3664
        47.0004         40.0004
  22168613.0774  -16259417.17643 -12625694.90442  22168614.9244   22168610.4584
        53.0004         46.0004
  24219128.4674   16585340.38443  12913638.16242  24219130.1854   24219127.8224
        44.0004         38.0004
 03 12 17 18 15  0.0000000  0  9G26G31G29G28G27G 8G11G 7G13
  23528419.9624   -6034848.30743  -4697084.88042  23528421.7564   23528415.4194
        47.0004         40.0004
  23150448.8464    9779264.61043   7618773.08742  23150449.7314   23150446.4004
        49.0004         41.0004
  22737448.6964  -13659437.04343 -10587882.58142  22737450.9464   22737445.5364
        51.0004         44.0004
  20938930.9934   -7623959.93444  -5938597.50642  20938932.3714   20938926.6474
        57.0004         51.0004
  20929653.3444    5853068.63243   4560970.98642  20929655.0184   20929650.5494
        56.0004         49.0004
  20130263.3994   -6554627.37544  -5100761.17642  20130263.4144   20130258.4164
        58.0004         51.0004
  23795992.8024  -10749329.31243  -8366011.15842  23795994.5744   23795990.8734
        47.0004         40.0004
  22151980.9574  -16346818.65643 -12693799.92642  22151982.5494   22151978.4004
        53.0004         46.0004
  24240684.2344   16698610.49943  13001900.44642  24240686.3704   24240681.6764
        46.0004         39.0004
 03 12 17 18 15 30.0000000  0  8G26G31G29G28G27G 8G11G 7
  23512760.9164   -6117135.03443  -4761204.37442  23512762.9114   23512760.9664
        47.0004         41.0004
  23168838.8544    9875908.98443   7694080.28242  23168840.8684   23168835.8934
        48.0004         41.0004
  22724901.8004  -13725369.24243 -10639258.32642  22724903.9144   22724899.0724
        51.0004         44.0004
  20935844.1224   -7640181.47844  -5951237.68842  20935845.7964   20935839.7134
        57.0004         51.0004
  20936069.5464    5886786.10443   4587244.30142  20936071.2344   20936066.8764
        55.0004         49.0004
  20127989.7664   -6566575.03444  -5110071.06842  20127989.8064   20127984.8184
        58.0004         51.0004
  23787878.0614  -10791976.76643  -8399242.94442  23787880.4914   23787876.6064
        47.0004         40.0004
  22135404.1644  -16433930.55743 -12761679.30342  22135405.8144   22135401.7974
        53.0004         46.0004
 03 12 17 18 16  0.0000000  0  8G26G31G29G28G27G 8G11G 7
  23497172.3874   -6199057.61143  -4825040.14442  23497173.8184   23497169.3314
        47.0004         41.0004
  23187286.1534    9972853.21843   7769621.13842  23187288.0154   23187285.8374
        47.0004         41.0004
  22712436.9694  -13790873.32243 -10690300.48442  22712438.6414   22712434.0064
        51.0004         44.0004
  20932804.5794   -7656154.70944  -5963684.38142  20932806.2154   20932800.1704
        57.0004         51.0004
  20942552.2014    5920851.82143   4613788.98142  20942553.9484   20942549.6444
        56.0004         49.0004
  20125781.5614   -6578179.15044  -5119113.26242  20125781.7284   20125776.6244
        58.0004         51.0004
  23779825.7134  -10834291.92343  -8432215.80142  23779828.8724   23779823.5904
        48.0004         40.0004
  22118882.7784  -16520750.33443 -12829331.04942  22118884.2474   22118880.0194
        53.0004         46.0004
 03 12 17 18 16 30.0000000  0  8G26G31G29G28G27G 8G11G 7
  23481651.0884   -6280616.79443  -4888592.71542  23481653.7284   23481651.0194
        47.0004         41.0004
  23205789.5034   10070091.23243   7845390.90942  23205791.8524   23205789.2954
        47.0004         41.0004
  22700053.8084  -13855950.21543 -10741009.76542  22700056.5524   22700050.8194
        51.0004         44.0004
  20929811.5204   -7671883.34544  -5975940.47742  20929813.2954   20929807.1674
        57.0004         51.0004
  20949100.7744    5955263.33543   4640603.11442  20949102.3654   20949097.7684
        56.0004         49.0004
  20123638.4974   -6589441.40844  -5127889.07142  20123638.5904   20123633.4794
        58.0004         51.0004
  23771834.6254  -10876275.60443  -8464930.36442  23771837.7964   23771835.4954
        47.0004         40.0004
  22102416.9714  -16607279.21043 -12896756.11742  22102418.4984   22102414.8924
        53.0004         46.0004
 03 12 17 18 17  0.0000000  0  8G26G31G29G28G27G 8G11G 7
  23466202.0594   -6361805.94543  -4951856.96442  23466204.6344   23466199.9574
        48.0004         41.0004
  23224350.9664   10167624.01843   7921390.38642  23224350.8764   23224350.3164
        47.0004         41.0004
  22687752.6874  -13920593.81843 -10791381.41942  22687753.9484   22687749.2674
        51.0004         44.0004
  20926865.7084   -7687364.31444  -5988003.59142  20926867.3134   20926861.0584
        57.0004         51.0004
  20955715.6424    5990025.19943   4667690.24342  20955717.1394   20955712.6184
        55.0004         49.0004
  20121561.3904   -6600356.61344  -5136394.44442  20121561.4934   20121556.4734
        58.0004         51.0004
  23763910.5454  -10917921.59943  -8497381.78242  23763912.2004   23763907.5754
        48.0004         40.0004
  22086007.5984  -16693511.33143 -12963949.94142  22086009.3094   22086005.5714
        53.0004         46.0004
 03 12 17 18 17 30.0000000  0  8G26G31G29G28G27G 8G11G 7
  23450821.5934   -6442624.90243  -5014832.75442  23450822.1164   23450821.2844
        47.0004         41.0004
  23242966.8884   10265446.51543   7997615.59442  23242966.2564   23242963.3584
        48.0004         42.0004
  22675533.5444  -13984804.42843 -10841415.66542  22675535.9404   22675530.9894
        51.0004         44.0004
  20923966.2334   -7702600.66544  -5999876.09042  20923967.9724   20923961.7354
        57.0004         51.0004
  20962396.6454    6025135.59843   4695048.96642  20962398.4184   20962393.7824
        55.0004         49.0004
  20119550.0974   -6610925.86444  -5144630.24042  20119550.4604   20119545.2994
        58.0004         51.0004
  23756050.5794  -10959229.65143  -8529569.89442  23756053.5774   23756047.2844
        48.0004         40.0004
  22069654.3934  -16779446.77943 -13030912.59342  22069655.5234   22069652.5674
        53.0004         46.0004
 03 12 17 18 18  0.0000000  0  8G26G31G29G28G27G 8G11G 7
  23435513.2464   -6523072.44743  -5077519.12042  23435514.8324   23435511.4064
        47.0004         41.0004
  23261635.7064   10363554.59043   8074063.30742  23261637.1554   23261634.2584
        48.0004         42.0004
  22663397.2034  -14048580.93043 -10891111.64042  22663399.8384   22663395.1224
        51.0004         45.0004
  20921112.9664   -7717594.26744  -6011559.43242  20921114.8044   20921108.6874
        57.0004         51.0004
  20969144.8764    6060593.95943   4722678.82942  20969146.0654   20969141.7834
        56.0004         49.0004
  20117604.6154   -6621148.91044  -5152596.26342  20117604.8244   20117599.6634
        58.0004         51.0004
  23748253.1894  -11000198.43243  -8561493.61042  23748253.7224   23748251.6424
        48.0004         41.0004
  22053358.1154  -16865084.83243 -13097643.50142  22053359.5924   22053355.5744
        53.0004         46.0004
 03 12 17 18 18 30.0000000  0  8G26G31G29G28G27G 8G11G 7
  23420276.3774   -6603141.79643  -5139910.78242  23420278.9074   23420276.1964
        48.0004         42.0004
  23280359.9134   10461949.50643   8150734.57442  23280361.2454   23280356.9604
        48.0004         41.0004
  22651344.5444  -14111916.90843 -10940464.35142  22651346.6774   22651342.2134
        51.0004         45.0004
  20918306.6904   -7732341.56544  -6023050.85142  20918308.5354   20918302.3074
        57.0004         51.0004
  20975958.8524    6096405.11843   4750583.59842  20975960.5684   20975955.9394
        55.0004         49.0004
  20115726.4404   -6631020.16844  -5160288.16642  20115726.7044   20115721.3584
        58.0004         51.0004
  23740523.9854  -11040821.50543  -8593147.97342  23740525.9994   23740522.3854
        48.0004         41.0004
  22037119.1914  -16950419.22043 -13164137.78242  22037120.9084   22037117.2834
        53.0004         46.0004
 03 12 17 18 19  0.0000000  0  8G26G31G29G28G27G 8G11G 7
  23405112.2774   -6682834.49043  -5202008.96442  23405114.6124   23405110.1894
        48.0004         42.0004
  23299134.6814   10560624.29443   8227623.88242  23299137.6314   23299133.7444
        46.0004         41.0004
  22639375.6394  -14174814.71743 -10989475.63242  22639377.9664   22639372.5394
        52.0004         45.0004
  20915546.3624   -7746847.53144  -6034354.22042  20915547.9924   20915541.8594
        57.0004         51.0004
  20982840.1414    6132565.21843   4778760.26842  20982841.5614   20982837.3654
        56.0004         49.0004
  20113914.2244   -6640542.37444  -5167708.07942  20113914.5704   20113909.2894
        58.0004         51.0004
  23732859.3264  -11081100.62943  -8624534.30142  23732861.9214   23732858.8934
        48.0004         41.0004
  22020938.1964  -17035452.06943 -13230397.09442  22020939.8554   22020935.5904
        53.0004         46.0004
 03 12 17 18 19 30.0000000  0  8G26G31G29G28G27G 8G11G 7
  23390019.2874   -6762146.62843  -5263810.61242  23390023.1254   23390019.0364
        47.0004         42.0004
  23317966.7984   10659577.46943   8304730.11342  23317968.1184   23317966.0574
        48.0004         41.0004
  22627490.5544  -14237270.43643 -11038142.42542  22627492.8694   22627488.6624
        52.0004         45.0004
  20912832.0084   -7761111.65844  -6045469.14342  20912833.4914   20912827.7584
        57.0004         51.0004
  20989787.9694    6169076.40943   4807210.52342  20989789.3244   20989785.0854
        55.0004         49.0004
  20112169.2044   -6649712.98344  -5174854.02142  20112169.1544   20112164.3504
        58.0004         51.0004
  23725260.9264  -11121032.05143  -8655649.69042  23725263.4524   23725259.2234
        49.0004         41.0004
  22004814.8974  -17120180.00043 -13296418.80742  22004816.3274   22004812.9214
        53.0004         46.0004
 03 12 17 18 20  0.0000000  0  8G26G31G29G28G27G 8G11G 7
  23374998.5864   -6841076.52443  -5325314.39742  23375000.4784   23374997.9824
        48.0004         41.0004
  23336849.9384   10758805.32643   8382050.35942  23336851.5284   23336846.4684
        48.0004         40.0004
  22615690.1584  -14299283.04443 -11086463.93942  22615691.0054   22615687.5104
        51.0004         45.0004
  20910163.3714   -7775135.27144  -6056396.65642  20910165.1444   20910158.9734
        57.0004         51.0004
  20996802.9614    6205938.41843   4835934.13642  20996804.2144   20996799.7634
        56.0004         49.0004
  20110491.1054   -6658531.49644  -5181725.60542  20110491.3534   20110486.2024
        58.0004         51.0004
  23717728.1094  -11160614.14543  -8686492.86842  23717731.4654   23717726.4884
        49.0004         41.0004
  21988749.9614  -17204601.84343 -13362202.00942  21988751.6044   21988748.3084
        54.0004         47.0004
 03 12 17 18 20 30.0000000  0  8G26G31G29G28G27G 8G11G 7
  23360052.3984   -6919619.17943  -5386516.44542  23360057.2304   23360050.2984
        48.0004         41.0004
  23355785.0944   10858307.50243   8459584.38342  23355786.1654   23355780.6854
        47.0004         40.0004
  22603974.1224  -14360847.80443 -11134436.47442  22603976.0984   22603972.0184
        51.0004         45.0004
  20907540.8934   -7788916.71044  -6067135.46042  20907542.6784   20907536.5294
        57.0004         51.0004
  21003884.4954    6243154.15343   4864933.38542  21003886.2024   21003881.2694
        55.0004         49.0004
  20108880.8524   -6666993.89244  -5188319.69242  20108881.0474   20108876.1124
        58.0004         51.0004
  23710264.1114  -11199842.14743  -8717060.14742  23710265.6124   23710263.3894
        49.0004         41.0004
  21972743.9514  -17288712.98343 -13427743.10142  21972745.4294   21972741.7214
        54.0004         46.0004
 03 12 17 18 21  0.0000000  0  8G26G31G29G28G27G 8G11G 7
  23345181.0884   -6997773.09743  -5447415.59442  23345182.5834   23345179.7404
        48.0004         41.0004
  23374770.0864   10958080.32243   8537329.26842  23374771.7814   23374767.7144
        48.0004         41.0004
  22592344.9204  -14421963.45743 -11182059.04942  22592346.5684   22592342.1434
        52.0004         45.0004
  20904964.3934   -7802457.72744  -6077686.91742  20904965.8124   20904959.6204
        57.0004         51.0004
  21011033.8684    6280723.48443   4894208.16042  21011035.3184   21011030.9404
        55.0004         49.0004
  20107338.4364   -6675099.92544  -5194636.08842  20107338.8534   20107333.0774
        58.0004         51.0004
  23702865.5374  -11238714.51943  -8747350.26342  23702866.0524   23702864.9814
        48.0004         41.0004
  21956797.7274  -17372512.50243 -13493041.36742  21956799.2174   21956795.2874
        53.0004         47.0004
 03 12 17 18 21 30.0000000  0  8G26G31G29G28G27G 8G11G 7
  23330382.1704   -7075537.71943  -5508011.37842  23330383.2944   23330380.6104
        47.0004         41.0004
  23393807.2564   11058118.87343   8615281.20242  23393808.4894   23393806.5384
        48.0004         41.0004
  22580800.0744  -14482629.93643 -11229331.61942  22580802.3584   22580797.2974
        52.0004         45.0004
  20902432.7494   -7815760.84244  -6088053.00042  20902434.4834   20902428.4344
        57.0004         51.0004
  21018250.1574    6318644.79543   4923757.20742  21018251.4014   21018247.1364
        55.0004         49.0004
  20105863.4574   -6682850.32344  -5200675.37242  20105863.6614   20105858.4394
        58.0004         51.0004
  23695538.0404  -11277231.05743  -8777363.12542  23695539.3434   23695533.0094
        49.0004         41.0004
  21940910.1254  -17456000.34643 -13558096.77342  21940911.8754   21940907.5704
        53.0004         47.0004
 03 12 17 18 22  0.0000000  0  8G26G31G29G28G27G 8G11G 7
  23315659.1084   -7152909.57243  -5568301.12642  23315662.6064   23315659.0194
        48.0004         41.0004
  23412893.5944   11158421.06143   8693438.59742  23412896.1944   23412893.6284
        47.0004         41.0004
  22569341.6194  -14542844.54143 -11276252.07242  22569343.4794   22569339.0004
        52.0004         45.0004
  20899946.5084   -7828826.04744  -6098233.69442  20899948.1874   20899942.1744
        57.0004         51.0004
  21025533.0064    6356919.29243   4953581.45942  21025535.1114   21025530.3374
        55.0004         49.0004
  20104456.7284   -6690242.73844  -5206435.70942  20104457.0894   20104451.7554
        58.0004         51.0004
  23688275.3694  -11315388.83843  -8807096.40742  23688277.6294   23688272.6164
        48.0004         41.0004
  21925082.9994  -17539173.72843 -13622907.14142  21925084.2384   21925080.8144
        54.0004         47.0004
 03 12 17 18 22 30.0000000  0  8G26G31G29G28G27G 8G11G 7
  23301010.8144   -7229885.78743  -5628282.56442  23301013.5284   23301008.5694
        47.0004         41.0004
  23432030.8444   11258984.58643   8771799.59542  23432033.7924   23432029.2064
        49.0004         41.0004
  22557970.1564  -14602604.48243 -11322818.23942  22557972.3774   22557967.8654
        52.0004         45.0004
  20897505.4814   -7841653.59844  -6108229.20942  20897507.1834   20897501.1704
        57.0004         51.0004
  21032884.1524    6395548.08243   4983681.78642  21032886.1244   21032881.2454
        55.0004         49.0004
  20103118.5114   -6697275.64944  -5211915.91842  20103118.7284   20103113.6094
        58.0004         51.0004
  23681083.3534  -11353184.55643  -8836547.57442  23681083.3954   23681083.2064
        48.0004         41.0004
  21909315.6804  -17622030.14543 -13687470.52742  21909317.3694   21909313.1204
        53.0004         47.0004
 03 12 17 18 23  0.0000000  0  8G26G31G29G28G27G 8G11G 7
  23286439.1354   -7306464.25343  -5687954.06442  23286442.4104   23286437.4244
        48.0004         41.0004
  23451216.2774   11359806.39243   8850361.88642  23451218.4054   23451216.7044
        48.0004         41.0004
  22546684.9834  -14661908.16943 -11369028.88242  22546687.1474   22546681.9114
        52.0004         45.0004
  20895109.6664   -7854244.41144  -6118040.24742  20895111.1074   20895104.9094
        57.0004         51.0004
  21040302.5504    6434531.37543   5014058.35242  21040304.4354   21040299.5494
        55.0004         49.0004
  20101848.8924   -6703947.70744  -5217114.94142  20101849.0114   20101843.9104
        58.0004         51.0004
  23673959.1434  -11390616.48443  -8865715.24442  23673962.5374   23673958.7754
        47.0004         40.0004
  21893609.5564  -17704568.00243 -13751785.68842  21893610.6524   21893607.1784
        54.0004         47.0004
 03 12 17 18 23 30.0000000  0  8G26G31G29G28G27G 8G11G 7
  23271942.7924   -7382639.05943  -5747311.05642  23271944.8614   23271940.9824
        47.0004         41.0004
  23470452.4334   11460886.96543   8929125.80642  23470452.1264   23470450.6794
        48.0004         41.0004
  22535487.1184  -14720750.13243 -11414879.74142  22535489.5644   22535484.6044
        52.0004         45.0004
  20892759.1464   -7866595.96844  -6127664.84842  20892760.7544   20892754.6974
        57.0004         51.0004
  21047789.1174    6473872.91643   5044714.06442  21047790.5734   21047785.7504
        55.0004         48.0004
  20100648.7034   -6710254.40944  -5222029.27442  20100648.9394   20100643.9104
        58.0004         51.0004
  23666906.2634  -11427678.98343  -8894595.06542  23666908.2964   23666903.5414
        47.0004         40.0004
  21877964.4104  -17786781.78043 -13815848.32342  21877966.0024   21877961.9284
        54.0004         47.0004
 03 12 17 18 24  0.0000000  0  8G26G31G29G28G27G 8G11G 7
  23257523.9614   -7458416.46743  -5806358.36842  23257526.2044   23257521.0544
        48.0004         41.0004
  23489734.3724   11562214.71543   9008082.32642  23489735.4414   23489732.2004
        47.0004         41.0004
  22524376.7714  -14779137.06543 -11460376.03142  22524378.7774   22524374.8054
        52.0004         45.0004
  20890452.5924   -7878717.71744  -6137110.37542  20890454.0804   20890448.1434
        57.0004         51.0004
  21055341.9044    6513564.65743   5075642.66542  21055343.7884   21055338.9724
        55.0004         48.0004
  20099516.7134   -6716203.36244  -5226664.84242  20099516.7634   20099511.6434
        58.0004         51.0004
  23659923.4964  -11464378.50243  -8923192.03442  23659925.3414   23659922.5054
        48.0004         40.0004
  21862379.8764  -17868678.46943 -13879663.88142  21862381.6044   21862378.1024
        54.0004         47.0004
 03 12 17 18 24 30.0000000  0  8G26G31G29G28G27G 8G11G 7
  23243181.1774   -7533785.06143  -5865087.13842  23243182.8614   23243180.1934
        48.0004         41.0004
  23509064.3694   11663795.97543   9087236.40442  23509066.4454   23509062.8444
        47.0004         40.0004
  22513354.8294  -14837057.95543 -11505509.17842  22513356.0804   22513351.9494
        52.0004         45.0004
  20888191.2544   -7890601.24944  -6146370.28342  20888192.5714   20888186.7474
        57.0004         51.0004
  21062963.6314    6553615.91243   5106851.39642  21062965.3734   21062960.5394
        55.0004         48.0004
  20098454.8684   -6721784.00244  -5231013.41542  20098454.7974   20098449.7684
        58.0004         51.0004
  23653009.4404  -11500703.66143  -8951497.27742  23653010.8784   23653008.9394
        47.0004         40.0004
  21846857.9934  -17950247.08043 -13943223.80142  21846859.4734   21846855.9864
        54.0004         47.0004
 03 12 17 18 25  0.0000000  0  8G26G31G29G28G27G 8G11G 7
  23228916.5194   -7608747.53443  -5923499.44042  23228919.0344   23228912.0264
        48.0004         41.0004
  23528440.4014   11765622.46743   9166581.59142  23528441.7704   23528439.9704
        46.0004         40.0004
  22502421.0784  -14894516.04143 -11550281.69442  22502423.1874   22502418.4454
        52.0004         45.0004
  20885973.8564   -7902252.68744  -6155449.33742  20885975.5314   20885969.5674
        57.0004         51.0004
  21070652.7754    6594021.89643   5138336.54342  21070654.3374   21070649.5954
        55.0004         48.0004
  20097462.1734   -6727000.26144  -5235078.05442  20097462.3894   20097457.1474
        58.0004         51.0004
  23646169.7024  -11536657.49743  -8979513.20942  23646171.3564   23646167.7054
        47.0004         40.0004
  21831397.7104  -18031491.03243 -14006530.74542  21831398.7854   21831395.3114
        54.0004         47.0004
 03 12 17 18 25 30.0000000  0  8G26G31G29G28G27G 8G11G 7
  23214729.7884   -7683296.58043  -5981589.58042  23214732.3954   23214729.9164
        48.0004         42.0004
  23547865.2594   11867696.62343   9246119.70542  23547867.3084   23547865.2844
        46.0004         40.0004
  22491576.2694  -14951504.28143 -11594688.09142  22491578.4874   22491574.8114
        52.0004         45.0004
  20883801.6924   -7913667.50344  -6164344.00642  20883803.4694   20883797.3864
        57.0004         51.0004
  21078410.3424    6634788.20143   5170102.46042  21078411.8564   21078407.3484
        55.0004         48.0004
  20096539.9334   -6731845.78944  -5238853.81442  20096540.1684   20096535.2804
        58.0004         51.0004
  23639398.8724  -11572232.85743  -9007234.20042  23639400.3474   23639397.6404
        47.0004         40.0004
  21816000.8534  -18112403.26743 -14069579.21642  21816002.3494   21815997.8784
        54.0004         47.0004
 03 12 17 18 26  0.0000000  0  8G26G31G29G28G27G 8G11G 7
  23200622.1864   -7757437.15143  -6039361.44842  23200624.6094   23200620.7974
        48.0004         42.0004
  23567334.7204   11970007.82043   9325842.58942  23567337.4174   23567332.3244
        46.0004         40.0004
  22480820.2164  -15008028.20843 -11638732.68942  22480822.1014   22480817.7554
        52.0004         46.0004
  20881673.0474   -7924854.07944  -6173060.83042  20881674.8084   20881668.4974
        57.0004         51.0004
  21086234.8174    6675907.59043   5202143.49542  21086236.6674   21086231.9414
        55.0004         48.0004
  20095687.3934   -6736326.97144  -5242345.67042  20095687.3224   20095682.3844
        58.0004         51.0004
  23632700.5594  -11607435.34843  -9034664.66342  23632702.0754   23632698.1464
        47.0004         40.0004
  21800665.6984  -18192989.31843 -14132373.52542  21800667.1064   21800662.9954
        54.0004         47.0004
 03 12 17 18 26 30.0000000  0  8G26G31G29G28G27G 8G11G 7
  23186592.6554   -7831159.97643  -6096807.76742  23186594.2114   23186589.4884
        49.0004         42.0004
  23586848.4854   12072560.40043   9405753.62342  23586849.8484   23586849.4774
        45.0004         39.0004
  22470154.1214  -15064078.94243 -11682408.56142  22470155.8364   22470151.3284
        52.0004         45.0004
  20879589.0504   -7935806.01444  -6181594.81242  20879590.7064   20879584.6414
        57.0004         51.0004
  21094128.7874    6717387.58343   5234465.52242  21094129.9564   21094125.6434
        55.0004         48.0004
  20094905.4464   -6740435.60344  -5245547.22442  20094905.7114   20094900.7044
        58.0004         51.0004
  23626074.3614  -11642255.16643  -9061796.95042  23626076.2104   23626073.2444
        47.0004         40.0004
  21785394.4574  -18273240.50343 -14194906.91242  21785396.2374   21785392.1754
        54.0004         47.0004
 03 12 17 18 27  0.0000000  0  8G26G31G29G28G27G 8G11G 7
  23172642.9504   -7904467.33343  -6153930.37342  23172645.3294   23172640.4474
        49.0004         42.0004
  23606411.2094   12175346.77243   9485846.77142  23606411.1614   23606409.2914
        47.0004         40.0004
  22459577.5534  -15119659.35043 -11725717.94542  22459578.9584   22459574.3494
        52.0004         45.0004
  20877548.4984   -7946528.87444  -6189950.29042  20877550.0984   20877544.0334
        57.0004         51.0004
  21102089.9264    6759223.81943   5267065.13842  21102091.1224   21102086.8214
        55.0004         48.0004
  20094193.8904   -6744174.89644  -5248460.97942  20094194.1424   20094189.0864
        58.0004         51.0004
  23619520.0234  -11676695.01743  -9088633.15642  23619522.1014   23619520.0374
        47.0004         40.0004
  21770186.3564  -18353159.54943 -14257181.48742  21770187.4944   21770183.3504
        54.0004         47.0004
 03 12 17 18 27 30.0000000  0  8G26G31G29G28G27G 8G11G 7
  23158774.8644   -7977345.28643  -6210718.38142  23158776.4014   23158772.5114
        49.0004         42.0004
  23626014.5714   12278375.62643   9566128.87642  23626019.5654   23626014.6404
        48.0004         39.0004
  22449092.5634  -15174755.88143 -11768650.28542  22449095.2254   22449090.1204
        52.0004         45.0004
  20875553.6114   -7957011.87644  -6198118.87142  20875555.4244   20875549.4144
        57.0004         51.0004
  21110120.8954    6801427.97643   5299951.44342  21110122.4024   21110117.8614
        55.0004         48.0004
  20093554.9644   -6747532.46944  -5251077.29442  20093555.2414   20093550.1404
        58.0004         51.0004
  23613042.2334  -11710741.50043  -9115162.87342  23613043.3744   23613039.5794
        46.0004         40.0004
  21755043.8504  -18432733.12243 -14319186.87042  21755045.4954   21755041.5114
        54.0004         47.0004
 03 12 17 18 28  0.0000000  0  8G26G31G29G28G27G 8G11G 7
  23144984.6594   -8049811.09743  -6267185.24442  23144986.1904   23144983.5294
        49.0004         42.0004
  23645662.5354   12381624.57843   9646582.53742  23645665.4444   23645662.1234
        46.0004         39.0004
  22438697.1044  -15229386.29943 -11811219.42842  22438698.8594   22438694.3254
        52.0004         45.0004
  20873600.4444   -7967275.38044  -6206116.41242  20873602.3244   20873595.9084
        57.0004         51.0004
  21118218.5094    6843981.17443   5333109.71742  21118219.8884   21118215.4064
        55.0004         48.0004
  20092985.5384   -6750526.30644  -5253410.17942  20092985.5494   20092980.5774
        58.0004         51.0004
  23606635.5474  -11744411.83343  -9141399.48342  23606636.7344   23606630.5574
        47.0004         40.0004
  21739964.1764  -18511978.96443 -14380936.88042  21739965.3564   21739961.2164
        55.0004         47.0004
 03 12 17 18 28 30.0000000  0  8G26G31G29G28G27G 8G11G 7
  23131276.0484   -8121851.72443  -6323320.77342  23131277.6564   23131272.4284
        49.0004         42.0004
  23665355.3774   12485101.39143   9727213.70942  23665357.7424   23665354.1404
        48.0004         40.0004
  22428392.4094  -15283538.05043 -11853415.58842  22428394.8574   22428390.2144
        52.0004         45.0004
  20871691.1784   -7977309.48144  -6213935.19942  20871692.8604   20871686.7214
        57.0004         51.0004
  21126384.4894    6886894.24843   5366548.41442  21126386.5694   21126381.7134
        55.0004         48.0004
  20092487.1354   -6753144.72244  -5255450.52342  20092487.2544   20092482.2174
        58.0004         51.0004
  23600300.8184  -11777693.02643  -9167332.88742  23600303.6704   23600299.3904
        47.0004         40.0004
  21724949.0594  -18590884.62943 -14442421.82142  21724950.1414   21724946.7184
        55.0004         47.0004
 03 12 17 18 29  0.0000000  0  8G26G31G29G28G27G 8G11G 7
  23117648.0944   -8193464.38143  -6379122.80642  23117649.0214   23117644.7724
        49.0004         42.0004
  23685088.2854   12588803.66443   9808020.58342  23685089.8544   23685089.3414
        47.0004         40.0004
  22418179.3404  -15337208.76443 -11895236.91742  22418180.8684   22418177.0484
        52.0004         46.0004
  20869825.3524   -7987114.43244  -6221575.42842  20869826.9864   20869821.0564
        57.0004         51.0004
  21134619.1814    6930167.94843   5400268.12842  21134620.7494   21134616.3464
        55.0004         48.0004
  20092060.6764   -6755386.00844  -5257197.00142  20092060.8534   20092055.7154
        58.0004         51.0004
  23594043.7284  -11810582.73843  -9192961.26942  23594045.3984   23594040.7654
        48.0004         40.0004
  21709998.8884  -18669447.70643 -14503639.81742  21710000.2844   21709996.5544
        55.0004         48.0004
 03 12 17 18 29 30.0000000  0  8G26G31G29G28G27G 8G11G 7
  23104102.1364   -8264649.74443  -6434591.90442  23104104.7274   23104099.3084
        49.0004         42.0004
  23704866.2974   12692725.54143   9888998.52342  23704868.0474   23704863.2264
        48.0004         40.0004
  22408056.9904  -15390399.68843 -11936684.38242  22408059.1534   22408054.9264
        53.0004         46.0004
  20868002.4204   -7996694.08644  -6229040.10242  20868004.2094   20867997.9254
        57.0004         51.0004
  21142922.3864    6973799.60643   5434266.76342  21142923.5674   21142919.4684
        55.0004         48.0004
  20091705.5314   -6757251.94044  -5258650.99642  20091705.6554   20091700.8944
        58.0004         51.0004
  23587858.1344  -11843082.15443  -9218285.50242  23587860.7844   23587856.4014
        47.0004         40.0004
  21695113.8904  -18747669.66243 -14564592.00242  21695114.7724   21695110.8534
        55.0004         48.0004
 03 12 17 18 30  0.0000000  0  8G26G31G29G28G27G 8G11G 7
  23090638.2944   -8335403.87343  -6489724.96742  23090641.2214   23090637.1354
        49.0004         42.0004
  23724681.2684   12796865.92543   9970146.78642  23724683.5134   23724678.9874
        47.0004         40.0004
  22398027.3934  -15443107.40943 -11977755.33242  22398029.2924   22398024.7264
        52.0004         46.0004
  20866222.2864   -8006047.55944  -6236328.53142  20866224.1444   20866218.0614
        57.0004         51.0004
  21151294.1554    7017791.22743   5468545.89542  21151295.2364   21151290.9134
        55.0004         48.0004
  20091422.7264   -6758739.66544  -5259810.28642  20091422.7034   20091417.7054
        58.0004         51.0004
  23581749.0834  -11875187.35443  -9243302.61242  23581751.3484   23581746.2694
        47.0004         40.0004
  21680294.2224  -18825546.95543 -14625275.62642  21680295.1934   21680291.5114
        55.0004         48.0004
 03 12 17 18 30 30.0000000  0  8G26G31G29G28G27G 8G11G 7
  23077256.8524   -8405723.33243  -6544519.32942  23077259.2314   23077254.2254
        49.0004         42.0004
  23744540.8744   12901223.16943  10051463.99542  23744541.6734   23744536.4144
        48.0004         40.0004
  22388090.1994  -15495328.87943 -12018447.39042  22388092.1844   22388087.1984
        52.0004         46.0004
  20864485.5864   -8015174.39144  -6243440.36042  20864487.2564   20864481.3314
        57.0004         51.0004
  21159733.6094    7062144.18243   5503106.58042  21159735.3484   21159731.3394
        55.0004         48.0004
  20091211.7204   -6759846.78744  -5260672.99842  20091211.7894   20091207.1054
        58.0004         51.0004
  23575715.2514  -11906895.15843  -9268010.03242  23575719.1114   23575715.2984
        48.0004         41.0004
  21665540.8214  -18903076.62443 -14685688.37642  21665542.1994   21665538.2584
        55.0004         48.0004
 03 12 17 18 31  0.0000000  0  8G26G31G29G28G27G 8G11G 7
  23063958.2334   -8475606.97443  -6598974.09742  23063960.9644   23063956.0694
        49.0004         42.0004
  23764438.2854   13005793.14343  10132946.95642  23764440.6204   23764439.7984
        46.0004         40.0004
  22378245.1194  -15547063.55443 -12058760.12542  22378247.2284   22378242.4804
        52.0004         46.0004
  20862791.8814   -8024076.25144  -6250376.89142  20862793.5304   20862787.2704
        57.0004         51.0004
  21168242.6634    7106857.61843   5537948.15942  21168244.4194   21168239.7534
        55.0004         48.0004
  20091073.7054   -6760573.35944  -5261239.18042  20091073.9704   20091068.6224
        58.0004         51.0004
  23569757.9854  -11938204.26843  -9292406.79142  23569759.8104   23569754.6254
        48.0004         41.0004
  21650853.4894  -18980258.15743 -14745829.85442  21650854.6944   21650850.8954
        54.0004         48.0004
 03 12 17 18 31 30.0000000  0  8G26G31G29G28G27G 8G11G 7
  23050743.2564   -8545052.30743  -6653087.32842  23050746.1184   23050739.6914
        49.0004         42.0004
  23784379.0614   13110573.41243  10214593.76142  23784380.2704   23784378.4384
        46.0004         40.0004
  22368492.8754  -15598309.33543 -12098691.90242  22368495.0254   22368490.9414
        52.0004         46.0004
  20861140.4394   -8032753.92144  -6257138.73142  20861141.9824   20861136.0874
        57.0004         51.0004
  21176820.4304    7151932.16443   5573071.13242  21176822.0764   21176817.0544
        55.0004         48.0004
  20091008.0554   -6760917.85044  -5261507.63542  20091008.2714   20091003.2184
        58.0004         51.0004
  23563876.1054  -11969112.55043  -9316491.19242  23563878.1284   23563874.0354
        48.0004         41.0004
  21636233.2034  -19057089.28143 -14805698.28642  21636234.3474   21636230.8324
        55.0004         48.0004
 03 12 17 18 32  0.0000000  0  7G26G29G28G27G 8G11G 7
  23037612.0704   -8614056.08943  -6706856.48742  23037614.7914   23037611.5754
        49.0004         42.0004
  22358834.9914  -15649063.49243 -12138240.59942  22358837.2514   22358832.8634
        52.0004         46.0004
  20859531.9324   -8041207.24444  -6263725.75642  20859533.5664   20859527.5504
        57.0004         51.0004
  21185467.1264    7197368.87643   5608476.30342  21185468.0214   21185463.6764
        55.0004         48.0004
  20091015.6474   -6760878.22044  -5261476.77542  20091015.7334   20091010.5264
        58.0004         51.0004
  23558070.3194  -11999617.43243  -9340261.26942  23558073.7474   23558069.5744
        48.0004         41.0004
  21621679.9834  -19133567.70243 -14865291.88642  21621681.3824   21621677.5454
        55.0004         48.0004
 03 12 17 18 32 30.0000000  0  7G26G29G28G27G 8G11G 7
  23024564.8704   -8682618.88943  -6760282.01842  23024566.4394   23024563.1014
        49.0004         43.0004
  22349270.3514  -15699327.23143 -12177407.15742  22349271.6784   22349267.6954
        52.0004         46.0004
  20857965.3044   -8049439.50544  -6270140.52642  20857966.8774   20857961.2154
        57.0004         51.0004
  21194180.4494    7243165.24043   5644161.72742  21194182.5414   21194178.4334
        54.0004         48.0004
  20091095.8674   -6760456.23844  -5261147.97442  20091096.2024   20091091.1934
        58.0004         51.0004
  23552341.9244  -12029719.30443  -9363717.32042  23552345.1474   23552341.5654
        48.0004         41.0004
  21607193.5654  -19209694.37943 -14924611.39742  21607194.7854   21607191.1094
        55.0004         48.0004
 03 12 17 18 33  0.0000000  0  7G26G29G28G27G 8G11G 7
  23011602.4714   -8750734.59643  -6813359.17242  23011605.4664   23011601.3734
        49.0004         43.0004
  22339799.7334  -15749094.83743 -12216187.11842  22339801.9504   22339796.8714
        52.0004         46.0004
  20856441.3004   -8057447.77744  -6276380.76042  20856443.4164   20856437.2354
        57.0004         51.0004
  21202965.5904    7289325.44143   5680130.65242  21202966.9584   21202962.4714
        55.0004         48.0004
  20091250.1224   -6759646.60444  -5260517.10542  20091250.1514   20091245.2924
        58.0004         51.0004
  23546693.0434  -12059412.40743  -9386854.83842  23546695.1164   23546690.7664
        49.0004         41.0004
  21592775.2444  -19285463.48843 -14983652.28742  21592776.3394   21592772.8634
        55.0004         48.0004
 03 12 17 18 33 30.0000000  0  7G26G29G28G27G 8G11G 7
  22998725.5054   -8818403.93543  -6866088.51642  22998729.0154   22998724.4074
        49.0004         43.0004
  22330423.7374  -15798367.42943 -12254581.35142  22330425.9844   22330420.5044
        53.0004         46.0004
  20854959.4944   -8065235.54344  -6282449.17142  20854960.9804   20854955.2414
        57.0004         51.0004
  21211817.4864    7335846.71943   5716380.94042  21211819.3994   21211814.8824
        54.0004         48.0004
  20091477.4584   -6758451.26444  -5259585.69042  20091477.5924   20091472.5004
        58.0004         51.0004
  23541119.0114  -12088697.78343  -9409674.62442  23541121.0614   23541116.2664
        48.0004         41.0004
  21578424.5864  -19360876.24643 -15042415.49642  21578426.2534   21578421.9554
        55.0004         48.0004
 03 12 17 18 34  0.0000000  0  7G26G29G28G27G 8G11G 7
  22985933.9734   -8885624.69943  -6918468.31842  22985935.5094   22985931.7414
        48.0004         42.0004
  22321141.7244  -15847143.63843 -12292588.79242  22321143.8004   22321139.4364
        53.0004         46.0004
  20853519.2444   -8072803.79244  -6288346.53042  20853520.9564   20853515.0354
        57.0004         51.0004
  21220739.5774    7382729.06043   5752912.57742  21220740.7834   21220736.5664
        55.0004         48.0004
  20091778.5054   -6756869.01944  -5258352.78542  20091778.5134   20091773.7854
        58.0004         51.0004
  23535626.0904  -12117573.62343  -9432175.27542  23535627.0214   23535622.6664
        49.0004         41.0004
  21564142.0204  -19435931.45343 -15100900.08742  21564143.2594   21564139.1684
        55.0004         48.0004
 03 12 17 18 34 30.0000000  0  7G26G29G28G27G 8G11G 7
  22973228.6504   -8952391.49143  -6970494.37342  22973229.6834   22973228.1374
        49.0004         42.0004
  22311955.5664  -15895418.30943 -12330205.42442  22311956.7314   22311952.7344
        53.0004         46.0004
  20852121.3364   -8080149.99744  -6294070.86642  20852122.9494   20852116.9104
        57.0004         51.0004
  21229730.4514    7429976.11443   5789728.40642  21229731.6294   21229727.3104
        54.0004         48.0004
  20092154.1254   -6754895.41344  -5256814.92342  20092154.3294   20092149.3814
        58.0004         51.0004
  23530210.1314  -12146034.50643  -9454352.58142  23530210.9164   23530206.5234
        49.0004         41.0004
  21549928.5104  -19510623.74443 -15159101.88242  21549929.4884   21549925.4974
        55.0004         48.0004
 03 12 17 18 35  0.0000000  0  7G26G29G28G27G 8G11G 7
  22960610.4044   -9018704.33943  -7022166.71642  22960613.1014   22960607.7524
        49.0004         42.0004
  22302864.4224  -15943192.29143 -12367431.90942  22302866.2114   22302861.4604
        52.0004         46.0004
  20850765.0714   -8087277.00744  -6299624.39742  20850766.8744   20850760.8024
        57.0004         51.0004
  21238790.0804    7477585.86343   5826826.85342  21238791.9054   21238787.6364
        54.0004         48.0004
  20092603.8944   -6752531.83044  -5254973.17942  20092603.9714   20092598.9684
        58.0004         51.0004
  23524872.5934  -12174080.51943  -9476206.61342  23524875.8614   23524869.9454
        49.0004         41.0004
  21535783.8514  -19584953.96143 -15217021.54042  21535785.2084   21535781.0754
        55.0004         48.0004
 03 12 17 18 35 30.0000000  0  7G26G29G28G27G 8G11G 7
  22948077.0124   -9084565.08543  -7073486.76642  22948079.4724   22948075.9464
        49.0004         43.0004
  22293868.0634  -15990467.85843 -12404270.01342  22293870.0284   22293865.3214
        53.0004         46.0004
  20849449.6004   -8094189.82144  -6305011.01942  20849451.1514   20849445.5604
        57.0004         51.0004
  21247918.4974    7525554.19343   5864204.71642  21247919.9164   21247915.9554
        54.0004         48.0004
  20093127.5074   -6749781.09744  -5252829.76742  20093127.4134   20093122.8774
        58.0004         51.0004
  23519613.1044  -12201714.29643  -9497739.40642  23519617.1834   23519609.0774
        48.0004         41.0004
  21521707.7804  -19658924.46743 -15274660.89742  21521709.1234   21521705.5624
        55.0004         48.0004
 03 12 17 18 36  0.0000000  0  7G26G29G28G27G 8G11G 7
  22935631.6634   -9149964.28943  -7124447.19142  22935633.7054   22935630.3414
        49.0004         43.0004
  22284968.1424  -16037235.96743 -12440712.69642  22284970.6684   22284966.4174
        53.0004         46.0004
  20848176.2824   -8100881.46644  -6310225.29442  20848178.1304   20848172.0284
        57.0004         51.0004
  21257116.7704    7573888.83743   5901868.01742  21257117.8084   21257113.4284
        55.0004         48.0004
  20093726.0494   -6746634.82744  -5250378.14642  20093726.0374   20093721.4354
        58.0004         51.0004
  23514434.6074  -12228926.60243  -9518943.82142  23514436.5544   23514433.5074
        48.0004         41.0004
  21507701.9274  -19732526.13243 -15332012.84042  21507703.1904   21507699.4114
        55.0004         48.0004
 03 12 17 18 36 30.0000000  0  7G26G29G28G27G 8G11G 7
  22923275.3254   -9214902.40643  -7175048.32142  22923276.6004   22923273.4674
        49.0004         43.0004
  22276165.1784  -16083497.90143 -12476760.95442  22276167.3094   22276162.7324
        53.0004         46.0004
  20846944.1814   -8107355.82444  -6315270.25742  20846945.9684   20846939.8444
        57.0004         51.0004
  21266382.9594    7622587.04743   5939814.62142  21266384.5324   21266381.0724
        55.0004         48.0004
  20094399.8354   -6743094.53344  -5247619.49242  20094399.8554   20094395.0314
        58.0004         51.0004
  23509336.8904  -12255718.14743  -9539820.35242  23509339.0564   23509335.3624
        48.0004         41.0004
  21493765.8484  -19805760.30343 -15389078.42242  21493766.9214   21493763.1524
        56.0004         48.0004
 03 12 17 18 37  0.0000000  0  7G26G29G28G27G 8G11G 7
  22911004.9424   -9279380.50443  -7225290.98542  22911006.6644   22911003.0554
        49.0004         43.0004
  22267457.5094  -16129255.11543 -12512415.91942  22267459.2794   22267455.8804
        53.0004         46.0004
  20845752.7934   -8113616.54044  -6320148.74142  20845754.6704   20845748.6784
        57.0004         51.0004
  21275719.2744    7671645.91243   5978042.24842  21275720.4674   21275716.2814
        54.0004         48.0004
  20095148.1184   -6739162.39044  -5244555.49442  20095148.3224   20095143.2724
        58.0004         51.0004
  23504319.4124  -12282090.12543  -9560369.91642  23504320.2624   23504314.3294
        49.0004         41.0004
  21479899.3954  -19878628.40543 -15445858.75542  21479900.6524   21479896.7294
        56.0004         48.0004
 03 12 17 18 37 30.0000000  0  7G26G29G28G27G 8G11G 7
  22898824.3444   -9343392.32343  -7275170.31642  22898826.7094   22898821.3494
        49.0004         43.0004
  22258847.3684  -16174501.91443 -12547673.16342  22258848.9784   22258845.1434
        53.0004         46.0004
  20844602.7674   -8119660.25444  -6324858.13142  20844604.5964   20844598.6584
        57.0004         51.0004
  21285123.5924    7721069.59943   6016554.15942  21285124.8254   21285120.9964
        54.0004         48.0004
  20095971.9434   -6734833.04744  -5241181.99542  20095972.0274   20095967.1414
        58.0004         51.0004
  23499379.1454  -12308036.50943  -9580587.86542  23499379.6264   23499380.5814
        47.0004         41.0004
  21466103.9714  -19951124.66943 -15502349.34642  21466105.1754   21466101.5294
        56.0004         49.0004
 03 12 17 18 38  0.0000000  0  7G26G29G28G27G 8G11G 7
  22886732.1234   -9406937.88243  -7324686.31942  22886734.0784   22886729.8724
        50.0004         43.0004
  22250334.5144  -16219238.95443 -12582533.19042  22250336.4144   22250332.1544
        53.0004         46.0004
  20843493.6774   -8125489.70444  -6329400.56042  20843495.0744   20843489.2814
        57.0004         51.0004
  21294598.2104    7770856.31043   6055348.95242  21294599.3964   21294595.6404
        54.0004         48.0004
  20096871.0924   -6730107.60544  -5237499.84442  20096871.3204   20096866.3974
        58.0004         51.0004
  23494523.5464  -12333557.63343  -9600474.46242  23494526.9144   23494523.5084
        48.0004         40.0004
  21452378.9994  -20023249.60943 -15558550.59242  21452380.4234   21452376.5954
        56.0004         49.0004
 03 12 17 18 38 30.0000000  0  7G26G29G28G27G 8G11G 7
  22874729.5804   -9470013.58143  -7373836.21542  22874730.9734   22874727.2404
        50.0004         43.0004
  22241918.7324  -16263462.98043 -12616993.46442  22241920.9634   22241916.4884
        53.0004         46.0004
  20842425.0764   -8131104.29544  -6333775.56542  20842426.8784   20842420.8014
        57.0004         51.0004
  21304141.2754    7821007.38943   6094427.66442  21304142.9024   21304138.5894
        54.0004         48.0004
  20097846.1404   -6724983.35744  -5233506.93642  20097846.5284   20097841.6244
        58.0004         51.0004
  23489749.6434  -12358650.29943  -9620027.16242  23489751.1644   23489746.9144
        48.0004         41.0004
  21438725.3474  -20095000.15543 -15614460.10442  21438726.5404   21438722.9894
        56.0004         49.0004
 03 12 17 18 39  0.0000000  0  7G26G29G28G27G 8G11G 7
  22862814.9704   -9532619.63343  -7422620.13942  22862817.3444   22862812.8914
        49.0004         43.0004
  22233600.5064  -16307175.12543 -12651054.86742  22233601.8724   22233598.0564
        53.0004         46.0004
  20841397.0554   -8136506.88244  -6337985.36842  20841398.7384   20841392.8774
        57.0004         51.0004
  21313753.9724    7871520.70743   6133788.64342  21313755.5384   21313751.3034
        54.0004         48.0004
  20098897.0664   -6719461.66344  -5229204.33042  20098897.2174   20098892.2344
        58.0004         51.0004
  23485056.0934  -12383314.85243  -9639246.28942  23485056.7454   23485052.5634
        48.0004         41.0004
  21425142.8374  -20166377.07943 -15670078.48542  21425144.1224   21425140.4094
        56.0004         49.0004
 03 12 17 18 39 30.0000000  0  7G26G29G28G27G 8G11G 7
  22850992.0094   -9594750.47643  -7471033.77042  22850994.1454   22850990.7374
        50.0004         43.0004
  22225380.8644  -16350370.12843 -12684713.30542  22225383.2834   22225378.3124
        53.0004         46.0004
  20840409.8504   -8141694.90444  -6342027.98442  20840411.5094   20840405.4064
        57.0004         51.0004
  21323435.8794    7922399.82243   6173434.66042  21323437.3224   21323433.2694
        54.0004         47.0004
  20100024.1444   -6713538.02744  -5224588.52342  20100024.4864   20100019.3834
        58.0004         51.0004
  23480444.8944  -12407546.04043  -9658127.71342  23480446.8194   23480443.3704
        48.0004         41.0004
  21411632.2244  -20237375.35543 -15725401.81442  21411633.2594   21411629.7544
        56.0004         49.0004
 03 12 17 18 40  0.0000000  0  7G26G29G28G27G 8G11G 7
  22839258.1354   -9656408.39643  -7519078.88042  22839260.0304   22839257.0864
        50.0004         43.0004
  22217259.0024  -16393050.93043 -12717971.06042  22217260.9364   22217255.9094
        53.0004         46.0004
  20839462.4604   -8146673.30944  -6345907.25742  20839464.0834   20839457.9824
        57.0004         51.0004
  21333186.3074    7973640.48443   6213362.40542  21333188.1604   21333183.9514
        54.0004         47.0004
  20101227.3144   -6707215.64144  -5219662.00242  20101227.5294   20101222.6814
        57.0004         51.0004
  23475916.4714  -12431346.56643  -9676673.53942  23475917.4414   23475913.5594
        47.0004         41.0004
  21398193.2134  -20307997.69343 -15780432.20242  21398194.2894   21398190.4014
        56.0004         49.0004
 03 12 17 18 40 30.0000000  0  7G26G29G28G27G 8G11G 7
  22827616.8614   -9717588.09043  -7566751.35242  22827619.1834   22827616.5954
        50.0004         43.0004
  22209235.7784  -16435212.77543 -12750824.43642  22209237.6584   22209233.8364
        53.0004         46.0004
  20838555.4554   -8151439.39744  -6349621.08842  20838556.9884   20838551.2944
        57.0004         51.0004
  21343006.7704    8025246.07343   6253574.50242  21343008.8324   21343004.4364
        54.0004         47.0004
  20102507.2854   -6700490.25844  -5214421.46142  20102507.4544   20102502.5054
        58.0004         51.0004
  23471468.7964  -12454711.36843  -9694879.86042  23471469.8404   23471467.3614
        48.0004         41.0004
  21384826.7834  -20378239.32343 -15835165.93742  21384828.0784   21384824.2574
        56.0004         49.0004
 03 12 17 18 41  0.0000000  0  7G26G29G28G27G 8G11G 7
  22816065.6144   -9778289.66443  -7614051.25342  22816067.7594   22816063.7294
        50.0004         43.0004
  22201311.6104  -16476856.33543 -12783273.95242  22201313.3344   22201308.2554
        53.0004         46.0004
  20837688.2264   -8155996.11044  -6353171.77742  20837689.9314   20837684.2144
        57.0004         51.0004
  21352896.2094    8077214.40143   6294069.25442  21352897.2134   21352893.3414
        54.0004         47.0004
  20103863.6044   -6693363.05844  -5208867.80942  20103863.6934   20103858.8704
        58.0004         51.0004
  23467105.5534  -12477640.65343  -9712746.80842  23467107.9264   23467104.1134
        48.0004         41.0004
  21371532.5924  -20448100.92043 -15889603.53542  21371533.8814   21371529.8874
        56.0004         49.0004
 03 12 17 18 41 30.0000000  0  7G26G29G28G27G 8G11G 7
  22804607.4754   -9838501.63943  -7660969.64742  22804610.2664   22804605.9544
        50.0004         43.0004
  22193487.5174  -16517970.90443 -12815311.27542  22193489.8384   22193485.1904
        53.0004         46.0004
  20836862.6304   -8160334.67344  -6356552.47842  20836864.3824   20836858.2634
        57.0004         51.0004
  21362856.4004    8129555.08743   6334854.14742  21362857.5594   21362853.9894
        54.0004         47.0004
  20105298.2804   -6685823.20544  -5202992.61242  20105298.3524   20105293.8054
        58.0004         51.0004
  23462829.3524  -12500123.23143  -9730265.67242  23462830.1984   23462825.2524
        48.0004         41.0004
  21358312.8864  -20517571.38243 -15943736.35342  21358313.7744   21358310.3094
        56.0004         49.0004
 03 12 17 18 42  0.0000000  0  7G26G29G28G27G 8G11G 7
  22793239.4784   -9898238.38143  -7707517.73942  22793241.7084   22793238.8134
        50.0004         43.0004
  22185761.5714  -16558571.22943 -12846947.88842  22185763.8134   22185759.1744
        53.0004         46.0004
  20836075.5154   -8164472.27244  -6359776.58742  20836077.1524   20836070.9554
        57.0004         51.0004
  21372884.2474    8182251.68643   6375916.37942  21372885.2614   21372881.8014
        54.0004         47.0004
  20106808.6514   -6677886.39844  -5196808.09842  20106808.7244   20106803.8814
        58.0004         51.0004
  23458632.0264  -12522174.18843  -9747448.21842  23458633.2384   23458629.7084
        48.0004         41.0004
  21345164.5064  -20586665.70043 -15997576.07342  21345165.5294   21345161.9994
        56.0004         49.0004
 03 12 17 18 42 30.0000000  0  7G26G29G28G27G 8G11G 7
  22781965.0324   -9957489.06843  -7753687.09142  22781967.9654   22781962.9254
        50.0004         43.0004
  22178135.1004  -16598647.23343 -12878175.93642  22178137.5094   22178132.9134
        53.0004         47.0004
  20835327.9444   -8168400.70644  -6362837.70842  20835329.5134   20835323.7024
        57.0004         51.0004
  21382981.7764    8235313.00743   6417262.80142  21382983.1884   21382979.5514
        54.0004         47.0004
  20108396.2994   -6669542.63544  -5190306.47442  20108396.6504   20108391.8404
        58.0004         51.0004
  23454520.2834  -12543782.78843  -9764286.03842  23454521.7584   23454517.6334
        49.0004         40.0004
  21332089.9144  -20655373.54943 -16051114.64642  21332090.7824   21332087.4114
        56.0004         49.0004
 03 12 17 18 43  0.0000000  0  7G26G29G28G27G 8G11G 7
  22770783.0064  -10016252.16743  -7799476.48442  22770784.4874   22770780.4054
        50.0004         43.0004
  22170608.8904  -16638197.92643 -12908994.65042  22170611.0104   22170606.1254
        53.0004         47.0004
  20834619.7774   -8172120.98844  -6365736.63342  20834621.5004   20834615.5014
        57.0004         51.0004
  21393148.1234    8288738.64443   6458893.11442  21393150.2374   21393145.9444
        54.0004         47.0004
  20110061.7204   -6660791.15944  -5183487.15542  20110061.8394   20110057.1264
        57.0004         51.0004
  23450491.4034  -12564947.76643  -9780778.19742  23450493.2174   23450491.3814
        48.0004         41.0004
  21319088.8254  -20723693.83043 -16104351.20942  21319089.6064   21319086.4254
        56.0004         49.0004
 03 12 17 18 43 30.0000000  0  7G26G29G28G27G 8G11G 7
  22759693.4754  -10074525.34543  -7844884.12342  22759694.9394   22759692.6194
        49.0004         43.0004
  22163182.8384  -16677221.65743 -12939402.74742  22163184.3814   22163180.4774
        53.0004         47.0004
  20833951.4614   -8175633.53644  -6368473.69042  20833953.1634   20833947.0584
        57.0004         51.0004
  21403384.2064    8342528.85743   6500807.50742  21403384.9554   21403381.2994
        54.0004         47.0004
  20111804.7444   -6651631.02744  -5176349.40242  20111804.9254   20111800.0634
        58.0004         51.0004
  23446550.2154  -12585666.85843  -9796922.94042  23446552.0094   23446545.2824
        49.0004         41.0004
  21306162.0334  -20791624.83243 -16157284.43942  21306163.1294   21306159.6204
        56.0004         49.0004
 03 12 17 18 44  0.0000000  0  7G26G29G28G27G 8G11G 7
  22748699.2544  -10132307.22543  -7889908.94642  22748700.6704   22748696.6304
        50.0004         43.0004
  22155857.5134  -16715717.46043 -12969399.47742  22155859.6264   22155855.3874
        53.0004         47.0004
  20833322.3984   -8178939.48344  -6371049.75842  20833323.9564   20833317.9904
        57.0004         51.0004
  21413689.2244    8396683.21243   6543005.64342  21413690.7274   21413687.0974
        53.0004         47.0004
  20113625.8224   -6642061.64844  -5168892.76142  20113626.0494   20113621.0714
        58.0004         51.0004
  23442691.1444  -12605939.28043  -9812719.60042  23442695.8604   23442689.9224
        48.0004         41.0004
  21293309.3784  -20859165.56943 -16209913.56642  21293310.7204   21293306.9614
        56.0004         49.0004
 03 12 17 18 44 30.0000000  0  7G26G29G28G27G 8G11G 7
  22737796.6274  -10189597.76143  -7934550.88542  22737797.7834   22737794.1394
        50.0004         44.0004
  22148632.4354  -16753686.14943 -12998985.47042  22148634.7484   22148630.1064
        53.0004         47.0004
  20832732.1104   -8182041.67744  -6373467.05842  20832733.7714   20832727.8974
        57.0004         51.0004
  21424063.7054    8451199.71943   6585485.97342  21424064.9694   21424061.0334
        54.0004         47.0004
  20115524.6774   -6632084.04144  -5161118.02242  20115524.6534   20115519.6214
        58.0004         51.0004
  23438917.1574  -12625765.24843  -9828168.40742  23438920.9624   23438916.7524
        48.0004         41.0004
  21280530.8904  -20926316.58843 -16262239.02042  21280531.7194   21280528.2894
        56.0004         49.0004
 03 12 17 18 45  0.0000000  0  7G26G29G28G27G 8G11G 7
  22726988.1864  -10246393.54043  -7978807.31242  22726989.8114   22726988.0764
        50.0004         43.0004
  22141508.2394  -16791124.82243 -13028158.45542  22141510.4834   22141505.8154
        54.0004         47.0004
  20832180.5884   -8184939.04444  -6375724.75142  20832182.5034   20832176.4824
        57.0004         51.0004
  21434506.3324    8506079.66843   6628249.49642  21434508.3084   21434504.7504
        54.0004         47.0004
  20117501.4294   -6621695.44644  -5153023.03442  20117501.6204   20117496.8174
        58.0004         51.0004
  23435232.0934  -12645141.38243  -9843266.65342  23435233.1774   23435230.8744
        49.0004         41.0004
  21267827.2394  -20993074.95043 -16314258.50142  21267828.3574   21267824.7214
        56.0004         49.0004
 03 12 17 18 45 30.0000000  0  7G26G29G28G27G 8G11G 7
  22716275.2824  -10302691.75043  -8022676.01742  22716277.6164   22716272.2014
        50.0004         43.0004
  22134485.2424  -16828031.32943 -13056916.76842  22134487.1244   22134482.4674
        54.0004         47.0004
  20831668.3964   -8187631.36744  -6377822.66742  20831670.2064   20831664.1534
        57.0004         51.0004
  21445019.5594    8561324.15943   6671297.08142  21445020.8764   21445017.7704
        54.0004         47.0004
  20119556.7464   -6610894.18944  -5144606.49042  20119557.0224   20119552.3194
        58.0004         51.0004
  23431631.4554  -12664065.62443  -9858012.80842  23431631.9804   23431628.2704
        49.0004         40.0004
  21255198.8054  -21059438.23943 -16365970.13842  21255200.0124   21255196.4274
        56.0004         49.0004
 03 12 17 18 46  0.0000000  0  7G26G29G28G27G 8G11G 7
  22705656.5294  -10358492.08143  -8066156.76042  22705658.8924   22705655.4214
        50.0004         44.0004
  22127563.1174  -16864405.92643 -13085260.59942  22127565.3724   22127560.2884
        53.0004         47.0004
  20831194.6294   -8190120.97444  -6379762.62342  20831196.3954   20831190.4044
        57.0004         51.0004
  21455601.7254    8616931.45943   6714627.37142  21455602.8194   21455598.9984
        53.0004         47.0004
  20121690.6294   -6599680.95444  -5135868.92642  20121690.9914   20121685.7584
        57.0004         51.0004
  23428114.7804  -12682537.81343  -9872406.68842  23428114.1504   23428113.6304
        49.0004         41.0004
  21242645.1564  -21125406.83743 -16417374.22242  21242646.7034   21242642.8484
        56.0004         49.0004
 03 12 17 18 46 30.0000000  0  7G26G29G28G27G 8G11G 7
  22695133.5094  -10413789.67843  -8109245.78242  22695136.1004   22695131.5224
        50.0004         44.0004
  22120743.3454  -16900244.44243 -13113186.70942  22120745.0674   22120740.8874
        53.0004         47.0004
  20830759.9964   -8192405.58544  -6381542.83742  20830761.6064   20830755.8344
        57.0004         51.0004
  21466252.5074    8672904.46943   6758242.63942  21466254.2164   21466250.2504
        53.0004         47.0004
  20123903.4554   -6588051.85144  -5126807.30642  20123903.8884   20123899.0714
        58.0004         51.0004
  23424687.9064  -12700553.37043  -9886444.76242  23424687.1684   23424683.9774
        50.0004         41.0004
  21230167.9114  -21190976.20843 -16468467.22442  21230168.9974   21230165.6044
        56.0004         49.0004
 03 12 17 18 47  0.0000000  0  7G26G29G28G27G 8G11G 7
  22684705.9634  -10468586.61843  -8151944.66242  22684708.3064   22684705.0624
        50.0004         44.0004
  22114024.8944  -16935549.43743 -13140697.08542  22114027.0914   22114021.5064
        53.0004         47.0004
  20830363.4064   -8194489.54544  -6383166.70042  20830364.9434   20830359.1634
        57.0004         51.0004
  21476973.4494    8729239.22543   6802139.77642  21476974.2744   21476970.5784
        53.0004         47.0004
  20126195.3984   -6576009.58044  -5117423.74042  20126195.3074   20126190.5684
        58.0004         51.0004
  23421345.9214  -12718114.54943  -9900128.79442  23421347.4464   23421341.2164
        49.0004         41.0004
  21217765.9104  -21256148.86243 -16519251.09442  21217767.2194   21217763.5494
        56.0004         49.0004
 03 12 17 18 47 30.0000000  0  7G26G29G28G27G 8G11G 7
  22674373.5044  -10522882.28843  -8194252.94442  22674377.3464   22674371.6194
        50.0004         44.0004
  22107408.0334  -16970321.12843 -13167791.90142  22107410.0254   22107405.1084
        53.0004         47.0004
  20830004.5934   -8196374.84344  -6384635.75842  20830006.4464   20830000.1284
        57.0004         51.0004
  21487761.3964    8785934.23043   6846317.63942  21487763.3594   21487759.5434
        53.0004         47.0004
  20128565.2184   -6563554.76344  -5107718.70642  20128565.4834   20128560.5134
        57.0004         51.0004
  23418088.7364  -12735221.29143  -9913458.69342  23418091.6034   23418087.0564
        49.0004         41.0004
  21205439.4304  -21320924.81543 -16569725.84742  21205440.8164   21205436.9124
        56.0004         49.0004
 03 12 17 18 48  0.0000000  0  7G26G29G28G27G 8G11G 7
  22664139.3384  -10576666.08943  -8236162.38942  22664141.9864   22664138.5814
        50.0004         44.0004
  22100894.5104  -17004549.59743 -13194463.42342  22100896.6574   22100892.0154
        53.0004         47.0004
  20829685.2254   -8198053.56544  -6385943.85442  20829686.8814   20829681.0404
        57.0004         51.0004
  21498621.1194    8842998.16643   6890782.97242  21498622.1334   21498617.8554
        53.0004         47.0004
  20131015.8274   -6550677.47044  -5097684.47542  20131016.0944   20131011.1874
        57.0004         51.0004
  23414922.9934  -12751863.22743  -9926426.43742  23414924.8274   23414921.5924
        49.0004         41.0004
  21193190.3044  -21385293.83043 -16619883.50342  21193191.7624   21193188.1254
        56.0004         49.0004
 03 12 17 18 48 30.0000000  0  7G26G29G28G27G 8G11G 7
  22654000.4314  -10629945.55343  -8277678.82042  22654001.9224   22653999.7174
        50.0004         44.0004
  22094482.8104  -17038242.82043 -13220717.86942  22094485.0264   22094480.2794
        53.0004         47.0004
  20829403.1754   -8199535.51244  -6387098.61942  20829404.7784   20829398.9224
        57.0004         51.0004
  21509547.6224    8900421.66343   6935528.48842  21509549.6484   21509545.5094
        53.0004         47.0004
  20133545.0524   -6537386.36544  -5087327.79142  20133545.2264   20133540.4344
        58.0004         51.0004
  23411843.7874  -12768048.06943  -9939037.99042  23411845.3084   23411841.0984
        49.0004         41.0004
  21181017.3554  -21449264.06843 -16669730.42242  21181018.4544   21181014.7664
        56.0004         49.0004
 03 12 17 18 49  0.0000000  0  7G26G29G28G27G 8G11G 7
  22643958.2614  -10682715.04943  -8318797.88142  22643960.6634   22643957.2634
        50.0004         44.0004
  22088174.0894  -17071396.00343 -13246551.49942  22088176.1694   22088171.9134
        53.0004         47.0004
  20829158.9484   -8200817.45644  -6388097.53742  20829160.8684   20829154.8464
        57.0004         51.0004
  21520544.9074    8958208.38443   6980557.03742  21520546.0024   21520542.5334
        53.0004         47.0004
  20136153.9904   -6523676.69244  -5076644.95142  20136154.1334   20136149.1884
        57.0004         51.0004
  23408852.5104  -12783770.69743  -9951289.37142  23408852.9634   23408851.0064
        50.0004         41.0004
  21168921.1174  -21512830.34044 -16719262.56042  21168922.2174   21168918.3414
        57.0004         50.0004
 03 12 17 18 49 30.0000000  0  7G26G29G28G27G 8G11G 7
  22634015.3694  -10734972.06243  -8359517.62142  22634016.5794   22634013.6864
        50.0004         44.0004
  22081968.5084  -17104007.04043 -13271962.67742  22081970.6004   22081966.0754
        53.0004         47.0004
  20828953.3314   -8201899.40544  -6388940.61342  20828955.0034   20828948.7864
        57.0004         51.0004
  21531610.6374    9016358.82543   7025869.00342  21531611.9344   21531607.8504
        54.0004         47.0004
  20138842.6364   -6509546.49444  -5065634.42142  20138842.9154   20138838.3914
        57.0004         51.0004
  23405946.7284  -12799028.99943  -9963178.94442  23405948.7964   23405945.9054
        49.0004         41.0004
  21156901.9334  -21575990.50444 -16768478.25242  21156902.8794   21156899.2864
        57.0004         50.0004
 03 12 17 18 50  0.0000000  0  7G26G29G28G27G 8G11G 7
  22624167.5864  -10786718.40543  -8399839.42642  22624169.2744   22624165.1214
        50.0004         44.0004
  22075865.5274  -17136078.50543 -13296953.41542  22075867.2734   22075863.1234
        54.0004         47.0004
  20828784.7204   -8202785.47344  -6389631.05942  20828786.2694   20828780.3514
        57.0004         51.0004
  21542745.0484    9074869.51543   7071461.68042  21542745.6124   21542742.1014
        54.0004         47.0004
  20141611.2844   -6494998.70144  -5054298.49842  20141611.2054   20141606.5124
        57.0004         51.0004
  23403133.5124  -12813824.90143  -9974708.21842  23403134.7944   23403128.7904
        50.0004         41.0004
  21144959.8364  -21638746.80644 -16817379.24242  21144961.1264   21144957.0784
        57.0004         50.0004
 03 12 17 18 50 30.0000000  0  7G26G29G28G27G 8G11G 7
  22614418.5854  -10837948.57743  -8439759.01142  22614420.8344   22614417.2164
        51.0004         44.0004
  22069866.0154  -17167605.73643 -13321520.07742  22069868.0814   22069863.7374
        54.0004         47.0004
  20828653.7914   -8203472.51044  -6390166.41842  20828655.6824   20828649.5334
        57.0004         51.0004
  21553947.6314    9133743.88843   7117337.74642  21553949.0514   21553945.9384
        53.0004         46.0004
  20144459.7034   -6480028.69544  -5042633.57242  20144459.9794   20144455.2984
        57.0004         51.0004
  23400405.2134  -12828153.00343  -9985872.96942  23400408.1944   23400402.2124
        49.0004         41.0004
  21133095.4754  -21701094.37544 -16865961.73442  21133096.9164   21133093.0174
        57.0004         50.0004
 03 12 17 18 51  0.0000000  0  7G26G29G28G27G 8G11G 7
  22604768.0654  -10888663.04143  -8479276.75542  22604770.4104   22604767.2664
        51.0004         44.0004
  22063969.8464  -17198589.72543 -13345663.43642  22063971.5494   22063967.0624
        53.0004         47.0004
  20828560.6314   -8203963.34944  -6390548.89842  20828562.2034   20828556.1004
        57.0004         51.0004
  21565220.1684    9192979.33243   7163495.16342  21565221.6224   21565218.1644
        53.0004         47.0004
  20147388.8104   -6464637.68644  -5030640.59042  20147388.7264   20147384.0154
        58.0004         51.0004
  23397767.2394  -12842014.68243  -9996674.28042  23397770.4644   23397765.4724
        49.0004         41.0004
  21121308.7794  -21763034.02644 -16914226.36942  21121310.0974   21121306.2234
        57.0004         50.0004
 03 12 17 18 51 30.0000000  0  7G26G29G28G27G 8G11G 7
  22595216.4834  -10938858.99643  -8518390.46242  22595218.2924   22595214.4314
        51.0004         44.0004
  22058177.5644  -17229028.27343 -13369381.77242  22058179.2544   22058175.7514
        53.0004         47.0004
  20828504.5644   -8204257.52644  -6390778.13642  20828506.4404   20828500.3294
        57.0004         51.0004
  21576561.9114    9252577.00043   7209934.83842  21576562.6404   21576558.9054
        54.0004         47.0004
  20150398.0664   -6448823.90344  -5018318.17742  20150398.0934   20150393.3684
        57.0004         51.0004
  23395219.0084  -12855407.13743 -10007109.97142  23395220.6604   23395215.0764
        50.0004         41.0004
  21109600.0624  -21824563.38744 -16962171.29542  21109601.2304   21109597.4844
        57.0004         50.0004
 03 12 17 18 52  0.0000000  0  7G26G29G28G27G 8G11G 7
  22585763.1914  -10988536.61743  -8557100.27742  22585765.5324   22585761.3084
        51.0004         44.0004
  22052489.0774  -17258922.39143 -13392675.88642  22052491.0404   22052486.1134
        54.0004         47.0004
  20828485.4974   -8204357.56444  -6390856.09742  20828487.0064   20828481.1224
        57.0004         51.0004
  21587970.9774    9312534.73043   7256655.08842  21587972.4644   21587968.2524
        53.0004         47.0004
  20153487.4794   -6432588.28344  -5005667.05542  20153487.5264   20153483.0044
        58.0004         51.0004
  23392759.2944  -12868331.02043 -10017180.54942  23392762.4534   23392758.8274
        49.0004         41.0004
  21097969.3604  -21885683.23344 -17009797.11642  21097970.7674   21097966.5194
        57.0004         50.0004
 03 12 17 18 52 30.0000000  0  7G26G29G28G27G 8G11G 7
  22576409.4554  -11037690.38343  -8595401.88642  22576411.8284   22576407.8574
        51.0004         44.0004
  22046904.5534  -17288267.19443 -13415541.95842  22046907.0904   22046901.8014
        53.0004         47.0004
  20828504.0784   -8204260.14544  -6390780.20242  20828505.8834   20828499.8754
        57.0004         51.0004
  21599449.2264    9372856.16843   7303658.74342  21599451.0494   21599447.0104
        53.0004         46.0004
  20156658.1694   -6415926.20644  -4992683.63542  20156658.7334   20156653.5894
        58.0004         51.0004
  23390391.2424  -12880780.80843 -10026881.70742  23390394.5074   23390388.3054
        50.0004         42.0004
  21086417.5674  -21946388.36544 -17057099.78342  21086418.4274   21086414.7474
        57.0004         50.0004
 03 12 17 18 53  0.0000000  0  7G26G29G28G27G 8G11G 7
  22567154.9144  -11086323.84043  -8633298.05742  22567156.5094   22567153.7644
        51.0004         44.0004
  22041424.5424  -17317066.95343 -13437983.33142  22041426.1324   22041421.9224
        54.0004         47.0004
  20828559.1714   -8203971.17444  -6390555.04442  20828560.7604   20828554.4524
        57.0004         51.0004
  21610996.6224    9433535.85343   7350941.54342  21610998.6614   21610994.2654
        53.0004         46.0004
  20159909.1584   -6398842.01744  -4979371.29442  20159909.2824   20159904.8174
        57.0004         51.0004
  23388111.5524  -12892760.57243 -10036216.59542  23388113.6154   23388109.9344
        50.0004         41.0004
  21074943.9174  -22006682.91544 -17104082.51842  21074945.1824   21074941.1834
        57.0004         50.0004
 03 12 17 18 53 30.0000000  0  7G26G29G28G27G 8G11G 7
  22558000.2824  -11134430.70943  -8670783.88942  22558001.7444   22557997.6944
        51.0004         44.0004
  22036049.0934  -17345315.74143 -13459995.37342  22036051.3994   22036046.0844
        54.0004         47.0004
  20828651.4724   -8203486.47444  -6390177.36742  20828653.1684   20828646.8204
        57.0004         51.0004
  21622613.1114    9494578.19243   7398506.93542  21622614.5374   21622609.9144
        53.0004         46.0004
  20163241.7594   -6381330.25144  -4965725.77842  20163241.9134   20163236.9804
        58.0004         51.0004
  23385920.9204  -12904264.28143 -10045180.55242  23385923.0664   23385919.7444
        49.0004         41.0004
  21063549.5464  -22066560.86144 -17150740.62642  21063550.3704   21063546.9534
        57.0004         50.0004
 03 12 17 18 54  0.0000000  0  7G26G29G28G27G 8G11G 7
  22548945.8624  -11182011.79643  -8707860.03642  22548948.8324   22548943.7274
        51.0004         44.0004
  22030777.6994  -17373015.50243 -13481579.60542  22030780.3024   22030775.4534
        54.0004         47.0004
  20828780.2264   -8202809.19444  -6389649.63342  20828781.9374   20828776.0944
        57.0004         51.0004
  21634297.1424    9555980.31243   7446352.67342  21634298.9514   21634295.3094
        52.0004         46.0004
  20166655.1414   -6363392.59744  -4951748.39742  20166655.1394   20166650.3334
        58.0004         51.0004
  23383823.3364  -12915293.39243 -10053774.70242  23383826.0934   23383820.3604
        50.0004         41.0004
  21052234.1334  -22126023.63944 -17197075.22942  21052235.1244   21052231.3984
        57.0004         50.0004
 03 12 17 18 54 30.0000000  0  7G26G29G28G27G 8G11G 7
  22539991.9344  -11229064.69943  -8744524.61042  22539995.0704   22539990.0304
        51.0004         44.0004
  22025611.5744  -17400164.19843 -13502734.43442  22025613.7874   22025609.3624
        53.0004         47.0004
  20828945.9884   -8201938.88244  -6388971.48242  20828947.7004   20828941.6384
        57.0004         51.0004
  21646050.7954    9617743.00343   7494479.37442  21646051.9834   21646048.1044
        52.0004         46.0004
  20170149.8294   -6345027.56244  -4937437.99542  20170149.8504   20170145.0694
        58.0004         51.0004
  23381814.9534  -12925845.63743 -10061997.24042  23381817.3464   23381812.2484
        50.0004         41.0004
  21040997.9734  -22185069.22644 -17243084.74842  21040999.1084   21040995.0524
        57.0004         50.0004
 03 12 17 18 55  0.0000000  0  7G26G29G28G27G 8G11G 7
  22531138.1664  -11275589.73643  -8780777.85342  22531140.5034   22531135.5624
        51.0004         44.0004
  22020549.7924  -17426762.96643 -13523460.74642  22020551.8514   22020547.5644
        54.0004         47.0004
  20829147.7214   -8200878.10144  -6388144.91342  20829149.3794   20829143.3894
        57.0004         51.0004
  21657871.6384    9679864.12943   7542885.37542  21657873.3804   21657869.8734
        53.0004         46.0004
  20173725.9024   -6326235.95944  -4922795.20042  20173725.9054   20173721.5574
        58.0004         51.0004
  23379898.2804  -12935921.40143 -10069848.50742  23379899.8914   23379896.2144
        50.0004         41.0004
  21029841.2164  -22243698.22944 -17288769.65942  21029842.4254   21029838.8224
        57.0004         50.0004
 03 12 17 18 55 30.0000000  0  7G26G29G28G27G 8G11G 7
  22522386.3864  -11321581.88543  -8816615.86942  22522388.6114   22522383.3264
        51.0004         44.0004
  22015593.7514  -17452807.34243 -13543755.07542  22015595.7344   22015591.3084
        53.0004         47.0004
  20829386.3834   -8199624.02544  -6387167.72642  20829388.0114   20829382.1214
        57.0004         51.0004
  21669761.4474    9742346.72443   7591573.04542  21669763.5744   21669759.5594
        52.0004         46.0004
  20177383.6874   -6307013.73644  -4907816.85142  20177383.7294   20177379.0864
        58.0004         51.0004
  23378072.2314  -12945516.10043 -10077324.91942  23378074.2524   23378070.7584
        50.0004         41.0004
  21018764.6224  -22301906.16644 -17334126.46942  21018765.7154   21018761.9494
        57.0004         50.0004
 03 12 17 18 56  0.0000000  0  7G26G29G28G27G 8G11G 7
  22513735.3344  -11367043.62443  -8852040.57242  22513737.8854   22513732.9884
        51.0004         44.0004
  22010742.5204  -17478300.59543 -13563619.95342  22010744.3094   22010740.1284
        54.0004         47.0004
  20829661.1064   -8198181.08544  -6386043.36742  20829662.7724   20829656.7664
        57.0004         51.0004
  21681719.8594    9805186.40743   7640538.96242  21681721.3004   21681717.8544
        53.0004         46.0004
  20181122.8334   -6287364.19244  -4892505.52842  20181123.1844   20181118.2694
        57.0004         51.0004
  23376337.0654  -12954632.58543 -10084428.68142  23376340.2464   23376335.0634
        50.0004         41.0004
  21007767.6144  -22359695.93744 -17379157.43342  21007768.5974   21007764.9624
        57.0004         50.0004
 03 12 17 18 56 30.0000000  0  7G26G29G28G27G 8G11G 7
  22505185.8074  -11411969.59543  -8887047.80142  22505188.5294   22505184.0054
        51.0004         44.0004
  22005997.2744  -17503238.12243 -13583051.80342  22005999.6944   22005994.1104
        54.0004         47.0004
  20829971.9744   -8196546.35344  -6384769.56142  20829973.6104   20829967.8124
        57.0004         51.0004
  21693746.1974    9868386.58043   7689785.78742  21693748.7354   21693744.2074
        52.0004         46.0004
  20184944.1464   -6267282.89244  -4876857.76842  20184944.5634   20184939.6874
        57.0004         51.0004
  23374694.1134  -12963266.12343 -10091156.13542  23374695.2244   23374690.5914
        49.0004         41.0004
  20996850.9844  -22417062.70744 -17423858.78842  20996852.0344   20996848.4274
        57.0004         50.0004
 03 12 17 18 57  0.0000000  0  7G26G29G28G27G 8G11G 7
  22496739.4044  -11456361.24943  -8921638.66742  22496741.2164   22496736.2764
        51.0004         44.0004
  22001357.2394  -17527622.03843 -13602052.26442  22001358.9444   22001354.4584
        54.0004         47.0004
  20830318.9684   -8194723.15144  -6383348.89342  20830320.7524   20830314.6984
        57.0004         51.0004
  21705840.6144    9931944.23243   7739311.16842  21705842.5134   21705839.5424
        52.0004         46.0004
  20188847.4154   -6246771.76144  -4860875.07642  20188847.5374   20188842.8114
        57.0004         51.0004
  23373144.1884  -12971418.43743 -10097508.59842  23373146.0494   23373140.2314
        50.0004         42.0004
  20986014.7014  -22474008.12244 -17468231.81642  20986016.1074   20986011.8814
        57.0004         50.0004
 03 12 17 18 57 30.0000000  0  7G26G29G28G27G 8G11G 7
  22488393.3444  -11500218.33943  -8955813.00542  22488395.2714   22488390.5224
        51.0004         44.0004
  21996822.5624  -17551452.84243 -13620621.73642  21996824.2494   21996820.0044
        54.0004         47.0004
  20830701.4414   -8192713.34744  -6381782.81942  20830703.2354   20830697.0914
        57.0004         51.0004
  21718003.2184    9995857.49143   7789113.63942  21718004.9284   21718000.5404
        53.0004         46.0004
  20192832.2534   -6225831.58744  -4844558.06942  20192832.2394   20192827.5724
        57.0004         51.0004
  23371682.9334  -12979089.48943 -10103486.06142  23371687.1474   23371679.6784
        50.0004         41.0004
  20975258.4804  -22530532.48544 -17512276.75242  20975259.2434   20975255.5854
        57.0004         50.0004
 03 12 17 18 58  0.0000000  0  7G26G29G28G27G 8G11G 7
  22480150.2134  -11543532.79843  -8989564.49042  22480151.9214   22480148.0924
        51.0004         44.0004
  21992393.8994  -17574723.13843 -13638754.45042  21992395.9154   21992391.3204
        54.0004         47.0004
  20831120.7134   -8190510.91244  -6380066.64242  20831122.3354   20831116.4984
        57.0004         51.0004
  21730234.2824   10060132.80343   7839198.23642  21730236.3534   21730233.4254
        52.0004         46.0004
  20196899.7224   -6204455.04544  -4827901.03042  20196900.0814   20196895.3804
        57.0004         51.0004
  23370316.2194  -12986271.63643 -10109082.55342  23370319.4574   23370314.4824
        50.0004         41.0004
  20964583.7424  -22586628.10144 -17555987.59842  20964584.9744   20964581.1194
        57.0004         50.0004
 03 12 17 18 58 30.0000000  0  7G26G29G28G27G 8G11G 7
  22472010.4924  -11586309.83743  -9022897.23342  22472013.2904   22472008.0834
        51.0004         44.0004
  21988071.4524  -17597438.83643 -13656454.99742  21988073.4604   21988068.3784
        54.0004         47.0004
  20831575.0774   -8188122.78944  -6378205.76942  20831576.7484   20831570.7294
        57.0004         51.0004
  21742533.2334   10124763.12543   7889559.46342  21742535.0854   21742531.0024
        52.0004         46.0004
  20201049.9004   -6182647.93344  -4810908.48242  20201049.8414   20201045.1634
        57.0004         51.0004
  23369041.5784  -12992969.92343 -10114301.99742  23369045.8204   23369039.0794
        49.0004         41.0004
  20953989.6784  -22642300.52344 -17599368.68042  20953990.7444   20953986.8774
        57.0004         50.0004
 03 12 17 18 59  0.0000000  0  7G26G29G28G27G 8G11G 7
  22463972.3754  -11628546.34743  -9055808.76842  22463974.5884   22463970.3844
        51.0004         44.0004
  21983854.9804  -17619597.46843 -13673721.47542  21983856.9524   21983852.2604
        54.0004         47.0004
  20832065.1164   -8185548.23344  -6376199.62142  20832066.5414   20832060.6104
        57.0004         51.0004
  21754900.0474   10189749.50643   7940198.13842  21754902.2824   21754898.2164
        52.0004         46.0004
  20205281.7554   -6160408.03444  -4793578.69842  20205282.0204   20205277.2504
        57.0004         51.0004
  23367860.0964  -12999182.00343 -10119142.59842  23367861.5554   23367857.0364
        49.0004         41.0004
  20943476.5504  -22697547.11044 -17642417.94142  20943477.5284   20943473.5214
        57.0004         50.0004
 03 12 17 18 59 30.0000000  0  7G26G29G28G27G 8G11G 7
  22456038.5774  -11670239.95243  -9088297.26942  22456040.5244   22456037.3024
        51.0004         44.0004
  21979744.4494  -17641197.42343 -13690552.61542  21979746.4114   21979742.0304
        54.0004         47.0004
  20832590.4454   -8182786.49644  -6374047.62442  20832592.1314   20832586.3584
        57.0004         51.0004
  21767334.6834   10255092.79643   7991114.91842  21767336.5034   21767332.6514
        52.0004         46.0004
  20209596.6044   -6137733.70844  -4775910.40242  20209596.6714   20209592.1454
        57.0004         51.0004
  23366771.5244  -13004906.18543 -10123603.01342  23366773.5744   23366767.6644
        50.0004         42.0004
  20933044.8754  -22752365.86844 -17685133.83242  20933046.0564   20933041.9874
        57.0004         50.0004
 03 12 17 19  0  0.0000000  0  7G26G29G28G27G 8G11G 7
  22448208.0674  -11711389.71143  -9120361.99842  22448210.1734   22448205.9124
        51.0004         44.0004
  21975740.4384  -17662238.65343 -13706948.38842  21975742.7604   21975738.5044
        54.0004         47.0004
  20833151.3724   -8179838.71544  -6371750.65242  20833153.1214   20833147.0774
        57.0004         51.0004
  21779836.6124   10320791.89343   8042308.95742  21779838.4094   21779834.6064
        53.0004         46.0004
  20213994.4704   -6114624.74044  -4757903.42642  20213994.2224   20213989.4644
        57.0004         51.0004
  23365775.3074  -13010141.34243 -10127682.36742  23365775.7554   23365773.2734
        50.0004         42.0004
  20922694.7014  -22806756.34244 -17727515.99142  20922695.8124   20922691.8194
        57.0004         50.0004
 03 12 17 19  0 30.0000000  0  7G26G29G28G27G 8G11G 7
  22440480.2854  -11751996.59643  -9152003.70942  22440482.7784   22440479.1184
        51.0004         44.0004
  21971842.2774  -17682722.58443 -13722909.89942  21971844.6564   21971840.2024
        54.0004         47.0004
  20833747.4154   -8176707.57944  -6369310.80942  20833749.0094   20833743.0274
        57.0004         51.0004
  21792406.1234   10386844.21543   8093778.24142  21792407.9284   21792404.0554
        52.0004         46.0004
  20218473.8944   -6091082.63844  -4739558.94042  20218474.4634   20218469.5064
        57.0004         51.0004
  23364871.1004  -13014889.01243 -10131381.85942  23364872.9604   23364869.1544
        50.0004         42.0004
  20912425.4934  -22860719.64744 -17769565.29042  20912426.6924   20912422.9874
        57.0004         50.0004
 03 12 17 19  1  0.0000000  0  7G26G29G28G27G 8G11G 7
  22432857.8224  -11792055.43943  -9183218.36442  22432859.0844   22432855.2544
        51.0004         44.0004
  21968051.5474  -17702644.82443 -13738433.72542  21968053.6464   21968049.1084
        54.0004         47.0004
  20834378.6804   -8173390.00144  -6366725.68742  20834380.3594   20834374.3234
        57.0004         51.0004
  21805042.9254   10453253.17843   8145525.41642  21805044.4424   21805041.3134
        52.0004         46.0004
  20223037.3084   -6067103.05544  -4720873.56142  20223037.4444   20223032.8714
        57.0004         51.0004
  23364061.1564  -13019144.05643 -10134697.49842  23364062.1314   23364060.5294
        49.0004         41.0004
  20902238.9574  -22914251.09044 -17811278.07642  20902240.0214   20902236.0584
        57.0004         50.0004
 03 12 17 19  1 30.0000000  0  7G26G29G28G27G 8G11G 7
  22425338.7724  -11831568.35043  -9214007.63142  22425341.6624   22425335.9074
        51.0004         44.0004
  21964366.6614  -17722008.35843 -13753522.18842  21964368.8874   21964364.2774
        54.0004         47.0004
  20835044.5684   -8169890.00944  -6363998.42942  20835046.4504   20835040.3084
        57.0004         51.0004
  21817747.6924   10520014.70543   8197547.31842  21817749.0094   21817745.5464
        52.0004         45.0004
  20227682.9854   -6042688.89344  -4701849.55142  20227683.3314   20227678.6844
        57.0004         51.0004
  23363346.3054  -13022909.15343 -10137631.35842  23363348.4844   23363342.9164
        50.0004         42.0004
  20892133.9014  -22967353.29644 -17852656.39242  20892135.3774   20892131.2014
        57.0004         50.0004
 03 12 17 19  2  0.0000000  0  7G26G29G28G27G 8G11G 7
  22417924.8974  -11870529.06643  -9244366.60842  22417927.2194   22417922.4284
        51.0004         44.0004
  21960789.4124  -17740807.53843 -13768170.89442  21960791.2754   21960786.6694
        54.0004         47.0004
  20835746.1974   -8166202.88044  -6361125.34542  20835747.9944   20835741.8244
        57.0004         51.0004
  21830519.4394   10587133.47043   8249847.58442  21830522.1044   21830518.3174
        52.0004         46.0004
  20232412.5344   -6017834.40244  -4682482.42542  20232413.1254   20232408.3834
        57.0004         51.0004
  23362722.1694  -13026178.29343 -10140178.74742  23362724.3304   23362721.1124
        49.0004         41.0004
  20882111.8714  -23020020.18144 -17893695.49542  20882113.3454   20882109.1494
        57.0004         50.0004
 03 12 17 19  2 30.0000000  0  7G26G29G28G27G 8G11G 7
  22410614.0534  -11908945.41943  -9274301.40442  22410615.5544   22410611.7724
        51.0004         44.0004
  21957317.7664  -17759050.82743 -13782386.43542  21957319.9164   21957315.5414
        54.0004         47.0004
  20836481.8114   -8162338.38344  -6358114.05342  20836483.5184   20836477.4834
        57.0004         51.0004
  21843357.9344   10654599.88643   8302418.75342  21843360.3084   21843356.8954
        52.0004         46.0004
  20237224.0984   -5992548.39744  -4662779.05342  20237224.7134   20237219.8264
        57.0004         51.0004
  23362193.9034  -13028959.99043 -10142346.34142  23362196.5194   23362191.3964
        50.0004         42.0004
  20872170.8854  -23072259.99844 -17934401.82042  20872172.1384   20872168.0404
        57.0004         50.0004
 03 12 17 19  3  0.0000000  0  7G26G29G28G27G 8G11G 7
  22403410.2244  -11946805.25143  -9303802.55842  22403412.3294   22403407.9654
        52.0004         44.0004
  21953954.1384  -17776726.92043 -13796160.00842  21953956.3564   21953951.4484
        54.0004         47.0004
  20837253.0564   -8158285.94144  -6354956.30642  20837254.6714   20837248.5214
        57.0004         51.0004
  21856265.1584   10722424.38043   8355268.94042  21856266.9734   21856262.6884
        52.0004         45.0004
  20242120.6674   -5966819.13144  -4642730.28042  20242120.8114   20242116.0144
        57.0004         51.0004
  23361759.5824  -13031241.73043 -10144124.35442  23361761.8574   23361758.1804
        49.0004         42.0004
  20862313.4814  -23124060.88944 -17974766.12542  20862314.6464   20862310.6674
        57.0004         50.0004
 03 12 17 19  3 30.0000000  0  7G26G29G28G27G 8G11G 7
  22396310.3144  -11984116.18743  -9332875.99642  22396313.1534   22396307.5704
        52.0004         45.0004
  21950696.7954  -17793844.30043 -13809498.22042  21950698.8274   21950694.2594
        54.0004         47.0004
  20838057.9524   -8154055.11244  -6351659.55542  20838059.4524   20838053.5114
        57.0004         51.0004
  21869237.8884   10790597.36343   8408390.68142  21869239.4954   21869235.1884
        52.0004         45.0004
  20247099.2524   -5940655.19644  -4622342.80642  20247099.6674   20247094.7954
        57.0004         51.0004
  23361418.0214  -13033031.92043 -10145519.35242  23361420.9874   23361417.0064
        49.0004         42.0004
  20852538.0614  -23175431.03244 -18014794.78342  20852539.1794   20852535.1254
        57.0004         50.0004
 03 12 17 19  4  0.0000000  0  7G26G29G28G27G 8G11G 7
  22389315.8024  -12020872.20443  -9361517.03342  22389317.9854   22389313.0184
        52.0004         45.0004
  21947546.9174  -17810397.32643 -13822396.68342  21947549.0114   21947544.1674
        54.0004         47.0004
  20838897.8894   -8149641.47144  -6348220.35842  20838899.8414   20838893.4614
        57.0004         51.0004
  21882278.2054   10859123.42943   8461787.54642  21882279.5504   21882276.3704
        52.0004         45.0004
  20252162.1464   -5914050.77244  -4601612.09642  20252162.2704   20252157.5664
        57.0004         51.0004
  23361172.6424  -13034324.84043 -10146526.85642  23361173.4724   23361169.7854
        50.0004         41.0004
  20842845.7744  -23226364.50944 -18054483.18242  20842847.1524   20842842.6614
        58.0004         51.0004
 03 12 17 19  4 30.0000000  0  7G26G29G28G27G 8G11G 7
  22382426.3914  -12057074.03343  -9389726.23342  22382429.3774   22382424.2184
        52.0004         45.0004
  21944504.0944  -17826387.75643 -13834856.75342  21944506.3054   21944501.4704
        54.0004         47.0004
  20839771.9364   -8145047.46044  -6344640.61142  20839773.5874   20839767.7154
        57.0004         51.0004
  21895385.4294   10927999.85543   8515457.42642  21895386.2564   21895384.2754
        52.0004         45.0004
  20257308.3684   -5887007.50344  -4580539.42742  20257308.6974   20257303.5994
        57.0004         51.0004
  23361021.5394  -13035121.32243 -10147147.52842  23361023.2784   23361017.4394
        50.0004         42.0004
  20833236.2854  -23276862.47644 -18093832.22442  20833237.4714   20833233.6344
        57.0004         51.0004
 03 12 17 19  5  0.0000000  0  7G26G29G28G27G 8G11G 7
  22375643.0484  -12092720.53543  -9417502.71642  22375645.8504   22375641.2164
        52.0004         45.0004
  21941568.3804  -17841815.32243 -13846878.22842  21941570.5914   21941565.8734
        54.0004         47.0004
  20840680.6084   -8140273.76844  -6340920.85742  20840682.1494   20840676.0324
        57.0004         51.0004
  21908558.3694   10997225.99843   8569399.81242  21908560.5684   21908556.0594
        51.0004         45.0004
  20262537.9364   -5859525.05144  -4559124.53542  20262538.4524   20262533.4234
        57.0004         51.0004
  23360963.4824  -13035420.90343 -10147380.99742  23360967.6674   23360962.0674
        49.0004         42.0004
  20823709.7364  -23326924.24344 -18132841.36842  20823711.0884   20823706.8154
        58.0004         51.0004
 03 12 17 19  5 30.0000000  0  7G26G29G28G27G 8G11G 7
  22368966.4334  -12127807.95543  -9444843.54342  22368968.6604   22368964.1134
        52.0004         45.0004
  21938740.1534  -17856676.72043 -13858458.53442  21938742.0674   21938737.4954
        54.0004         47.0004
  20841623.5934   -8135318.05144  -6337059.26542  20841625.2074   20841619.2284
        57.0004         51.0004
  21921798.6264   11066804.22643   8623616.54242  21921800.5084   21921797.0284
        51.0004         45.0004
  20267851.9704   -5831600.13244  -4537364.86742  20267852.0854   20267847.4794
        57.0004         51.0004
  23361003.0524  -13035219.89343 -10147224.38142  23361003.8984   23361000.1604
        50.0004         41.0004
  20814267.0544  -23376546.21044 -18171507.81342  20814268.1424   20814264.0624
        58.0004         51.0004
 03 12 17 19  6  0.0000000  0  7G26G29G28G27G 8G11G 7
  22362395.3934  -12162340.06043  -9471751.66042  22362396.7744   22362393.1104
        52.0004         45.0004
  21936019.1124  -17870976.51743 -13869601.22842  21936020.9774   21936016.6784
        54.0004         47.0004
  20842600.3294   -8130185.76544  -6333060.08742  20842601.8384   20842595.9124
        57.0004         51.0004
  21935105.1724   11136728.89343   8678103.22842  21935105.9544   21935103.6824
        51.0004         45.0004
  20273249.5544   -5803237.11444  -4515263.82342  20273249.4044   20273244.7024
        57.0004         51.0004
  23361134.4774  -13034522.64543 -10146681.07942  23361136.4684   23361130.3174
        50.0004         41.0004
  20804907.2334  -23425732.59844 -18209834.84442  20804908.5084   20804904.2024
        58.0004         51.0004
 03 12 17 19  6 30.0000000  0  7G26G29G28G27G 8G11G 7
  22355930.6154  -12196310.59643  -9498222.19242  22355932.8434   22355928.1184
        52.0004         45.0004
  21933405.7584  -17884709.29143 -13880302.08442  21933407.6634   21933402.4094
        54.0004         47.0004
  20843611.4074   -8124872.23744  -6328919.68142  20843612.9294   20843606.8824
        57.0004         51.0004
  21948477.7644   11207004.57543   8732863.43142  21948479.3784   21948476.2724
        52.0004         45.0004
  20278731.0344   -5774430.48244  -4492817.10942  20278731.3944   20278726.5654
        57.0004         51.0004
  23361363.4204  -13033323.18143 -10145746.44142  23361364.7054   23361361.4764
        50.0004         41.0004
  20795631.5434  -23474477.32844 -18247817.72842  20795632.5334   20795628.3084
        58.0004         51.0004
 03 12 17 19  7  0.0000000  0  7G26G29G28G27G 8G11G 7
  22349572.6554  -12229721.80443  -9524256.89142  22349574.8434   22349571.7084
        52.0004         45.0004
  21930899.8694  -17897878.01943 -13890563.42742  21930901.8364   21930897.3864
        54.0004         47.0004
  20844656.5344   -8119381.21544  -6324640.97142  20844658.0174   20844651.7934
        57.0004         51.0004
  21961917.0634   11277627.36243   8787894.11242  21961918.7984   21961915.3534
        52.0004         45.0004
  20284296.8224   -5745182.93544  -4470026.82642  20284296.7914   20284292.2014
        57.0004         51.0004
  23361686.7004  -13031623.83843 -10144422.29942  23361687.6804   23361685.3734
        50.0004         42.0004
  20786439.1284  -23522782.94944 -18285458.44742  20786440.2664   20786436.2104
        58.0004         51.0004
 03 12 17 19  7 30.0000000  0  7G26G29G28G27G 8G11G 7
  22343321.0474  -12262573.33443  -9549855.47042  22343322.8084   22343319.3314
        52.0004         45.0004
  21928501.1624  -17910483.04743 -13900385.52542  21928503.4814   21928498.7274
        54.0004         47.0004
  20845734.6694   -8113713.81044  -6320224.81842  20845736.4644   20845730.3774
        57.0004         51.0004
  21975422.0454   11348596.05343   8843194.33742  21975423.0274   21975419.8114
        51.0004         45.0004
  20289946.1184   -5715494.87444  -4446893.28842  20289946.3264   20289941.4894
        57.0004         51.0004
  23362105.2724  -13029424.60543 -10142708.61942  23362108.8364   23362103.4644
        49.0004         42.0004
  20777330.4334  -23570649.50144 -18322757.03542  20777331.5034   20777327.3824
        58.0004         51.0004
 03 12 17 19  8  0.0000000  0  7G26G29G28G27G 8G11G 7
  22337177.5624  -12294858.62943  -9575012.84042  22337180.1044   22337175.3504
        52.0004         45.0004
  21926210.9714  -17922518.61143 -13909763.88442  21926213.3034   21926208.3544
        54.0004         47.0004
  20846847.9354   -8107865.05144  -6315667.35942  20846849.2574   20846843.4164
        57.0004         51.0004
  21988993.5764   11419915.32743   8898767.72942  21988994.7814   21988992.7214
        51.0004         45.0004
  20295680.6694   -5685360.16244  -4423411.70942  20295680.7514   20295676.0744
        57.0004         51.0004
  23362620.3394  -13026719.67343 -10140600.90442  23362621.4774   23362619.5424
        49.0004         42.0004
  20768306.2294  -23618070.66644 -18359708.56542  20768307.5784   20768303.3744
        58.0004         51.0004
 03 12 17 19  8 30.0000000  0  7G26G29G28G27G 8G11G 7
  22331140.1434  -12326584.99543  -9599734.68242  22331142.6804   22331137.8914
        52.0004         45.0004
  21924027.3834  -17933992.85443 -13918704.85442  21924029.8064   21924025.1554
        54.0004         47.0004
  20847993.3654   -8101843.80944  -6310975.49842  20847995.5114   20847989.1664
        57.0004         51.0004
  22002630.4684   11491576.25643   8954607.36742  22002631.4204   22002628.9634
        51.0004         45.0004
  20301498.5884   -5654786.96544  -4399588.45642  20301498.9314   20301494.0754
        57.0004         51.0004
  23363230.4454  -13023516.23643 -10138104.72542  23363231.4034   23363227.7684
        50.0004         42.0004
  20759365.7254  -23665054.28144 -18396319.14742  20759366.8234   20759362.7554
        58.0004         51.0004
 03 12 17 19  9  0.0000000  0  7G26G29G28G27G 8G11G 7
  22325210.1894  -12357748.20943  -9624017.70842  22325212.2164   22325208.4874
        52.0004         45.0004
  21921951.3044  -17944902.15243 -13927205.60742  21921953.2814   21921948.8074
        54.0004         47.0004
  20849172.5804   -8095646.97244  -6306146.80442  20849174.4554   20849168.1624
        57.0004         51.0004
  22016332.3774   11563581.56243   9010715.32642  22016335.0134   22016331.7384
        51.0004         45.0004
  20307400.3094   -5623771.51544  -4375420.59342  20307400.8004   20307396.2604
        57.0004         50.0004
  23363934.9134  -13019810.29743 -10135216.97842  23363936.6514   23363933.2794
        50.0004         42.0004
  20750509.2174  -23711596.14144 -18432585.50542  20750510.1834   20750506.3414
        58.0004         51.0004
 03 12 17 19  9 30.0000000  0  7G26G29G28G27G 8G11G 7
  22319387.6664  -12388343.67343  -9647858.32742  22319390.3594   22319386.9074
        52.0004         45.0004
  21919983.3594  -17955242.77043 -13935263.23542  21919985.4954   21919981.0544
        54.0004         47.0004
  20850386.0874   -8089271.67344  -6301179.05442  20850387.5064   20850381.7474
        57.0004         51.0004
  22030100.1964   11635934.16943   9067093.91842  22030102.3344   22030099.5704
        51.0004         45.0004
  20313387.4994   -5592309.75944  -4350904.96242  20313387.7134   20313382.6634
        57.0004         50.0004
  23364736.2564  -13015597.97343 -10131934.66742  23364738.8044   23364734.5684
        50.0004         42.0004
  20741737.3594  -23757692.05544 -18468504.37242  20741738.2784   20741734.4314
        58.0004         51.0004
 03 12 17 19 10  0.0000000  0  7G26G29G28G27G 8G11G 7
  22313673.5084  -12418375.25943  -9671259.55642  22313674.9504   22313670.6114
        52.0004         45.0004
  21918123.4514  -17965019.20243 -13942881.24342  21918125.2214   21918120.4644
        54.0004         47.0004
  20851632.2904   -8082723.00544  -6296076.20942  20851633.9484   20851627.8314
        57.0004         51.0004
  22043934.5884   11708628.49243   9123738.78342  22043935.5664   22043933.0304
        50.0004         45.0004
  20319458.8594   -5560406.02444  -4326044.92942  20319458.9054   20319454.1684
        57.0004         50.0004
  23365634.1074  -13010883.17543 -10128260.79742  23365633.8024   23365629.6834
        50.0004         42.0004
  20733049.4214  -23803346.12844 -18504078.94742  20733050.6254   20733046.6774
        57.0004         51.0004
 03 12 17 19 10 30.0000000  0  7G26G29G28G27G 8G11G 7
  22308066.1984  -12447841.03443  -9694219.89442  22308067.9724   22308064.0864
        52.0004         45.0004
  21916370.4164  -17974230.44543 -13950058.84742  21916372.2514   21916367.9994
        54.0004         47.0004
  20852911.4494   -8076000.38244  -6290837.81442  20852912.9884   20852906.9674
        57.0004         51.0004
  22057832.4444   11781665.06743   9180650.34842  22057834.4934   22057831.1604
        51.0004         45.0004
  20325614.0374   -5528059.17344  -4300839.61042  20325614.3244   20325609.3964
        57.0004         50.0004
  23366627.0804  -13005664.63143 -10124194.39742  23366629.5474   23366624.4344
        49.0004         42.0004
  20724446.2454  -23848556.57544 -18539307.84042  20724447.3634   20724443.2274
        58.0004         51.0004
 03 12 17 19 11  0.0000000  0  7G26G29G28G27G 8G11G 7
  22302566.9814  -12476738.14843  -9716737.12142  22302569.1664   22302565.0814
        52.0004         45.0004
  21914725.5664  -17982874.31243 -13956794.33442  21914727.5614   21914723.0264
        54.0004         47.0004
  20854223.9194   -8069102.28444  -6285462.67842  20854225.9064   20854219.8344
        57.0004         51.0004
  22071796.7844   11855044.94143   9237829.40642  22071798.0424   22071794.6024
        51.0004         44.0004
  20331854.1704   -5495266.68144  -4275287.04242  20331854.5114   20331849.6624
        57.0004         50.0004
  23367715.3994  -12999939.35443 -10119733.15142  23367717.9164   23367714.4714
        49.0004         41.0004
  20715927.9134  -23893320.69944 -18574188.94842  20715929.0954   20715924.8834
        58.0004         51.0004
 03 12 17 19 11 30.0000000  0  7G26G29G28G27G 8G11G 7
  22297176.2694  -12505065.45043  -9738810.33442  22297179.2164   22297174.1284
        52.0004         45.0004
  21913188.7594  -17990950.24843 -13963087.28742  21913191.1894   21913186.1084
        54.0004         47.0004
  20855570.1584   -8062028.68344  -6279950.78342  20855571.8364   20855565.7494
        57.0004         51.0004
  22085824.9224   11928767.76743   9295275.71142  22085826.7304   22085824.3094
        50.0004         44.0004
  20338179.5204   -5462027.78344  -4249386.62442  20338179.7764   20338174.7094
        57.0004         50.0004
  23368902.8074  -12993706.66043 -10114876.50942  23368904.3394   23368900.2164
        49.0004         41.0004
  20707494.6794  -23937637.81344 -18608721.73842  20707495.7544   20707491.7714
        58.0004         51.0004
 03 12 17 19 12  0.0000000  0  7G26G29G28G27G 8G11G 7
  22291894.2624  -12532824.45143  -9760440.72742  22291896.5944   22291892.4524
        52.0004         45.0004
  21911759.4674  -17998460.83143 -13968939.70842  21911761.8744   21911756.9514
        54.0004         47.0004
  20856948.9804   -8054782.68844  -6274304.56142  20856950.5964   20856944.7074
        57.0004         51.0004
  22099918.9534   12002830.34743   9352986.74342  22099920.0504   22099918.4164
        51.0004         44.0004
  20344589.0784   -5428344.81244  -4223140.18342  20344589.5434   20344584.3894
        57.0004         50.0004
  23370184.5844  -12986968.41543 -10109625.92942  23370187.0874   23370181.3644
        50.0004         42.0004
  20699146.2074  -23981509.78544 -18642907.66842  20699147.2504   20699143.2424
        58.0004         51.0004
 03 12 17 19 12 30.0000000  0  7G26G29G28G27G 8G11G 7
  22286719.9494  -12560014.20443  -9781627.53842  22286722.2474   22286717.9924
        52.0004         45.0004
  21910437.9784  -18005405.80343 -13974351.39042  21910439.8834   21910435.3434
        54.0004         47.0004
  20858360.7314   -8047364.57144  -6268524.21842  20858362.4554   20858356.4264
        57.0004         51.0004
  22114077.6884   12077232.11943   9410962.08742  22114079.3144   22114076.7114
        51.0004         44.0004
  20351083.2794   -5394217.47644  -4196547.47842  20351083.8144   20351079.1114
        57.0004         50.0004
  23371563.1974  -12979723.93543 -10103980.88042  23371566.3474   23371560.2404
        50.0004         41.0004
  20690882.3464  -24024935.70744 -18676746.02342  20690883.7314   20690879.2634
        58.0004         51.0004
 03 12 17 19 13  0.0000000  0  7G26G29G28G27G 8G11G 7
  22281654.4054  -12586633.22543  -9802369.62442  22281656.5274   22281652.4234
        52.0004         45.0004
  21909224.2494  -18011784.49143 -13979321.81642  21909225.9904   21909221.9394
        54.0004         47.0004
  20859805.1534   -8039773.93044  -6262609.43742  20859806.8524   20859800.8804
        57.0004         51.0004
  22128300.7994   12151973.02143   9469201.67642  22128301.3924   22128299.0934
        51.0004         44.0004
  20357662.2404   -5359644.53744  -4169607.55242  20357662.4324   20357658.0234
        57.0004         50.0004
  23373037.7154  -12971972.42343 -10097940.74842  23373040.6354   23373036.4714
        50.0004         41.0004
  20682703.7474  -24067914.43144 -18710235.91242  20682704.7294   20682700.8704
        58.0004         51.0004
 03 12 17 19 13 30.0000000  0  7G26G29G28G27G 8G11G 7
  22276697.9044  -12612681.64243  -9822667.08242  22276700.3714   22276696.0024
        52.0004         45.0004
  21908117.9754  -18017597.64643 -13983851.56742  21908119.7504   21908115.9064
        54.0004         47.0004
  20861282.1674   -8032011.91144  -6256561.11542  20861283.8864   20861277.9044
        57.0004         51.0004
  22142587.2424   12227051.42543   9527704.25542  22142588.1174   22142585.3454
        51.0004         44.0004
  20364326.3864   -5324626.62844  -4142320.90442  20364326.3004   20364321.5984
        57.0004         50.0004
  23374609.7964  -12963713.96243 -10091505.61342  23374612.2484   23374607.4274
        49.0004         42.0004
  20674610.3664  -24110446.23344 -18743377.55342  20674611.4404   20674607.2104
        58.0004         51.0004
 03 12 17 19 14  0.0000000  0  7G26G29G28G27G 8G11G 7
  22271850.5344  -12638155.62343  -9842516.93142  22271852.6514   22271848.3234
        52.0004         45.0004
  21907120.0524  -18022842.12343 -13987938.19642  21907122.5194   21907117.4984
        54.0004         47.0004
  20862792.2984   -8024075.90744  -6250377.22142  20862794.1284   20862788.0684
        57.0004         51.0004
  22156938.5244   12302469.65443   9586471.63642  22156940.6104   22156937.4544
        51.0004         44.0004
  20371075.2734   -5289160.35744  -4114684.88042  20371075.6064   20371070.7794
        57.0004         50.0004
  23376278.5784  -12954944.90943 -10084672.57842  23376280.2704   23376278.8964
        49.0004         42.0004
  20666602.5694  -24152527.49944 -18776168.12942  20666603.6954   20666599.5274
        58.0004         51.0004
 03 12 17 19 14 30.0000000  0  7G26G29G28G27G 8G11G 7
  22267111.2984  -12663060.63443  -9861923.42742  22267113.9924   22267109.1854
        52.0004         45.0004
  21906229.0564  -18027524.35743 -13991586.70342  21906231.2914   21906226.9964
        54.0004         47.0004
  20864334.1674   -8015972.44144  -6244062.83742  20864336.0584   20864329.9664
        57.0004         51.0004
  22171354.0984   12378220.74643   9645498.39742  22171353.9984   22171352.2904
        51.0004         44.0004
  20377908.3684   -5253251.65344  -4086704.09842  20377908.5284   20377903.8754
        57.0004         50.0004
  23378043.7634  -12945671.09843 -10077446.24242  23378045.8124   23378044.4994
        50.0004         41.0004
  20658679.2304  -24194163.79444 -18808611.97342  20658680.4544   20658676.3304
        58.0004         51.0004
 03 12 17 19 15  0.0000000  0  7G26G29G28G27G 8G11G 7
  22262481.2494  -12687391.54343  -9880882.57042  22262483.6594   22262479.3374
        52.0004         45.0004
  21905446.0024  -18031639.88643 -13994793.62642  21905448.1544   21905443.4354
        54.0004         47.0004
  20865909.0804   -8007697.64844  -6237614.95842  20865911.1014   20865904.9184
        57.0004         51.0004
  22185832.7534   12454308.17543   9704787.21242  22185834.6864   22185831.2544
        50.0004         44.0004
  20384826.7154   -5216895.87644  -4058374.95142  20384826.9084   20384822.0794
        57.0004         50.0004
  23379905.7534  -12935887.65643 -10069822.77142  23379906.9784   23379903.2274
        50.0004         41.0004
  20650841.7774  -24235350.38244 -18840705.39942  20650842.8444   20650838.8644
        58.0004         51.0004
 03 12 17 19 15 30.0000000  0  7G26G29G28G27G 8G11G 7
  22257960.9104  -12711146.08643  -9899392.59942  22257962.8454   22257959.1424
        53.0004         46.0004
  21904771.0324  -18035187.07243 -13997557.68842  21904772.8364   21904768.8274
        54.0004         47.0004
  20867516.3984   -7999250.34944  -6231032.65842  20867518.1494   20867512.3064
        57.0004         51.0004
  22200376.0354   12530732.77343   9764338.76342  22200376.9504   22200374.1024
        50.0004         44.0004
  20391830.4904   -5180091.10044  -4029695.93342  20391830.5654   20391825.8674
        57.0004         50.0004
  23381864.4964  -12925592.79043 -10061800.77242  23381866.5404   23381863.0864
        50.0004         41.0004
  20643090.1784  -24276084.99844 -18872446.63942  20643091.6604   20643087.2914
        58.0004         51.0004
 03 12 17 19 16  0.0000000  0  7G26G29G28G27G 8G11G 7
  22253549.9934  -12734327.10043  -9917455.72242  22253551.9494   22253546.8424
        53.0004         46.0004
  21904203.3274  -18038169.86243 -13999881.95342  21904205.5084   21904201.3714
        54.0004         47.0004
  20869156.0654   -7990634.22844  -6224318.80442  20869157.8294   20869151.7314
        57.0004         51.0004
  22214982.2674   12607490.07543   9824149.57542  22214984.2614   22214980.3124
        50.0004         44.0004
  20398919.1824   -5142841.09344  -4000669.97642  20398919.3064   20398914.2524
        57.0004         50.0004
  23383919.6414  -12914789.78043 -10053382.80942  23383923.2094   23383918.4034
        49.0004         41.0004
  20635423.9974  -24316370.98344 -18903838.29642  20635425.1464   20635420.9074
        58.0004         51.0004
 03 12 17 19 16 30.0000000  0  7G26G29G28G27G 8G11G 7
  22249247.8824  -12756932.66443  -9935070.43342  22249249.5714   22249246.0524
        53.0004         45.0004
  21903743.3914  -18040586.96743 -14001765.42642  21903745.0974   21903740.6644
        54.0004         47.0004
  20870828.1784   -7981848.36444  -6217472.68642  20870829.5654   20870823.7244
        57.0004         51.0004
  22229652.2964   12684580.72843   9884220.13642  22229654.4644   22229650.7744
        51.0004         44.0004
  20406092.4094   -5105143.94944  -3971295.60142  20406092.6584   20406087.8914
        57.0004         50.0004
  23386072.0274  -12903476.80243 -10044567.48142  23386075.4944   23386072.0754
        49.0004         41.0004
  20627843.4644  -24356206.40044 -18934878.86242  20627844.6934   20627840.4534
        58.0004         51.0004
 03 12 17 19 17  0.0000000  0  7G26G29G28G27G 8G11G 7
  22245055.7264  -12778961.29543  -9952235.59242  22245058.3844   22245053.5174
        52.0004         45.0004
  21903391.3574  -18042437.61843 -14003207.50442  21903393.5034   21903389.0424
        54.0004         47.0004
  20872532.1494   -7972892.34244  -6210493.97942  20872533.7824   20872528.0304
        57.0004         51.0004
  22244385.8964   12762004.66743   9944550.39742  22244387.5734   22244383.3014
        50.0004         44.0004
  20413350.9144   -5066998.83444  -3941572.15642  20413351.6554   20413346.4674
        57.0004         50.0004
  23388322.5584  -12891652.43243 -10035353.64342  23388324.4924   23388320.8944
        49.0004         41.0004
  20620349.1584  -24395589.86344 -18965567.25842  20620350.4024   20620346.0304
        58.0004         51.0004
 03 12 17 19 17 30.0000000  0  7G26G29G28G27G 8G11G 7
  22240973.1444  -12800415.53343  -9968953.18342  22240975.9794   22240970.4704
        53.0004         45.0004
  21903146.3964  -18043725.08443 -14004210.73742  21903148.2504   21903143.7154
        54.0004         47.0004
  20874268.1234   -7963769.59144  -6203385.35342  20874269.9584   20874264.0524
        57.0004         50.0004
  22259182.1194   12839757.90443  10005137.25242  22259183.3834   22259179.9714
        51.0004         44.0004
  20420694.8464   -5028408.59544  -3911501.86042  20420694.8974   20420690.0384
        57.0004         50.0004
  23390669.8254  -12879319.71043 -10025743.66842  23390671.2374   23390669.9134
        49.0004         41.0004
  20612940.2044  -24434524.20044 -18995905.68442  20612941.4734   20612937.0764
        58.0004         51.0004
 03 12 17 19 18  0.0000000  0  7G26G29G28G27G 8G11G 7
  22237000.1804  -12821292.21943  -9985220.71942  22237002.8934   22236998.2244
        52.0004         45.0004
  21903008.9654  -18044447.18143 -14004773.42242  21903011.0474   21903007.2014
        54.0004         47.0004
  20876036.3754   -7954477.98244  -6196145.15042  20876038.1524   20876032.1964
        57.0004         51.0004
  22274040.4924   12917842.23943  10065982.10442  22274042.1244   22274039.8724
        50.0004         44.0004
  20428123.3434   -4989370.47144  -3881082.56842  20428123.6794   20428119.1134
        57.0004         50.0004
  23393114.1364  -12866475.71943 -10015735.31542  23393115.6174   23393111.8254
        50.0004         42.0004
  20605617.1834  -24473006.37744 -19025891.77842  20605618.5914   20605614.1064
        58.0004         51.0004
 03 12 17 19 18 30.0000000  0  7G26G29G28G27G 8G11G 7
  22233137.7694  -12841591.10543 -10001038.03342  22233140.2864   22233135.4984
        52.0004         45.0004
  21902978.9534  -18044604.12143 -14004895.73242  21902980.9064   21902976.9034
        54.0004         47.0004
  20877836.6984   -7945017.87244  -6188773.65442  20877838.3364   20877832.4224
        57.0004         51.0004
  22288963.4974   12996256.39743  10127083.94842  22288963.9774   22288961.2924
        50.0004         44.0004
  20435637.5314   -4949884.60744  -3850314.38342  20435637.7294   20435632.9244
        57.0004         50.0004
  23395655.1184  -12853120.85743 -10005328.87642  23395656.5624   23395651.5444
        49.0004         41.0004
  20598380.3224  -24511036.23144 -19055525.41542  20598381.7044   20598377.3134
        58.0004         51.0004
 03 12 17 19 19  0.0000000  0  7G26G29G28G27G 8G11G 7
  22229384.8134  -12861313.72043 -10016406.30442  22229386.9244   22229383.1224
        52.0004         45.0004
  21903056.2774  -18044198.28743 -14004579.50942  21903058.4174   21903053.5264
        54.0004         47.0004
  20879668.4524   -7935391.92144  -6181272.92742  20879670.0584   20879664.1264
        57.0004         50.0004
  22303946.1424   13074997.53143  10188440.58042  22303948.4474   22303946.3984
        50.0004         43.0004
  20443236.2214   -4909952.80744  -3819198.71442  20443236.1464   20443231.5424
        57.0004         50.0004
  23398293.4354  -12839256.38943  -9994525.33842  23398295.5684   23398289.0914
        50.0004         41.0004
  20591229.2344  -24548615.43744 -19084807.89842  20591230.5364   20591226.1674
        58.0004         51.0004
 03 12 17 19 19 30.0000000  0  7G26G29G28G27G 8G11G 7
  22225741.8814  -12880457.21143 -10031323.30042  22225743.7594   22225740.2234
        52.0004         45.0004
  21903240.5864  -18043227.84743 -14003823.33942  21903242.9334   21903238.6104
        54.0004         47.0004
  20881532.0664   -7925598.13844  -6173641.42142  20881533.8614   20881528.1934
        57.0004         51.0004
  22318992.8234   13154066.86843  10250052.96442  22318993.9074   22318990.4274
        50.0004         44.0004
  20450920.0894   -4869572.80744  -3787733.79642  20450920.2714   20450915.6414
        57.0004         50.0004
  23401028.7964  -12824880.00843  -9983322.90442  23401031.7074   23401024.9754
        50.0004         41.0004
  20584164.3534  -24585741.35544 -19113737.17042  20584165.7974   20584161.2804
        58.0004         51.0004
 03 12 17 19 20  0.0000000  0  7G26G29G28G27G 8G11G 7
  22222208.9694  -12899022.15643 -10045789.48742  22222211.2494   22222207.0354
        52.0004         45.0004
  21903532.7574  -18041693.91343 -14002628.08742  21903535.2654   21903530.3274
        54.0004         47.0004
  20883427.7554   -7915637.70544  -6165880.06242  20883429.1674   20883423.4064
        57.0004         50.0004
  22334101.6924   13233462.65643  10311919.73042  22334102.6004   22334101.6704
        50.0004         43.0004
  20458689.6214   -4828745.38744  -3755920.23542  20458689.5794   20458685.1854
        57.0004         50.0004
  23403861.7394  -12809992.65043  -9971722.30842  23403864.9194   23403858.6544
        49.0004         41.0004
  20577185.7834  -24622414.67844 -19142313.77042  20577187.0124   20577182.6784
        58.0004         51.0004
 03 12 17 19 20 30.0000000  0  7G26G29G28G27G 8G11G 7
  22218785.9404  -12917008.96443 -10059805.17642  22218788.4424   22218783.7594
        53.0004         45.0004
  21903931.6774  -18039597.73643 -14000994.71442  21903933.8234   21903929.1804
        54.0004         47.0004
  20885354.5744   -7905511.68144  -6157989.67642  20885356.2834   20885350.2944
        57.0004         51.0004
  22349272.0694   13313182.98343  10374039.36642  22349273.5944   22349271.1814
        50.0004         43.0004
  20466543.3554   -4787471.43644  -3723758.73142  20466543.6344   20466539.2284
        57.0004         50.0004
  23406792.3124  -12794594.91943  -9959724.02742  23406792.7694   23406787.7614
        49.0004         41.0004
  20570293.0444  -24658635.88644 -19170538.07342  20570294.4304   20570289.8974
        58.0004         51.0004
 03 12 17 19 21  0.0000000  0  7G26G29G28G27G 8G11G 7
  22215473.6644  -12934416.15343 -10073369.22342  22215475.3554   22215471.9024
        52.0004         46.0004
  21904437.7494  -18036938.67343 -13998922.73242  21904440.1334   21904435.1464
        54.0004         47.0004
  20887313.0024   -7895219.31944  -6149969.67142  20887314.6204   20887308.9524
        57.0004         51.0004
  22364505.0494   13393228.12343  10436412.12942  22364506.0334   22364502.2284
        50.0004         43.0004
  20474482.5994   -4745749.77744  -3691248.36942  20474482.9944   20474478.4884
        57.0004         50.0004
  23409818.8224  -12778685.64443  -9947327.14142  23409822.6624   23409818.9354
        49.0004         41.0004
  20563486.8574  -24694403.54944 -19198408.96742  20563487.9344   20563483.7854
        58.0004         51.0004
 03 12 17 19 21 30.0000000  0  7G26G29G28G27G 8G11G 7
  22212271.7774  -12951240.96143 -10086479.45842  22212274.0714   22212269.9224
        53.0004         45.0004
  21905051.3334  -18033714.70243 -13996410.56342  21905053.3044   21905049.0224
        54.0004         47.0004
  20889303.5854   -7884758.64844  -6141818.51842  20889305.2484   20889299.5744
        57.0004         50.0004
  22379798.4084   13473599.27943  10499038.90642  22379799.2314   22379796.8354
        50.0004         43.0004
  20482508.0654   -4703578.18644  -3658387.39942  20482508.2304   20482503.4174
        57.0004         50.0004
  23412943.8214  -12762262.36143  -9934529.71342  23412947.3064   23412943.5694
        48.0004         41.0004
  20556767.2044  -24729715.24044 -19225924.55742  20556768.2864   20556764.2114
        58.0004         51.0004
 03 12 17 19 22  0.0000000  0  7G26G29G28G27G 8G11G 7
  22209179.6004  -12967491.66543 -10099142.34742  22209181.9764   22209177.5964
        53.0004         46.0004
  21905770.6684  -18029934.79343 -13993465.19742  21905773.4424   21905767.8034
        54.0004         47.0004
  20891324.4514   -7874138.55744  -6133543.14642  20891326.3814   20891320.4364
        57.0004         50.0004
  22395152.7004   13554287.09143  10561912.42242  22395155.6594   22395152.6874
        50.0004         43.0004
  20490617.1064   -4660964.89644  -3625182.25442  20490617.2964   20490612.5114
        57.0004         50.0004
  23416165.3064  -12745333.06543  -9921338.03142  23416170.7934   23416163.1974
        49.0004         41.0004
  20550132.7464  -24764578.93944 -19253091.06242  20550134.0654   20550129.5074
        58.0004         51.0004
 03 12 17 19 22 30.0000000  0  7G26G29G28G27G 8G11G 7
  22206198.4094  -12983158.10243 -10111349.96042  22206200.9134   22206196.2974
        53.0004         45.0004
  21906597.3864  -18025589.52743 -13990079.28942  21906599.5124   21906595.0844
        54.0004         47.0004
  20893377.3654   -7863349.59844  -6125136.18642  20893379.4034   20893373.6204
        57.0004         50.0004
  22410569.1854   13635300.34743  10625039.53642  22410571.6304   22410568.7544
        50.0004         43.0004
  20498811.7754   -4617900.27244  -3591625.42342  20498812.3774   20498807.7054
        57.0004         50.0004
  23419485.4674  -12727888.54343  -9907744.86642  23419487.1334   23419482.0814
        49.0004         41.0004
  20543585.6694  -24798984.78144 -19279900.79842  20543586.6064   20543582.4804
        58.0004         51.0004
 03 12 17 19 23  0.0000000  0  7G26G29G28G27G 8G11G 7
  22203327.6534  -12998244.51643 -10123105.60842  22203329.9624   22203325.5734
        53.0004         46.0004
  21907530.9894  -18020683.96943 -13986256.79442  21907533.1754   21907528.5154
        54.0004         47.0004
  20895461.8034   -7852396.47444  -6116601.30942  20895463.5524   20895457.9704
        57.0004         50.0004
  22426046.8124   13716633.35843  10688415.82042  22426048.1914   22426045.3134
        50.0004         43.0004
  20507091.7744   -4574389.03344  -3557720.57942  20507091.9524   20507087.6124
        57.0004         50.0004
  23422901.9534  -12709933.17543  -9893753.65642  23422904.3334   23422897.8354
        49.0004         41.0004
  20537124.6394  -24832937.18744 -19306357.20542  20537125.8254   20537121.5814
        58.0004         51.0004
 03 12 17 19 23 30.0000000  0  7G26G29G28G27G 8G11G 7
  22200566.8824  -13012752.17143 -10134410.27442  22200569.0214   22200564.9264
        53.0004         46.0004
  21908570.7224  -18015220.17143 -13981999.30142  21908572.2024   21908568.3514
        54.0004         47.0004
  20897577.4964   -7841281.02144  -6107939.93942  20897578.7894   20897573.1804
        57.0004         50.0004
  22441584.2044   13798283.72543  10752039.38742  22441584.8014   22441582.6484
        49.0004         43.0004
  20515456.4274   -4530432.50344  -3523468.75342  20515456.6904   20515451.8374
        57.0004         50.0004
  23426415.9694  -12691468.20143  -9879365.38342  23426419.8394   23426412.5274
        49.0004         41.0004
  20530749.5964  -24866437.34444 -19332461.21142  20530751.0224   20530746.4904
        58.0004         51.0004
 03 12 17 19 24  0.0000000  0  7G26G29G28G27G 8G11G 7
  22197917.5364  -13026678.05543 -10145261.62042  22197919.5144   22197914.1754
        53.0004         46.0004
  21909717.1704  -18009195.90043 -13977305.08442  21909719.3074   21909714.4804
        54.0004         47.0004
  20899723.9354   -7830000.93944  -6099150.29342  20899725.7004   20899719.7174
        57.0004         50.0004
  22457182.0014   13880252.97243  10815911.43042  22457183.5424   22457181.5644
        49.0004         43.0004
  20523906.6594   -4486028.03644  -3488867.89142  20523906.4634   20523901.7884
        57.0004         50.0004
  23430027.3524  -12672491.03543  -9864577.98942  23430029.6404   23430024.7934
        49.0004         41.0004
  20524461.4924  -24899482.36544 -19358210.56742  20524462.7104   20524458.3134
        58.0004         51.0004
 03 12 17 19 24 30.0000000  0  7G26G29G28G27G 8G11G 7
  22195377.7724  -13040021.58543 -10155659.17542  22195380.5524   22195375.1094
        53.0004         46.0004
  21910969.9224  -18002611.36543 -13972174.29242  21910971.8194   21910967.9334
        54.0004         47.0004
  20901901.5794   -7818556.15044  -6090232.30542  20901903.4394   20901897.5084
        57.0004         50.0004
  22472841.2554   13962540.42243  10880031.41642  22472843.0744   22472839.6764
        49.0004         43.0004
  20532441.6304   -4441175.24044  -3453917.68242  20532441.8994   20532437.3084
        57.0004         50.0004
  23433735.3894  -12653001.26343  -9849391.17142  23433739.3034   23433734.3834
        49.0004         41.0004
  20518259.9544  -24932071.65344 -19383604.80642  20518261.1974   20518256.8274
        58.0004         51.0004
 03 12 17 19 25  0.0000000  0  7G26G29G28G27G 8G11G 7
  22192948.6814  -13052785.11643 -10165604.78342  22192950.3474   22192947.1314
        53.0004         46.0004
  21912329.0034  -17995469.74243 -13966609.40742  21912331.3124   21912327.0644
        54.0004         47.0004
  20904110.3014   -7806949.32544  -6081188.05142  20904112.1474   20904105.9074
        57.0004         50.0004
  22488559.9354   14045142.53543  10944396.60542  22488561.3544   22488559.3284
        49.0004         43.0004
  20541061.5284   -4395876.88244  -3418620.28542  20541061.7374   20541057.0934
        57.0004         50.0004
  23437541.4554  -12633001.52643  -9833806.98742  23437543.6914   23437539.8294
        49.0004         41.0004
  20512144.7114  -24964207.72744 -19408645.89542  20512145.7384   20512141.5764
        58.0004         51.0004
 03 12 17 19 25 30.0000000  0  7G26G29G28G27G 8G11G 7
  22190630.6674  -13064967.04543 -10175097.20542  22190633.6334   22190628.3054
        52.0004         46.0004
  21913793.8334  -17987770.02743 -13960609.64142  21913796.9624   21913791.9124
        54.0004         47.0004
  20906350.0434   -7795179.40444  -6072016.71742  20906351.9904   20906345.9554
        57.0004         50.0004
  22504339.3264   14128059.62843  11009007.22542  22504340.4574   22504337.2024
        50.0004         43.0004
  20549766.4074   -4350131.54744  -3382974.59442  20549766.9094   20549762.3784
        57.0004         50.0004
  23441445.4084  -12612490.49743  -9817824.39042  23441443.9364   23441443.6254
        49.0004         41.0004
  20506115.9284  -24995888.95744 -19433332.55842  20506117.1624   20506112.6934
        58.0004         51.0004
 03 12 17 19 26  0.0000000  0  7G26G29G28G27G 8G11G 7
  22188423.6644  -13076565.65043 -10184135.09142  22188425.9864   22188421.7994
        53.0004         46.0004
  21915366.0464  -17979511.44243 -13954174.39842  21915367.9844   21915363.5754
        54.0004         47.0004
  20908621.1054   -7783245.09644  -6062717.28942  20908622.9894   20908616.9014
        57.0004         50.0004
  22520177.4874   14211292.33743  11073863.76442  22520178.9194   22520176.6234
        49.0004         43.0004
  20558557.1074   -4303937.80744  -3346979.50142  20558557.2254   20558552.6524
        57.0004         50.0004
  23445446.0384  -12591466.85043  -9801442.37342  23445449.1074   23445445.1514
        49.0004         41.0004
  20500174.0614  -25027113.54244 -19457663.39642  20500175.4654   20500170.8124
        58.0004         51.0004
 03 12 17 19 26 30.0000000  0  7G26G29G28G27G 8G11G 7
  22186326.1334  -13087586.63543 -10192722.87342  22186328.2224   22186323.9844
        52.0004         46.0004
  21917042.5784  -17970700.28043 -13947308.56442  21917044.2234   21917040.7384
        54.0004         47.0004
  20910922.3814   -7771152.41744  -6053294.45542  20910924.1184   20910918.2034
        57.0004         50.0004
  22536074.3164   14294833.48943  11138960.66542  22536076.6714   22536073.8004
        48.0004         43.0004
  20567431.5094   -4257301.59444  -3310639.62342  20567431.6614   20567427.6174
        57.0004         50.0004
  23449540.9774  -12569936.20743  -9784665.30142  23449544.8924   23449540.8144
        48.0004         41.0004
  20494317.8914  -25057887.46244 -19481643.06942  20494319.0854   20494314.6744
        58.0004         51.0004
 03 12 17 19 27  0.0000000  0  7G26G29G28G27G 8G11G 7
  22184340.9464  -13098021.29443 -10200853.79142  22184342.9604   22184338.3854
        53.0004         46.0004
  21918826.2194  -17961328.73343 -13940006.07742  21918828.4174   21918823.5474
        54.0004         47.0004
  20913255.1214   -7758892.83944  -6043741.56542  20913257.1754   20913251.2384
        57.0004         50.0004
  22552032.4734   14378690.76543  11204303.89842  22552032.8524   22552031.4414
        48.0004         42.0004
  20576392.1634   -4210214.44244  -3273948.36542  20576392.6824   20576388.0094
        57.0004         50.0004
  23453736.8574  -12547890.27343  -9767486.67842  23453739.2414   23453735.8334
        48.0004         41.0004
  20488549.3864  -25088201.74344 -19505264.58142  20488550.5704   20488546.2664
        58.0004         51.0004
 03 12 17 19 27 30.0000000  0  7G26G29G28G27G 8G11G 7
  22182464.6334  -13107879.58443 -10208535.58642  22182466.4634   22182462.4854
        53.0004         46.0004
  21920713.7934  -17951407.49843 -13932275.25742  21920716.1344   21920711.7284
        54.0004         47.0004
  20915618.0354   -7746476.82944  -6034066.77942  20915620.0034   20915614.0634
        57.0004         50.0004
  22568048.2144   14462853.05143  11269884.77942  22568049.6924   22568047.9494
        49.0004         42.0004
  20585436.3894   -4162686.48944  -3236913.62842  20585436.5834   20585432.1874
        57.0004         50.0004
  23458029.1514  -12525339.11543  -9749914.40642  23458031.9294   23458026.3044
        49.0004         41.0004
  20482866.2944  -25118066.36644 -19528535.71142  20482867.4144   20482863.2744
        58.0004         51.0004
 03 12 17 19 28  0.0000000  0  7G26G29G28G27G 8G11G 7
  22180699.8984  -13117155.03243 -10215763.22042  22180701.8974   22180697.5494
        53.0004         46.0004
  21922707.2924  -17940930.87543 -13924111.67442  21922709.6284   21922704.9114
        54.0004         47.0004
  20918011.4894   -7733898.36244  -6024265.40242  20918013.2474   20918007.6224
        57.0004         50.0004
  22584122.0134   14547325.54443  11335707.38642  22584124.8634   22584121.5834
        49.0004         42.0004
  20594566.0034   -4114711.76644  -3199530.76642  20594566.1584   20594561.3994
        57.0004         50.0004
  23462418.7124  -12502276.40443  -9731943.48142  23462418.1274   23462415.9444
        49.0004         41.0004
  20477269.9974  -25147475.10344 -19551451.60642  20477271.0794   20477266.8774
        58.0004         51.0004
 03 12 17 19 28 30.0000000  0  7G26G29G28G27G 8G11G 7
  22179046.2704  -13125844.10643 -10222533.94242  22179048.9034   22179044.0624
        53.0004         46.0004
  21924807.3694  -17929896.09543 -13915513.16542  21924809.8744   21924805.5884
        54.0004         47.0004
  20920436.5594   -7721154.05244  -6014334.79842  20920438.5604   20920433.0644
        57.0004         50.0004
  22600256.7804   14632110.57443  11401773.52742  22600258.5564   22600256.9554
        49.0004         42.0004
  20603780.9604   -4066286.49544  -3161796.82842  20603780.8304   20603776.5934
        57.0004         50.0004
  23466903.6784  -12478699.04943  -9713571.57942  23466907.3764   23466901.9614
        49.0004         41.0004
  20471761.1304  -25176424.15444 -19574009.30242  20471762.2334   20471758.1434
        58.0004         51.0004
 03 12 17 19 29  0.0000000  0  7G26G29G28G27G 8G11G 7
  22177502.5424  -13133957.24543 -10228855.88842  22177504.6664   22177500.0134
        53.0004         46.0004
  21927011.4864  -17918314.35243 -13906488.45542  21927013.4804   21927009.0434
        54.0004         47.0004
  20922891.4924   -7708254.36444  -6004283.11542  20922893.0934   20922887.4354
        57.0004         50.0004
  22616448.0044   14717196.66243  11468074.27742  22616449.0774   22616447.0674
        48.0004         42.0004
  20613079.7184   -4017421.48344  -3123720.23742  20613079.6754   20613075.0484
        57.0004         50.0004
  23471487.7284  -12454617.71243  -9694806.93342  23471489.8244   23471484.7124
        49.0004         41.0004
  20466337.7014  -25204924.07344 -19596217.03042  20466339.0404   20466334.6714
        58.0004         51.0004
 03 12 17 19 29 30.0000000  0  7G26G29G28G27G 8G11G 7
  22176069.4944  -13141488.24743 -10234724.21742  22176071.0524   22176067.2444
        53.0004         46.0004
  21929320.5214  -17906180.17343 -13897033.27142  21929322.3564   21929318.5514
        54.0004         47.0004
  20925376.9114   -7695193.29944  -5994105.68342  20925378.5774   20925372.8574
        57.0004         50.0004
  22632698.1244   14802588.77643  11534613.46742  22632697.8754   22632698.0224
        49.0004         42.0004
  20622463.1654   -3968110.71744  -3085296.30442  20622463.3284   20622458.9334
        57.0004         50.0004
  23476167.4354  -12430026.35543  -9675644.88842  23476168.4394   23476165.2964
        49.0004         41.0004
  20461001.0404  -25232968.48444 -19618069.81342  20461002.2004   20460998.0174
        58.0004         51.0004
 03 12 17 19 30  0.0000000  0  7G26G29G28G27G 8G11G 7
  22174747.3254  -13148435.02443 -10240137.30742  22174749.2214   22174745.7234
        53.0004         46.0004
  21931734.6954  -17893492.26643 -13887146.61442  21931736.7744   21931732.5114
        54.0004         47.0004
  20927893.5924   -7681968.95744  -5983801.01642  20927895.2714   20927889.5384
        57.0004         50.0004
  22649005.8554   14888287.93943  11601391.91342  22649006.2504   22649004.8844
        48.0004         42.0004
  20631931.6154   -3918352.21544  -3046523.48942  20631932.0634   20631927.7944
        57.0004         50.0004
  23480943.0934  -12404922.98443  -9656083.88842  23480945.1554   23480941.2444
        49.0004         41.0004
  20455751.5534  -25260555.36944 -19639566.08542  20455752.5514   20455748.4604
        58.0004         51.0004
 03 12 17 19 30 30.0000000  0  7G26G29G28G27G 8G11G 7
  22173535.4154  -13154803.96743 -10245100.13742  22173537.2054   22173533.1334
        53.0004         46.0004
  21934253.4744  -17880257.79143 -13876834.07642  21934255.1874   21934251.0944
        54.0004         47.0004
  20930439.7814   -7668588.05144  -5973374.34742  20930441.5594   20930435.6384
        57.0004         50.0004
  22665370.8764   14974286.51743  11668403.65342  22665371.5624   22665369.2974
        49.0004         42.0004
  20641484.7844   -3868152.78044  -3007407.08342  20641484.8214   20641480.2704
        57.0004         50.0004
  23485816.2794  -12379314.16843  -9636129.01542  23485820.2884   23485815.2004
        48.0004         41.0004
  20450587.7444  -25287691.03244 -19660710.75142  20450588.7414   20450584.6304
        58.0004         51.0004
 03 12 17 19 31  0.0000000  0  7G26G29G28G27G 8G11G 7
  22172434.5324  -13160589.66043 -10249608.48942  22172436.0354   22172432.9824
        53.0004         46.0004
  21936876.7374  -17866472.00043 -13866091.91942  21936878.9214   21936874.3664
        54.0004         47.0004
  20933017.2164   -7655045.18344  -5962821.47242  20933018.6044   20933012.8464
        57.0004         50.0004
  22681794.6814   15060589.02243  11735652.23842  22681795.5644   22681793.4234
        49.0004         42.0004
  20651121.8514   -3817506.89443  -2967942.79942  20651122.2184   20651118.0034
        56.0004         50.0004
  23490787.4444  -12353194.89143  -9615776.37042  23490788.0854   23490785.2884
        48.0004         41.0004
  20445510.9094  -25314369.89844 -19681499.47242  20445512.0854   20445507.8624
        58.0004         51.0004
 03 12 17 19 31 30.0000000  0  7G26G29G28G27G 8G11G 7
  22171443.6864  -13165796.00343 -10253665.39942  22171446.2204   22171442.1954
        53.0004         46.0004
  21939604.0544  -17852139.65843 -13854923.88842  21939605.9474   21939601.8244
        54.0004         47.0004
  20935624.3144   -7641344.30144  -5952145.46942  20935625.8404   20935620.1594
        57.0004         50.0004
  22698273.7544   15147190.36743  11803133.67842  22698275.2624   22698273.8414
        49.0004         42.0004
  20660843.9624   -3766418.67944  -2928133.84342  20660843.8604   20660839.8344
        57.0004         50.0004
  23495853.2054  -12326569.03343  -9595029.03642  23495857.3574   23495853.0244
        49.0004         41.0004
  20440520.2794  -25340595.94744 -19701935.34842  20440521.3934   20440517.0654
        58.0004         51.0004
 03 12 17 19 32  0.0000000  0  7G26G29G28G27G 8G11G 7
  22170564.0534  -13170419.29543 -10257267.98642  22170566.2994   22170561.7784
        53.0004         46.0004
  21942436.1234  -17837257.84543 -13843327.70242  21942438.5664   21942434.2094
        54.0004         47.0004
  20938261.9174   -7627481.84344  -5941343.55842  20938263.6744   20938258.0774
        57.0004         50.0004
  22714810.8984   15234093.19043  11870850.03942  22714812.4254   22714809.7134
        49.0004         42.0004
  20670650.6854   -3714884.68844  -2887977.52442  20670650.6114   20670646.2524
        57.0004         50.0004
  23501018.0374  -12299433.39143  -9573884.45342  23501020.7324   23501016.9064
        48.0004         41.0004
  20435616.5104  -25366365.33044 -19722015.37742  20435617.8264   20435613.3884
        58.0004         51.0004
 03 12 17 19 32 30.0000000  0  7G26G29G28G27G 8G11G 7
  22169794.3564  -13174464.72043 -10260420.28142  22169796.3284   22169792.3444
        53.0004         46.0004
  21945371.3714  -17821832.30643 -13831307.83342  21945373.4424   21945368.9174
        54.0004         47.0004
  20940929.7844   -7613462.46744  -5930419.37242  20940931.4554   20940925.8474
        57.0004         50.0004
  22731404.0454   15321291.37243  11938796.55042  22731407.5354   22731404.3024
        48.0004         42.0004
  20680541.1264   -3662910.07344  -2847477.86442  20680541.0704   20680536.6514
        57.0004         50.0004
  23506277.2114  -12271792.90243  -9552346.44042  23506279.5624   23506276.4564
        48.0004         41.0004
  20430798.7414  -25391683.02344 -19741743.44242  20430799.6534   20430795.7804
        58.0004         51.0004
 03 12 17 19 33  0.0000000  0  7G26G29G28G27G 8G11G 7
  22169134.5514  -13177930.61643 -10263120.99642  22169136.6954   22169132.4164
        53.0004         46.0004
  21948410.3994  -17805862.38643 -13818863.77042  21948412.6344   21948408.0634
        54.0004         47.0004
  20943627.7704   -7599284.98744  -5919371.98642  20943629.5404   20943623.7764
        57.0004         50.0004
  22748053.9914   15408785.43243  12006973.60842  22748055.4924   22748053.1434
        49.0004         42.0004
  20690515.5594   -3610493.45743  -2806633.79042  20690515.5574   20690511.2994
        56.0004         50.0004
  23511634.0794  -12243646.25143  -9530414.03442  23511636.4924   23511632.6514
        48.0004         42.0004
  20426067.1904  -25416547.53544 -19761118.38142  20426068.4154   20426063.9064
        58.0004         52.0004
 03 12 17 19 33 30.0000000  0  7G26G29G28G27G 8G11G 7
  22168586.1284  -13180814.40943 -10265368.13142  22168587.9824   22168584.0714
        53.0004         46.0004
  21951553.4864  -17789345.95943 -13805993.86142  21951555.6444   21951551.1214
        54.0004         47.0004
  20946356.2704   -7584946.67044  -5908199.27442  20946358.2504   20946352.2664
        57.0004         50.0004
  22764760.5734   15496577.04943  12075382.55542  22764761.8104   22764760.8274
        48.0004         42.0004
  20700574.7484   -3557632.03643  -2765443.11142  20700575.0214   20700570.4114
        56.0004         50.0004
  23517088.3674  -12214991.02943  -9508085.34142  23517089.0724   23517083.7794
        49.0004         41.0004
  20421422.3874  -25440956.02144 -19780137.97442  20421423.5154   20421419.2284
        58.0004         52.0004
 03 12 17 19 34  0.0000000  0  7G26G29G28G27G 8G11G 7
  22168147.0204  -13183121.01943 -10267165.51342  22168149.2534   22168145.5194
        53.0004         46.0004
  21954799.3444  -17772288.85643 -13792702.65242  21954801.4054   21954797.3914
        54.0004         47.0004
  20949114.5574   -7570452.21744  -5896904.89842  20949116.3614   20949110.3534
        57.0004         50.0004
  22781522.0474   15584660.24843  12144018.66942  22781521.6474   22781520.3844
        49.0004         42.0004
  20710717.6534   -3504331.05644  -2723909.91842  20710718.1704   20710713.4614
        57.0004         50.0004
  23522636.7404  -12185832.30243  -9485364.26542  23522637.3024   23522633.6364
        49.0004         41.0004
  20416863.4904  -25464913.22344 -19798805.91942  20416864.7034   20416860.4174
        58.0004         52.0004
 03 12 17 19 34 30.0000000  0  7G26G29G28G27G 8G11G 7
  22167818.4154  -13184847.31343 -10268510.69642  22167820.5864   22167815.8134
        53.0004         46.0004
  21958148.7894  -17754688.65143 -13778988.24442  21958150.7534   21958146.2994
        54.0004         47.0004
  20951903.2374   -7555798.57044  -5885486.47442  20951904.7124   20951899.1294
        57.0004         50.0004
  22798339.7784   15673037.03843  12212883.57942  22798342.0174   22798338.4564
        49.0004         42.0004
  20720944.7354   -3450587.44844  -2682031.82442  20720945.2374   20720940.4914
        57.0004         50.0004
  23528280.5534  -12156167.22743  -9462248.66142  23528282.4384   23528277.9104
        48.0004         41.0004
  20412390.8374  -25488415.97044 -19817119.74442  20412392.0454   20412387.9724
        58.0004         52.0004
 03 12 17 19 35  0.0000000  0  7G26G29G28G27G 8G11G 7
  22167600.3844  -13185992.40543 -10269403.00242  22167602.5964   22167598.9674
        53.0004         46.0004
  21961600.9354  -17736545.22343 -13764850.54242  21961603.4054   21961598.8684
        54.0004         47.0004
  20954722.2674   -7540984.53444  -5873943.07542  20954724.0114   20954718.1774
        57.0004         50.0004
  22815212.9284   15761707.30743  12281977.16442  22815215.4104   22815211.3664
        49.0004         42.0004
  20731256.2194   -3396400.36543  -2639808.16242  20731256.4124   20731252.0314
        56.0004         50.0004
  23534023.2584  -12125995.22243  -9438738.03542  23534025.3264   23534020.8134
        49.0004         42.0004
  20408005.1254  -25511463.34144 -19835078.73142  20408006.3994   20408002.1514
        58.0004         51.0004
 03 12 17 19 35 30.0000000  0  7G26G29G28G27G 8G11G 7
  22167492.1544  -13186564.13443 -10269848.53842  22167494.1804   22167489.5494
        53.0004         46.0004
  21965155.3754  -17717867.34943 -13750296.39042  21965157.6254   21965153.2914
        54.0004         47.0004
  20957569.8724   -7526017.83644  -5862280.72042  20957572.0014   20957566.3234
        57.0004         50.0004
  22832141.2694   15850662.34143  12351292.66142  22832141.6414   22832140.3154
        48.0004         41.0004
  20741650.5734   -3341777.94643  -2597245.28242  20741650.8524   20741646.7804
        56.0004         50.0004
  23539859.3124  -12095324.20943  -9414838.53942  23539863.1354   23539857.3764
        50.0004         42.0004
  20403704.6714  -25534062.87344 -19852688.75442  20403705.7524   20403701.4704
        58.0004         51.0004
 03 12 17 19 36  0.0000000  0  7G26G29G28G27G 8G11G 7
  22167494.1024  -13186553.41343 -10269840.21142  22167495.4804   22167492.0084
        53.0004         46.0004
  21968812.8434  -17698646.47343 -13735319.12742  21968814.9194   21968810.7694
        54.0004         47.0004
  20960448.9384   -7510889.33244  -5850492.28442  20960450.6094   20960444.7244
        57.0004         50.0004
  22849123.9704   15939910.25743  12420836.36342  22849126.3054   22849122.5474
        48.0004         41.0004
  20752129.4014   -3286710.86643  -2554335.91042  20752129.8024   20752125.4964
        56.0004         49.0004
  23545793.4584  -12064145.15443  -9390543.15942  23545795.6494   23545790.2754
        50.0004         41.0004
  20399491.0904  -25556205.45244 -19869942.71342  20399492.3784   20399487.6294
        58.0004         52.0004
 03 12 17 19 36 30.0000000  0  7G26G29G28G27G 8G11G 7
  22167605.6614  -13185966.83443 -10269383.15942  22167607.8794   22167603.7954
        53.0004         46.0004
  21972572.7474  -17678889.82543 -13719924.37542  21972574.5194   21972570.1414
        54.0004         47.0004
  20963357.3524   -7495605.13144  -5838582.52342  20963359.0814   20963353.3354
        57.0004         50.0004
  22866161.7554   16029443.55343  12490602.42442  22866163.3424   22866161.3504
        48.0004         41.0004
  20762691.9954   -3231205.83843  -2511085.28242  20762692.0644   20762687.5824
        56.0004         49.0004
  23551821.1674  -12032464.74843  -9365857.12942  23551825.2104   23551817.7894
        49.0004         42.0004
  20395363.2304  -25577897.37744 -19886845.50942  20395364.5334   20395360.1214
        58.0004         52.0004
